<?xml version="1.0" encoding="UTF-8" standalone="no" ?>
<gpx xmlns="http://www.topografix.com/GPX/1/1" xmlns:xsi="http://www.w3.org/2001/XMLSchema-instance" xsi:schemaLocation="http://www.topografix.com/GPX/1/1 http://www.topografix.com/GPX/1/1/gpx.xsd" version="1.1" creator="VisuGPX - https://www.visugpx.com">
  <metadata>
    <name>2021-09-12 depuis la Schlucht</name>
    <desc><![CDATA[File with points/tracks from Locus Map Pro/3.54.3]]></desc>
  </metadata>
  <trk>
    <name><![CDATA[2021-09-12 depuis la Schlucht]]></name>
    <extensions>
      <line xmlns="http://www.topografix.com/GPX/gpx_style/0/2">
        <color>0000FF</color>
        <opacity>0.59</opacity>
        <width>6.0</width>
      </line>
    </extensions>
    <trkseg>
      <trkpt lat="48.06452" lon="7.02231">
        <ele>1091.46</ele>
        <time>2021-09-12T07:37:35.000Z</time>
      </trkpt>
      <trkpt lat="48.06458" lon="7.02242">
        <ele>1090.41</ele>
        <time>2021-09-12T07:37:54.000Z</time>
      </trkpt>
      <trkpt lat="48.06461" lon="7.02256">
        <ele>1089.85</ele>
        <time>2021-09-12T07:38:03.000Z</time>
      </trkpt>
      <trkpt lat="48.06465" lon="7.02268">
        <ele>1089.83</ele>
        <time>2021-09-12T07:38:12.000Z</time>
      </trkpt>
      <trkpt lat="48.06468" lon="7.02281">
        <ele>1088.36</ele>
        <time>2021-09-12T07:38:21.000Z</time>
      </trkpt>
      <trkpt lat="48.06471" lon="7.02294">
        <ele>1088.6</ele>
        <time>2021-09-12T07:38:31.000Z</time>
      </trkpt>
      <trkpt lat="48.06462" lon="7.02298">
        <ele>1092.91</ele>
        <time>2021-09-12T07:39:26.000Z</time>
      </trkpt>
      <trkpt lat="48.06453" lon="7.02299">
        <ele>1093.52</ele>
        <time>2021-09-12T07:39:31.000Z</time>
      </trkpt>
      <trkpt lat="48.06444" lon="7.02303">
        <ele>1093.89</ele>
        <time>2021-09-12T07:39:38.000Z</time>
      </trkpt>
      <trkpt lat="48.06442" lon="7.02289">
        <ele>1091.73</ele>
        <time>2021-09-12T07:39:53.000Z</time>
      </trkpt>
      <trkpt lat="48.06433" lon="7.02288">
        <ele>1090.2</ele>
        <time>2021-09-12T07:40:00.000Z</time>
      </trkpt>
      <trkpt lat="48.06424" lon="7.02295">
        <ele>1089.64</ele>
        <time>2021-09-12T07:40:07.000Z</time>
      </trkpt>
      <trkpt lat="48.06423" lon="7.02309">
        <ele>1091.46</ele>
        <time>2021-09-12T07:40:14.000Z</time>
      </trkpt>
      <trkpt lat="48.0642" lon="7.02323">
        <ele>1091.55</ele>
        <time>2021-09-12T07:40:22.000Z</time>
      </trkpt>
      <trkpt lat="48.06418" lon="7.02336">
        <ele>1091.22</ele>
        <time>2021-09-12T07:40:32.000Z</time>
      </trkpt>
      <trkpt lat="48.06415" lon="7.02349">
        <ele>1091.95</ele>
        <time>2021-09-12T07:40:40.000Z</time>
      </trkpt>
      <trkpt lat="48.0642" lon="7.02361">
        <ele>1093.73</ele>
        <time>2021-09-12T07:40:52.000Z</time>
      </trkpt>
      <trkpt lat="48.06415" lon="7.02372">
        <ele>1099.51</ele>
        <time>2021-09-12T07:41:06.000Z</time>
      </trkpt>
      <trkpt lat="48.06406" lon="7.02377">
        <ele>1100.88</ele>
        <time>2021-09-12T07:41:18.000Z</time>
      </trkpt>
      <trkpt lat="48.06404" lon="7.0239">
        <ele>1100.73</ele>
        <time>2021-09-12T07:41:34.000Z</time>
      </trkpt>
      <trkpt lat="48.06413" lon="7.02393">
        <ele>1099.25</ele>
        <time>2021-09-12T07:41:42.000Z</time>
      </trkpt>
      <trkpt lat="48.0642" lon="7.02401">
        <ele>1100.29</ele>
        <time>2021-09-12T07:41:54.000Z</time>
      </trkpt>
      <trkpt lat="48.06419" lon="7.02415">
        <ele>1103.41</ele>
        <time>2021-09-12T07:42:07.000Z</time>
      </trkpt>
      <trkpt lat="48.06424" lon="7.02426">
        <ele>1104.29</ele>
        <time>2021-09-12T07:42:15.000Z</time>
      </trkpt>
      <trkpt lat="48.06431" lon="7.02437">
        <ele>1104.83</ele>
        <time>2021-09-12T07:42:24.000Z</time>
      </trkpt>
      <trkpt lat="48.06436" lon="7.02448">
        <ele>1106.6</ele>
        <time>2021-09-12T07:42:35.000Z</time>
      </trkpt>
      <trkpt lat="48.0644" lon="7.02461">
        <ele>1106.98</ele>
        <time>2021-09-12T07:42:47.000Z</time>
      </trkpt>
      <trkpt lat="48.06444" lon="7.02474">
        <ele>1110.92</ele>
        <time>2021-09-12T07:42:58.000Z</time>
      </trkpt>
      <trkpt lat="48.0645" lon="7.02487">
        <ele>1115.37</ele>
        <time>2021-09-12T07:43:14.000Z</time>
      </trkpt>
      <trkpt lat="48.06457" lon="7.02496">
        <ele>1118.2</ele>
        <time>2021-09-12T07:43:26.000Z</time>
      </trkpt>
      <trkpt lat="48.06463" lon="7.02506">
        <ele>1119.79</ele>
        <time>2021-09-12T07:43:36.000Z</time>
      </trkpt>
      <trkpt lat="48.06468" lon="7.02519">
        <ele>1121.45</ele>
        <time>2021-09-12T07:43:47.000Z</time>
      </trkpt>
      <trkpt lat="48.06475" lon="7.0253">
        <ele>1121.59</ele>
        <time>2021-09-12T07:43:57.000Z</time>
      </trkpt>
      <trkpt lat="48.06476" lon="7.02543">
        <ele>1123.98</ele>
        <time>2021-09-12T07:44:17.000Z</time>
      </trkpt>
      <trkpt lat="48.06483" lon="7.02554">
        <ele>1126.98</ele>
        <time>2021-09-12T07:44:32.000Z</time>
      </trkpt>
      <trkpt lat="48.0649" lon="7.02564">
        <ele>1127.91</ele>
        <time>2021-09-12T07:44:42.000Z</time>
      </trkpt>
      <trkpt lat="48.06497" lon="7.02574">
        <ele>1128.34</ele>
        <time>2021-09-12T07:44:52.000Z</time>
      </trkpt>
      <trkpt lat="48.06503" lon="7.02585">
        <ele>1130.31</ele>
        <time>2021-09-12T07:45:05.000Z</time>
      </trkpt>
      <trkpt lat="48.06505" lon="7.02598">
        <ele>1132.94</ele>
        <time>2021-09-12T07:45:20.000Z</time>
      </trkpt>
      <trkpt lat="48.0651" lon="7.0261">
        <ele>1137.17</ele>
        <time>2021-09-12T07:45:33.000Z</time>
      </trkpt>
      <trkpt lat="48.06515" lon="7.02621">
        <ele>1140.75</ele>
        <time>2021-09-12T07:45:45.000Z</time>
      </trkpt>
      <trkpt lat="48.06517" lon="7.02635">
        <ele>1145.09</ele>
        <time>2021-09-12T07:45:59.000Z</time>
      </trkpt>
      <trkpt lat="48.06521" lon="7.02648">
        <ele>1148.25</ele>
        <time>2021-09-12T07:46:13.000Z</time>
      </trkpt>
      <trkpt lat="48.0652" lon="7.02662">
        <ele>1151.33</ele>
        <time>2021-09-12T07:46:28.000Z</time>
      </trkpt>
      <trkpt lat="48.06525" lon="7.02675">
        <ele>1152.59</ele>
        <time>2021-09-12T07:46:39.000Z</time>
      </trkpt>
      <trkpt lat="48.06527" lon="7.02688">
        <ele>1154.59</ele>
        <time>2021-09-12T07:46:51.000Z</time>
      </trkpt>
      <trkpt lat="48.06533" lon="7.02699">
        <ele>1155.56</ele>
        <time>2021-09-12T07:47:05.000Z</time>
      </trkpt>
      <trkpt lat="48.06536" lon="7.02712">
        <ele>1160.91</ele>
        <time>2021-09-12T07:47:18.000Z</time>
      </trkpt>
      <trkpt lat="48.06543" lon="7.02726">
        <ele>1163.23</ele>
        <time>2021-09-12T07:47:34.000Z</time>
      </trkpt>
      <trkpt lat="48.06544" lon="7.0274">
        <ele>1166.98</ele>
        <time>2021-09-12T07:47:52.000Z</time>
      </trkpt>
      <trkpt lat="48.06549" lon="7.02751">
        <ele>1168.05</ele>
        <time>2021-09-12T07:48:05.000Z</time>
      </trkpt>
      <trkpt lat="48.06554" lon="7.02763">
        <ele>1168.64</ele>
        <time>2021-09-12T07:48:16.000Z</time>
      </trkpt>
      <trkpt lat="48.06559" lon="7.02776">
        <ele>1171.84</ele>
        <time>2021-09-12T07:48:28.000Z</time>
      </trkpt>
      <trkpt lat="48.06566" lon="7.02784">
        <ele>1172.81</ele>
        <time>2021-09-12T07:48:38.000Z</time>
      </trkpt>
      <trkpt lat="48.06571" lon="7.02796">
        <ele>1176.1</ele>
        <time>2021-09-12T07:48:52.000Z</time>
      </trkpt>
      <trkpt lat="48.06576" lon="7.02808">
        <ele>1180.57</ele>
        <time>2021-09-12T07:49:05.000Z</time>
      </trkpt>
      <trkpt lat="48.06578" lon="7.02821">
        <ele>1183.99</ele>
        <time>2021-09-12T07:49:20.000Z</time>
      </trkpt>
      <trkpt lat="48.06584" lon="7.02832">
        <ele>1184.87</ele>
        <time>2021-09-12T07:49:32.000Z</time>
      </trkpt>
      <trkpt lat="48.0659" lon="7.02843">
        <ele>1185.02</ele>
        <time>2021-09-12T07:49:43.000Z</time>
      </trkpt>
      <trkpt lat="48.06592" lon="7.02857">
        <ele>1186.54</ele>
        <time>2021-09-12T07:49:53.000Z</time>
      </trkpt>
      <trkpt lat="48.06592" lon="7.02871">
        <ele>1189.77</ele>
        <time>2021-09-12T07:50:06.000Z</time>
      </trkpt>
      <trkpt lat="48.06584" lon="7.02876">
        <ele>1191.39</ele>
        <time>2021-09-12T07:50:22.000Z</time>
      </trkpt>
      <trkpt lat="48.06581" lon="7.0289">
        <ele>1193.22</ele>
        <time>2021-09-12T07:51:08.000Z</time>
      </trkpt>
      <trkpt lat="48.06586" lon="7.02902">
        <ele>1194.46</ele>
        <time>2021-09-12T07:51:20.000Z</time>
      </trkpt>
      <trkpt lat="48.0659" lon="7.02915">
        <ele>1196.73</ele>
        <time>2021-09-12T07:51:33.000Z</time>
      </trkpt>
      <trkpt lat="48.06593" lon="7.02928">
        <ele>1197.96</ele>
        <time>2021-09-12T07:51:42.000Z</time>
      </trkpt>
      <trkpt lat="48.06597" lon="7.02941">
        <ele>1200.8</ele>
        <time>2021-09-12T07:51:51.000Z</time>
      </trkpt>
      <trkpt lat="48.06599" lon="7.02955">
        <ele>1203.11</ele>
        <time>2021-09-12T07:52:00.000Z</time>
      </trkpt>
      <trkpt lat="48.06605" lon="7.02966">
        <ele>1202.28</ele>
        <time>2021-09-12T07:52:05.000Z</time>
      </trkpt>
      <trkpt lat="48.0661" lon="7.02979">
        <ele>1203.28</ele>
        <time>2021-09-12T07:52:14.000Z</time>
      </trkpt>
      <trkpt lat="48.06614" lon="7.02992">
        <ele>1206.65</ele>
        <time>2021-09-12T07:52:22.000Z</time>
      </trkpt>
      <trkpt lat="48.06623" lon="7.02997">
        <ele>1207.98</ele>
        <time>2021-09-12T07:52:32.000Z</time>
      </trkpt>
      <trkpt lat="48.06632" lon="7.02999">
        <ele>1207.53</ele>
        <time>2021-09-12T07:52:44.000Z</time>
      </trkpt>
      <trkpt lat="48.06642" lon="7.03">
        <ele>1208.62</ele>
        <time>2021-09-12T07:52:53.000Z</time>
      </trkpt>
      <trkpt lat="48.06651" lon="7.03003">
        <ele>1210.36</ele>
        <time>2021-09-12T07:52:59.000Z</time>
      </trkpt>
      <trkpt lat="48.0666" lon="7.03002">
        <ele>1212.62</ele>
        <time>2021-09-12T07:53:07.000Z</time>
      </trkpt>
      <trkpt lat="48.0667" lon="7.03001">
        <ele>1211.99</ele>
        <time>2021-09-12T07:53:19.000Z</time>
      </trkpt>
      <trkpt lat="48.06679" lon="7.03001">
        <ele>1211.92</ele>
        <time>2021-09-12T07:53:26.000Z</time>
      </trkpt>
      <trkpt lat="48.06688" lon="7.03002">
        <ele>1210.5</ele>
        <time>2021-09-12T07:53:32.000Z</time>
      </trkpt>
      <trkpt lat="48.06698" lon="7.03001">
        <ele>1208.7</ele>
        <time>2021-09-12T07:53:42.000Z</time>
      </trkpt>
      <trkpt lat="48.06706" lon="7.02997">
        <ele>1207.25</ele>
        <time>2021-09-12T07:53:50.000Z</time>
      </trkpt>
      <trkpt lat="48.06715" lon="7.02993">
        <ele>1206.39</ele>
        <time>2021-09-12T07:53:58.000Z</time>
      </trkpt>
      <trkpt lat="48.06726" lon="7.02992">
        <ele>1205.45</ele>
        <time>2021-09-12T07:54:10.000Z</time>
      </trkpt>
      <trkpt lat="48.06736" lon="7.02993">
        <ele>1205.32</ele>
        <time>2021-09-12T07:54:17.000Z</time>
      </trkpt>
      <trkpt lat="48.06746" lon="7.02992">
        <ele>1205.98</ele>
        <time>2021-09-12T07:54:24.000Z</time>
      </trkpt>
      <trkpt lat="48.06756" lon="7.0299">
        <ele>1204.53</ele>
        <time>2021-09-12T07:54:31.000Z</time>
      </trkpt>
      <trkpt lat="48.06766" lon="7.02987">
        <ele>1204.84</ele>
        <time>2021-09-12T07:54:40.000Z</time>
      </trkpt>
      <trkpt lat="48.06775" lon="7.02985">
        <ele>1204.95</ele>
        <time>2021-09-12T07:54:47.000Z</time>
      </trkpt>
      <trkpt lat="48.06785" lon="7.02981">
        <ele>1202.32</ele>
        <time>2021-09-12T07:54:58.000Z</time>
      </trkpt>
      <trkpt lat="48.06795" lon="7.02979">
        <ele>1201.26</ele>
        <time>2021-09-12T07:55:04.000Z</time>
      </trkpt>
      <trkpt lat="48.06804" lon="7.02981">
        <ele>1200.29</ele>
        <time>2021-09-12T07:55:13.000Z</time>
      </trkpt>
      <trkpt lat="48.06813" lon="7.02982">
        <ele>1199.68</ele>
        <time>2021-09-12T07:55:23.000Z</time>
      </trkpt>
      <trkpt lat="48.06822" lon="7.02986">
        <ele>1200.55</ele>
        <time>2021-09-12T07:55:30.000Z</time>
      </trkpt>
      <trkpt lat="48.06831" lon="7.02991">
        <ele>1201.88</ele>
        <time>2021-09-12T07:55:40.000Z</time>
      </trkpt>
      <trkpt lat="48.0684" lon="7.02992">
        <ele>1202.42</ele>
        <time>2021-09-12T07:55:48.000Z</time>
      </trkpt>
      <trkpt lat="48.06849" lon="7.0299">
        <ele>1203.23</ele>
        <time>2021-09-12T07:55:59.000Z</time>
      </trkpt>
      <trkpt lat="48.06858" lon="7.02992">
        <ele>1202.54</ele>
        <time>2021-09-12T07:56:07.000Z</time>
      </trkpt>
      <trkpt lat="48.06868" lon="7.02993">
        <ele>1204.64</ele>
        <time>2021-09-12T07:56:17.000Z</time>
      </trkpt>
      <trkpt lat="48.06877" lon="7.02989">
        <ele>1205.25</ele>
        <time>2021-09-12T07:56:25.000Z</time>
      </trkpt>
      <trkpt lat="48.06888" lon="7.02987">
        <ele>1205.18</ele>
        <time>2021-09-12T07:56:34.000Z</time>
      </trkpt>
      <trkpt lat="48.06898" lon="7.02986">
        <ele>1205.25</ele>
        <time>2021-09-12T07:56:42.000Z</time>
      </trkpt>
      <trkpt lat="48.06907" lon="7.02989">
        <ele>1205.41</ele>
        <time>2021-09-12T07:56:51.000Z</time>
      </trkpt>
      <trkpt lat="48.06916" lon="7.02991">
        <ele>1205.6</ele>
        <time>2021-09-12T07:56:58.000Z</time>
      </trkpt>
      <trkpt lat="48.06926" lon="7.0299">
        <ele>1211.43</ele>
        <time>2021-09-12T07:57:10.000Z</time>
      </trkpt>
      <trkpt lat="48.06936" lon="7.02989">
        <ele>1212.62</ele>
        <time>2021-09-12T07:57:20.000Z</time>
      </trkpt>
      <trkpt lat="48.06946" lon="7.02991">
        <ele>1212.91</ele>
        <time>2021-09-12T07:57:26.000Z</time>
      </trkpt>
      <trkpt lat="48.06955" lon="7.02989">
        <ele>1212.92</ele>
        <time>2021-09-12T07:57:33.000Z</time>
      </trkpt>
      <trkpt lat="48.06964" lon="7.02988">
        <ele>1209.55</ele>
        <time>2021-09-12T07:57:42.000Z</time>
      </trkpt>
      <trkpt lat="48.06974" lon="7.0299">
        <ele>1206.99</ele>
        <time>2021-09-12T07:57:50.000Z</time>
      </trkpt>
      <trkpt lat="48.06983" lon="7.02996">
        <ele>1206.37</ele>
        <time>2021-09-12T07:57:57.000Z</time>
      </trkpt>
      <trkpt lat="48.06992" lon="7.02996">
        <ele>1206.28</ele>
        <time>2021-09-12T07:58:04.000Z</time>
      </trkpt>
      <trkpt lat="48.07001" lon="7.02996">
        <ele>1205.56</ele>
        <time>2021-09-12T07:58:12.000Z</time>
      </trkpt>
      <trkpt lat="48.0701" lon="7.0299">
        <ele>1204.76</ele>
        <time>2021-09-12T07:58:20.000Z</time>
      </trkpt>
      <trkpt lat="48.0702" lon="7.02988">
        <ele>1207.04</ele>
        <time>2021-09-12T07:58:30.000Z</time>
      </trkpt>
      <trkpt lat="48.07029" lon="7.02986">
        <ele>1208.33</ele>
        <time>2021-09-12T07:58:36.000Z</time>
      </trkpt>
      <trkpt lat="48.07039" lon="7.02984">
        <ele>1209.88</ele>
        <time>2021-09-12T07:58:44.000Z</time>
      </trkpt>
      <trkpt lat="48.07048" lon="7.02984">
        <ele>1210.05</ele>
        <time>2021-09-12T07:58:51.000Z</time>
      </trkpt>
      <trkpt lat="48.07057" lon="7.02982">
        <ele>1206.58</ele>
        <time>2021-09-12T07:58:58.000Z</time>
      </trkpt>
      <trkpt lat="48.07067" lon="7.02984">
        <ele>1203.91</ele>
        <time>2021-09-12T07:59:06.000Z</time>
      </trkpt>
      <trkpt lat="48.07076" lon="7.02981">
        <ele>1202.71</ele>
        <time>2021-09-12T07:59:14.000Z</time>
      </trkpt>
      <trkpt lat="48.07086" lon="7.02978">
        <ele>1200.69</ele>
        <time>2021-09-12T07:59:29.000Z</time>
      </trkpt>
      <trkpt lat="48.07095" lon="7.02978">
        <ele>1198.23</ele>
        <time>2021-09-12T07:59:37.000Z</time>
      </trkpt>
      <trkpt lat="48.07105" lon="7.0298">
        <ele>1197.04</ele>
        <time>2021-09-12T07:59:44.000Z</time>
      </trkpt>
      <trkpt lat="48.07115" lon="7.02983">
        <ele>1197.69</ele>
        <time>2021-09-12T07:59:51.000Z</time>
      </trkpt>
      <trkpt lat="48.07125" lon="7.02984">
        <ele>1200.43</ele>
        <time>2021-09-12T08:00:00.000Z</time>
      </trkpt>
      <trkpt lat="48.07134" lon="7.02984">
        <ele>1201.07</ele>
        <time>2021-09-12T08:00:08.000Z</time>
      </trkpt>
      <trkpt lat="48.07144" lon="7.02988">
        <ele>1200.63</ele>
        <time>2021-09-12T08:00:16.000Z</time>
      </trkpt>
      <trkpt lat="48.07153" lon="7.02989">
        <ele>1200.04</ele>
        <time>2021-09-12T08:00:25.000Z</time>
      </trkpt>
      <trkpt lat="48.07163" lon="7.02991">
        <ele>1199.06</ele>
        <time>2021-09-12T08:00:33.000Z</time>
      </trkpt>
      <trkpt lat="48.07173" lon="7.02995">
        <ele>1197.12</ele>
        <time>2021-09-12T08:00:41.000Z</time>
      </trkpt>
      <trkpt lat="48.07181" lon="7.02988">
        <ele>1198.22</ele>
        <time>2021-09-12T08:00:52.000Z</time>
      </trkpt>
      <trkpt lat="48.07191" lon="7.02988">
        <ele>1199.08</ele>
        <time>2021-09-12T08:01:01.000Z</time>
      </trkpt>
      <trkpt lat="48.07201" lon="7.02989">
        <ele>1198.25</ele>
        <time>2021-09-12T08:01:09.000Z</time>
      </trkpt>
      <trkpt lat="48.0721" lon="7.02994">
        <ele>1196.95</ele>
        <time>2021-09-12T08:01:16.000Z</time>
      </trkpt>
      <trkpt lat="48.07218" lon="7.03002">
        <ele>1196.64</ele>
        <time>2021-09-12T08:01:24.000Z</time>
      </trkpt>
      <trkpt lat="48.07227" lon="7.03008">
        <ele>1194.89</ele>
        <time>2021-09-12T08:01:32.000Z</time>
      </trkpt>
      <trkpt lat="48.07234" lon="7.03017">
        <ele>1195.36</ele>
        <time>2021-09-12T08:01:40.000Z</time>
      </trkpt>
      <trkpt lat="48.07242" lon="7.03023">
        <ele>1195.15</ele>
        <time>2021-09-12T08:01:49.000Z</time>
      </trkpt>
      <trkpt lat="48.07251" lon="7.0303">
        <ele>1194.1</ele>
        <time>2021-09-12T08:01:55.000Z</time>
      </trkpt>
      <trkpt lat="48.07259" lon="7.03037">
        <ele>1192.7</ele>
        <time>2021-09-12T08:02:01.000Z</time>
      </trkpt>
      <trkpt lat="48.07266" lon="7.03048">
        <ele>1190.83</ele>
        <time>2021-09-12T08:02:09.000Z</time>
      </trkpt>
      <trkpt lat="48.07273" lon="7.03055">
        <ele>1189.7</ele>
        <time>2021-09-12T08:02:18.000Z</time>
      </trkpt>
      <trkpt lat="48.07283" lon="7.03061">
        <ele>1188.61</ele>
        <time>2021-09-12T08:02:25.000Z</time>
      </trkpt>
      <trkpt lat="48.0729" lon="7.03072">
        <ele>1188.37</ele>
        <time>2021-09-12T08:02:35.000Z</time>
      </trkpt>
      <trkpt lat="48.07298" lon="7.0308">
        <ele>1186.54</ele>
        <time>2021-09-12T08:02:44.000Z</time>
      </trkpt>
      <trkpt lat="48.07306" lon="7.03086">
        <ele>1186.08</ele>
        <time>2021-09-12T08:02:51.000Z</time>
      </trkpt>
      <trkpt lat="48.07315" lon="7.03093">
        <ele>1185.92</ele>
        <time>2021-09-12T08:03:01.000Z</time>
      </trkpt>
      <trkpt lat="48.07324" lon="7.03097">
        <ele>1185.2</ele>
        <time>2021-09-12T08:03:06.000Z</time>
      </trkpt>
      <trkpt lat="48.07331" lon="7.03106">
        <ele>1182.43</ele>
        <time>2021-09-12T08:03:13.000Z</time>
      </trkpt>
      <trkpt lat="48.07338" lon="7.03116">
        <ele>1180.54</ele>
        <time>2021-09-12T08:03:21.000Z</time>
      </trkpt>
      <trkpt lat="48.07347" lon="7.03124">
        <ele>1177.58</ele>
        <time>2021-09-12T08:03:29.000Z</time>
      </trkpt>
      <trkpt lat="48.07354" lon="7.03133">
        <ele>1178.78</ele>
        <time>2021-09-12T08:03:36.000Z</time>
      </trkpt>
      <trkpt lat="48.07362" lon="7.03143">
        <ele>1178.57</ele>
        <time>2021-09-12T08:03:44.000Z</time>
      </trkpt>
      <trkpt lat="48.0737" lon="7.03148">
        <ele>1179.43</ele>
        <time>2021-09-12T08:03:50.000Z</time>
      </trkpt>
      <trkpt lat="48.07379" lon="7.03155">
        <ele>1177.89</ele>
        <time>2021-09-12T08:03:58.000Z</time>
      </trkpt>
      <trkpt lat="48.07387" lon="7.03164">
        <ele>1176.02</ele>
        <time>2021-09-12T08:04:05.000Z</time>
      </trkpt>
      <trkpt lat="48.07395" lon="7.03172">
        <ele>1174.15</ele>
        <time>2021-09-12T08:04:13.000Z</time>
      </trkpt>
      <trkpt lat="48.07401" lon="7.03182">
        <ele>1174.16</ele>
        <time>2021-09-12T08:04:19.000Z</time>
      </trkpt>
      <trkpt lat="48.07409" lon="7.03189">
        <ele>1174.27</ele>
        <time>2021-09-12T08:04:26.000Z</time>
      </trkpt>
      <trkpt lat="48.07415" lon="7.032">
        <ele>1174.03</ele>
        <time>2021-09-12T08:04:34.000Z</time>
      </trkpt>
      <trkpt lat="48.07421" lon="7.03211">
        <ele>1172.94</ele>
        <time>2021-09-12T08:04:43.000Z</time>
      </trkpt>
      <trkpt lat="48.07429" lon="7.0322">
        <ele>1170.85</ele>
        <time>2021-09-12T08:04:52.000Z</time>
      </trkpt>
      <trkpt lat="48.07435" lon="7.03232">
        <ele>1172</ele>
        <time>2021-09-12T08:05:02.000Z</time>
      </trkpt>
      <trkpt lat="48.07442" lon="7.03243">
        <ele>1172.43</ele>
        <time>2021-09-12T08:05:12.000Z</time>
      </trkpt>
      <trkpt lat="48.07448" lon="7.03254">
        <ele>1175.6</ele>
        <time>2021-09-12T08:05:21.000Z</time>
      </trkpt>
      <trkpt lat="48.07453" lon="7.03266">
        <ele>1179.69</ele>
        <time>2021-09-12T08:05:30.000Z</time>
      </trkpt>
      <trkpt lat="48.07459" lon="7.03276">
        <ele>1182.24</ele>
        <time>2021-09-12T08:05:40.000Z</time>
      </trkpt>
      <trkpt lat="48.07463" lon="7.03288">
        <ele>1185.78</ele>
        <time>2021-09-12T08:05:52.000Z</time>
      </trkpt>
      <trkpt lat="48.07469" lon="7.03299">
        <ele>1187.87</ele>
        <time>2021-09-12T08:06:01.000Z</time>
      </trkpt>
      <trkpt lat="48.07475" lon="7.0331">
        <ele>1188.78</ele>
        <time>2021-09-12T08:06:12.000Z</time>
      </trkpt>
      <trkpt lat="48.07482" lon="7.0332">
        <ele>1190.45</ele>
        <time>2021-09-12T08:06:22.000Z</time>
      </trkpt>
      <trkpt lat="48.07489" lon="7.0333">
        <ele>1190.72</ele>
        <time>2021-09-12T08:06:31.000Z</time>
      </trkpt>
      <trkpt lat="48.07495" lon="7.03341">
        <ele>1189.85</ele>
        <time>2021-09-12T08:06:41.000Z</time>
      </trkpt>
      <trkpt lat="48.07501" lon="7.03351">
        <ele>1189.15</ele>
        <time>2021-09-12T08:06:49.000Z</time>
      </trkpt>
      <trkpt lat="48.07508" lon="7.03361">
        <ele>1190.46</ele>
        <time>2021-09-12T08:06:58.000Z</time>
      </trkpt>
      <trkpt lat="48.07514" lon="7.03373">
        <ele>1193.88</ele>
        <time>2021-09-12T08:07:08.000Z</time>
      </trkpt>
      <trkpt lat="48.0752" lon="7.03385">
        <ele>1196.64</ele>
        <time>2021-09-12T08:07:18.000Z</time>
      </trkpt>
      <trkpt lat="48.07526" lon="7.03398">
        <ele>1199.9</ele>
        <time>2021-09-12T08:07:27.000Z</time>
      </trkpt>
      <trkpt lat="48.07532" lon="7.03408">
        <ele>1202.05</ele>
        <time>2021-09-12T08:07:37.000Z</time>
      </trkpt>
      <trkpt lat="48.07539" lon="7.03417">
        <ele>1202.06</ele>
        <time>2021-09-12T08:07:45.000Z</time>
      </trkpt>
      <trkpt lat="48.07545" lon="7.03427">
        <ele>1204.11</ele>
        <time>2021-09-12T08:07:56.000Z</time>
      </trkpt>
      <trkpt lat="48.07553" lon="7.03436">
        <ele>1205.34</ele>
        <time>2021-09-12T08:08:04.000Z</time>
      </trkpt>
      <trkpt lat="48.07558" lon="7.03448">
        <ele>1206.45</ele>
        <time>2021-09-12T08:08:12.000Z</time>
      </trkpt>
      <trkpt lat="48.07564" lon="7.0346">
        <ele>1208.34</ele>
        <time>2021-09-12T08:08:21.000Z</time>
      </trkpt>
      <trkpt lat="48.07569" lon="7.03472">
        <ele>1209.7</ele>
        <time>2021-09-12T08:08:30.000Z</time>
      </trkpt>
      <trkpt lat="48.07576" lon="7.03482">
        <ele>1209.09</ele>
        <time>2021-09-12T08:08:40.000Z</time>
      </trkpt>
      <trkpt lat="48.07584" lon="7.03491">
        <ele>1208.55</ele>
        <time>2021-09-12T08:08:49.000Z</time>
      </trkpt>
      <trkpt lat="48.07592" lon="7.03496">
        <ele>1205.2</ele>
        <time>2021-09-12T08:08:58.000Z</time>
      </trkpt>
      <trkpt lat="48.07599" lon="7.03507">
        <ele>1205.68</ele>
        <time>2021-09-12T08:09:05.000Z</time>
      </trkpt>
      <trkpt lat="48.07602" lon="7.0352">
        <ele>1208.64</ele>
        <time>2021-09-12T08:09:12.000Z</time>
      </trkpt>
      <trkpt lat="48.0761" lon="7.0353">
        <ele>1210.71</ele>
        <time>2021-09-12T08:09:19.000Z</time>
      </trkpt>
      <trkpt lat="48.07616" lon="7.03541">
        <ele>1212.14</ele>
        <time>2021-09-12T08:09:28.000Z</time>
      </trkpt>
      <trkpt lat="48.07624" lon="7.03548">
        <ele>1212.76</ele>
        <time>2021-09-12T08:09:35.000Z</time>
      </trkpt>
      <trkpt lat="48.07631" lon="7.03558">
        <ele>1214.24</ele>
        <time>2021-09-12T08:09:43.000Z</time>
      </trkpt>
      <trkpt lat="48.07636" lon="7.03569">
        <ele>1214.62</ele>
        <time>2021-09-12T08:09:53.000Z</time>
      </trkpt>
      <trkpt lat="48.07643" lon="7.0358">
        <ele>1214.86</ele>
        <time>2021-09-12T08:10:02.000Z</time>
      </trkpt>
      <trkpt lat="48.07649" lon="7.0359">
        <ele>1215.87</ele>
        <time>2021-09-12T08:10:10.000Z</time>
      </trkpt>
      <trkpt lat="48.07657" lon="7.03595">
        <ele>1216.36</ele>
        <time>2021-09-12T08:10:19.000Z</time>
      </trkpt>
      <trkpt lat="48.07665" lon="7.03603">
        <ele>1217.74</ele>
        <time>2021-09-12T08:10:27.000Z</time>
      </trkpt>
      <trkpt lat="48.07662" lon="7.03616">
        <ele>1219.7</ele>
        <time>2021-09-12T08:10:37.000Z</time>
      </trkpt>
      <trkpt lat="48.0766" lon="7.0363">
        <ele>1221.75</ele>
        <time>2021-09-12T08:10:45.000Z</time>
      </trkpt>
      <trkpt lat="48.07667" lon="7.0364">
        <ele>1221.67</ele>
        <time>2021-09-12T08:12:02.000Z</time>
      </trkpt>
      <trkpt lat="48.07676" lon="7.03647">
        <ele>1222.55</ele>
        <time>2021-09-12T08:12:11.000Z</time>
      </trkpt>
      <trkpt lat="48.07683" lon="7.03655">
        <ele>1223.41</ele>
        <time>2021-09-12T08:12:18.000Z</time>
      </trkpt>
      <trkpt lat="48.07693" lon="7.03657">
        <ele>1224.54</ele>
        <time>2021-09-12T08:12:27.000Z</time>
      </trkpt>
      <trkpt lat="48.07702" lon="7.0366">
        <ele>1224.6</ele>
        <time>2021-09-12T08:12:34.000Z</time>
      </trkpt>
      <trkpt lat="48.0771" lon="7.03664">
        <ele>1224.88</ele>
        <time>2021-09-12T08:12:42.000Z</time>
      </trkpt>
      <trkpt lat="48.0772" lon="7.03664">
        <ele>1223.89</ele>
        <time>2021-09-12T08:12:51.000Z</time>
      </trkpt>
      <trkpt lat="48.07729" lon="7.03667">
        <ele>1223.78</ele>
        <time>2021-09-12T08:12:59.000Z</time>
      </trkpt>
      <trkpt lat="48.07739" lon="7.03667">
        <ele>1224.13</ele>
        <time>2021-09-12T08:13:08.000Z</time>
      </trkpt>
      <trkpt lat="48.07749" lon="7.0367">
        <ele>1222.19</ele>
        <time>2021-09-12T08:13:16.000Z</time>
      </trkpt>
      <trkpt lat="48.07757" lon="7.03677">
        <ele>1220.93</ele>
        <time>2021-09-12T08:13:24.000Z</time>
      </trkpt>
      <trkpt lat="48.07767" lon="7.03683">
        <ele>1218.88</ele>
        <time>2021-09-12T08:13:33.000Z</time>
      </trkpt>
      <trkpt lat="48.07776" lon="7.03691">
        <ele>1216.69</ele>
        <time>2021-09-12T08:13:44.000Z</time>
      </trkpt>
      <trkpt lat="48.07782" lon="7.03701">
        <ele>1215.01</ele>
        <time>2021-09-12T08:13:53.000Z</time>
      </trkpt>
      <trkpt lat="48.0779" lon="7.03709">
        <ele>1215.13</ele>
        <time>2021-09-12T08:14:01.000Z</time>
      </trkpt>
      <trkpt lat="48.07797" lon="7.03721">
        <ele>1211.94</ele>
        <time>2021-09-12T08:14:10.000Z</time>
      </trkpt>
      <trkpt lat="48.07803" lon="7.03731">
        <ele>1210.04</ele>
        <time>2021-09-12T08:14:23.000Z</time>
      </trkpt>
      <trkpt lat="48.07811" lon="7.03738">
        <ele>1209.83</ele>
        <time>2021-09-12T08:14:30.000Z</time>
      </trkpt>
      <trkpt lat="48.07816" lon="7.0375">
        <ele>1210.01</ele>
        <time>2021-09-12T08:14:38.000Z</time>
      </trkpt>
      <trkpt lat="48.07822" lon="7.03763">
        <ele>1211.35</ele>
        <time>2021-09-12T08:14:46.000Z</time>
      </trkpt>
      <trkpt lat="48.07827" lon="7.03776">
        <ele>1210.32</ele>
        <time>2021-09-12T08:14:54.000Z</time>
      </trkpt>
      <trkpt lat="48.07831" lon="7.03788">
        <ele>1209.46</ele>
        <time>2021-09-12T08:15:02.000Z</time>
      </trkpt>
      <trkpt lat="48.07834" lon="7.03803">
        <ele>1209.87</ele>
        <time>2021-09-12T08:15:10.000Z</time>
      </trkpt>
      <trkpt lat="48.07838" lon="7.03816">
        <ele>1210.58</ele>
        <time>2021-09-12T08:15:18.000Z</time>
      </trkpt>
      <trkpt lat="48.07845" lon="7.03827">
        <ele>1212.87</ele>
        <time>2021-09-12T08:15:26.000Z</time>
      </trkpt>
      <trkpt lat="48.07849" lon="7.0384">
        <ele>1212.98</ele>
        <time>2021-09-12T08:15:33.000Z</time>
      </trkpt>
      <trkpt lat="48.07853" lon="7.03854">
        <ele>1213.86</ele>
        <time>2021-09-12T08:15:41.000Z</time>
      </trkpt>
      <trkpt lat="48.07857" lon="7.03866">
        <ele>1214.56</ele>
        <time>2021-09-12T08:15:49.000Z</time>
      </trkpt>
      <trkpt lat="48.07863" lon="7.03877">
        <ele>1215.35</ele>
        <time>2021-09-12T08:15:56.000Z</time>
      </trkpt>
      <trkpt lat="48.07868" lon="7.0389">
        <ele>1214.85</ele>
        <time>2021-09-12T08:16:04.000Z</time>
      </trkpt>
      <trkpt lat="48.07874" lon="7.03902">
        <ele>1213.29</ele>
        <time>2021-09-12T08:16:12.000Z</time>
      </trkpt>
      <trkpt lat="48.07878" lon="7.03914">
        <ele>1212.47</ele>
        <time>2021-09-12T08:16:19.000Z</time>
      </trkpt>
      <trkpt lat="48.07886" lon="7.03922">
        <ele>1209.82</ele>
        <time>2021-09-12T08:16:28.000Z</time>
      </trkpt>
      <trkpt lat="48.07891" lon="7.03933">
        <ele>1206.92</ele>
        <time>2021-09-12T08:16:37.000Z</time>
      </trkpt>
      <trkpt lat="48.07897" lon="7.03944">
        <ele>1204.67</ele>
        <time>2021-09-12T08:16:47.000Z</time>
      </trkpt>
      <trkpt lat="48.07899" lon="7.03958">
        <ele>1203.22</ele>
        <time>2021-09-12T08:16:54.000Z</time>
      </trkpt>
      <trkpt lat="48.07901" lon="7.03972">
        <ele>1203.77</ele>
        <time>2021-09-12T08:17:01.000Z</time>
      </trkpt>
      <trkpt lat="48.07904" lon="7.03985">
        <ele>1204.76</ele>
        <time>2021-09-12T08:17:08.000Z</time>
      </trkpt>
      <trkpt lat="48.07903" lon="7.03999">
        <ele>1206.94</ele>
        <time>2021-09-12T08:17:17.000Z</time>
      </trkpt>
      <trkpt lat="48.07902" lon="7.04015">
        <ele>1206.3</ele>
        <time>2021-09-12T08:17:26.000Z</time>
      </trkpt>
      <trkpt lat="48.07904" lon="7.04029">
        <ele>1211.32</ele>
        <time>2021-09-12T08:17:32.000Z</time>
      </trkpt>
      <trkpt lat="48.07906" lon="7.04043">
        <ele>1212.73</ele>
        <time>2021-09-12T08:17:41.000Z</time>
      </trkpt>
      <trkpt lat="48.07907" lon="7.04058">
        <ele>1212.65</ele>
        <time>2021-09-12T08:17:48.000Z</time>
      </trkpt>
      <trkpt lat="48.07909" lon="7.04072">
        <ele>1213.24</ele>
        <time>2021-09-12T08:17:57.000Z</time>
      </trkpt>
      <trkpt lat="48.07912" lon="7.04085">
        <ele>1214.81</ele>
        <time>2021-09-12T08:18:05.000Z</time>
      </trkpt>
      <trkpt lat="48.07914" lon="7.041">
        <ele>1213.21</ele>
        <time>2021-09-12T08:18:13.000Z</time>
      </trkpt>
      <trkpt lat="48.07915" lon="7.04114">
        <ele>1213.51</ele>
        <time>2021-09-12T08:18:22.000Z</time>
      </trkpt>
      <trkpt lat="48.07918" lon="7.04127">
        <ele>1212.1</ele>
        <time>2021-09-12T08:18:30.000Z</time>
      </trkpt>
      <trkpt lat="48.0792" lon="7.04141">
        <ele>1211.49</ele>
        <time>2021-09-12T08:18:38.000Z</time>
      </trkpt>
      <trkpt lat="48.0792" lon="7.04155">
        <ele>1212.81</ele>
        <time>2021-09-12T08:18:47.000Z</time>
      </trkpt>
      <trkpt lat="48.07925" lon="7.04167">
        <ele>1212.62</ele>
        <time>2021-09-12T08:18:54.000Z</time>
      </trkpt>
      <trkpt lat="48.07927" lon="7.04182">
        <ele>1213.13</ele>
        <time>2021-09-12T08:19:04.000Z</time>
      </trkpt>
      <trkpt lat="48.07928" lon="7.04197">
        <ele>1214.48</ele>
        <time>2021-09-12T08:19:13.000Z</time>
      </trkpt>
      <trkpt lat="48.07934" lon="7.04206">
        <ele>1211.89</ele>
        <time>2021-09-12T08:19:22.000Z</time>
      </trkpt>
      <trkpt lat="48.07933" lon="7.0422">
        <ele>1211.61</ele>
        <time>2021-09-12T08:19:31.000Z</time>
      </trkpt>
      <trkpt lat="48.07936" lon="7.04236">
        <ele>1209.48</ele>
        <time>2021-09-12T08:19:41.000Z</time>
      </trkpt>
      <trkpt lat="48.07937" lon="7.0425">
        <ele>1209.06</ele>
        <time>2021-09-12T08:19:49.000Z</time>
      </trkpt>
      <trkpt lat="48.07937" lon="7.04264">
        <ele>1211.1</ele>
        <time>2021-09-12T08:19:57.000Z</time>
      </trkpt>
      <trkpt lat="48.07939" lon="7.04279">
        <ele>1214.86</ele>
        <time>2021-09-12T08:20:05.000Z</time>
      </trkpt>
      <trkpt lat="48.07939" lon="7.04292">
        <ele>1216.84</ele>
        <time>2021-09-12T08:20:13.000Z</time>
      </trkpt>
      <trkpt lat="48.07941" lon="7.04307">
        <ele>1217.98</ele>
        <time>2021-09-12T08:20:22.000Z</time>
      </trkpt>
      <trkpt lat="48.07943" lon="7.04321">
        <ele>1220.11</ele>
        <time>2021-09-12T08:20:30.000Z</time>
      </trkpt>
      <trkpt lat="48.07944" lon="7.04335">
        <ele>1221.04</ele>
        <time>2021-09-12T08:20:39.000Z</time>
      </trkpt>
      <trkpt lat="48.07946" lon="7.0435">
        <ele>1221.29</ele>
        <time>2021-09-12T08:20:49.000Z</time>
      </trkpt>
      <trkpt lat="48.07946" lon="7.04364">
        <ele>1222.95</ele>
        <time>2021-09-12T08:20:57.000Z</time>
      </trkpt>
      <trkpt lat="48.07947" lon="7.04378">
        <ele>1222.46</ele>
        <time>2021-09-12T08:21:06.000Z</time>
      </trkpt>
      <trkpt lat="48.0795" lon="7.04392">
        <ele>1222.63</ele>
        <time>2021-09-12T08:21:14.000Z</time>
      </trkpt>
      <trkpt lat="48.0795" lon="7.04406">
        <ele>1222.76</ele>
        <time>2021-09-12T08:21:21.000Z</time>
      </trkpt>
      <trkpt lat="48.07951" lon="7.0442">
        <ele>1223.32</ele>
        <time>2021-09-12T08:21:30.000Z</time>
      </trkpt>
      <trkpt lat="48.07952" lon="7.04434">
        <ele>1224.23</ele>
        <time>2021-09-12T08:21:39.000Z</time>
      </trkpt>
      <trkpt lat="48.07954" lon="7.04449">
        <ele>1225.02</ele>
        <time>2021-09-12T08:21:49.000Z</time>
      </trkpt>
      <trkpt lat="48.07954" lon="7.04463">
        <ele>1226.12</ele>
        <time>2021-09-12T08:21:58.000Z</time>
      </trkpt>
      <trkpt lat="48.07955" lon="7.04477">
        <ele>1226.49</ele>
        <time>2021-09-12T08:22:08.000Z</time>
      </trkpt>
      <trkpt lat="48.07955" lon="7.04491">
        <ele>1226.27</ele>
        <time>2021-09-12T08:22:16.000Z</time>
      </trkpt>
      <trkpt lat="48.07957" lon="7.04505">
        <ele>1227.99</ele>
        <time>2021-09-12T08:22:24.000Z</time>
      </trkpt>
      <trkpt lat="48.07963" lon="7.04516">
        <ele>1229.49</ele>
        <time>2021-09-12T08:22:33.000Z</time>
      </trkpt>
      <trkpt lat="48.07969" lon="7.04526">
        <ele>1229.07</ele>
        <time>2021-09-12T08:22:41.000Z</time>
      </trkpt>
      <trkpt lat="48.07967" lon="7.04539">
        <ele>1230.12</ele>
        <time>2021-09-12T08:22:51.000Z</time>
      </trkpt>
      <trkpt lat="48.07964" lon="7.04553">
        <ele>1233.14</ele>
        <time>2021-09-12T08:23:04.000Z</time>
      </trkpt>
      <trkpt lat="48.07963" lon="7.04567">
        <ele>1234.72</ele>
        <time>2021-09-12T08:23:16.000Z</time>
      </trkpt>
      <trkpt lat="48.07968" lon="7.04578">
        <ele>1236.42</ele>
        <time>2021-09-12T08:23:25.000Z</time>
      </trkpt>
      <trkpt lat="48.0797" lon="7.04592">
        <ele>1237.73</ele>
        <time>2021-09-12T08:23:36.000Z</time>
      </trkpt>
      <trkpt lat="48.07971" lon="7.04606">
        <ele>1237.72</ele>
        <time>2021-09-12T08:23:47.000Z</time>
      </trkpt>
      <trkpt lat="48.07976" lon="7.04618">
        <ele>1237.56</ele>
        <time>2021-09-12T08:23:57.000Z</time>
      </trkpt>
      <trkpt lat="48.07977" lon="7.04632">
        <ele>1237.66</ele>
        <time>2021-09-12T08:24:07.000Z</time>
      </trkpt>
      <trkpt lat="48.07981" lon="7.04644">
        <ele>1238.07</ele>
        <time>2021-09-12T08:24:15.000Z</time>
      </trkpt>
      <trkpt lat="48.07982" lon="7.04658">
        <ele>1236.61</ele>
        <time>2021-09-12T08:24:24.000Z</time>
      </trkpt>
      <trkpt lat="48.07986" lon="7.04672">
        <ele>1235.43</ele>
        <time>2021-09-12T08:24:32.000Z</time>
      </trkpt>
      <trkpt lat="48.0799" lon="7.04686">
        <ele>1235.27</ele>
        <time>2021-09-12T08:24:39.000Z</time>
      </trkpt>
      <trkpt lat="48.07993" lon="7.04699">
        <ele>1240.45</ele>
        <time>2021-09-12T08:25:06.000Z</time>
      </trkpt>
      <trkpt lat="48.07992" lon="7.04712">
        <ele>1245.77</ele>
        <time>2021-09-12T08:25:12.000Z</time>
      </trkpt>
      <trkpt lat="48.07995" lon="7.04727">
        <ele>1254.23</ele>
        <time>2021-09-12T08:25:17.000Z</time>
      </trkpt>
      <trkpt lat="48.08001" lon="7.04738">
        <ele>1247.66</ele>
        <time>2021-09-12T08:25:27.000Z</time>
      </trkpt>
      <trkpt lat="48.08007" lon="7.04748">
        <ele>1244.78</ele>
        <time>2021-09-12T08:25:37.000Z</time>
      </trkpt>
      <trkpt lat="48.08015" lon="7.04755">
        <ele>1246.19</ele>
        <time>2021-09-12T08:25:47.000Z</time>
      </trkpt>
      <trkpt lat="48.08021" lon="7.04768">
        <ele>1243.17</ele>
        <time>2021-09-12T08:25:53.000Z</time>
      </trkpt>
      <trkpt lat="48.08027" lon="7.04778">
        <ele>1240.64</ele>
        <time>2021-09-12T08:25:59.000Z</time>
      </trkpt>
      <trkpt lat="48.08033" lon="7.04787">
        <ele>1238.05</ele>
        <time>2021-09-12T08:26:06.000Z</time>
      </trkpt>
      <trkpt lat="48.0804" lon="7.04799">
        <ele>1235.41</ele>
        <time>2021-09-12T08:26:13.000Z</time>
      </trkpt>
      <trkpt lat="48.08048" lon="7.04808">
        <ele>1231.43</ele>
        <time>2021-09-12T08:26:20.000Z</time>
      </trkpt>
      <trkpt lat="48.08054" lon="7.04818">
        <ele>1228.83</ele>
        <time>2021-09-12T08:26:29.000Z</time>
      </trkpt>
      <trkpt lat="48.08061" lon="7.04827">
        <ele>1227.54</ele>
        <time>2021-09-12T08:26:35.000Z</time>
      </trkpt>
      <trkpt lat="48.08067" lon="7.0484">
        <ele>1227.03</ele>
        <time>2021-09-12T08:26:43.000Z</time>
      </trkpt>
      <trkpt lat="48.08071" lon="7.04852">
        <ele>1225.59</ele>
        <time>2021-09-12T08:26:50.000Z</time>
      </trkpt>
      <trkpt lat="48.08075" lon="7.04864">
        <ele>1224.65</ele>
        <time>2021-09-12T08:26:57.000Z</time>
      </trkpt>
      <trkpt lat="48.08082" lon="7.04875">
        <ele>1221.69</ele>
        <time>2021-09-12T08:27:05.000Z</time>
      </trkpt>
      <trkpt lat="48.08087" lon="7.04888">
        <ele>1221.39</ele>
        <time>2021-09-12T08:27:12.000Z</time>
      </trkpt>
      <trkpt lat="48.08093" lon="7.04898">
        <ele>1221.53</ele>
        <time>2021-09-12T08:27:20.000Z</time>
      </trkpt>
      <trkpt lat="48.08102" lon="7.04907">
        <ele>1221.13</ele>
        <time>2021-09-12T08:27:28.000Z</time>
      </trkpt>
      <trkpt lat="48.08108" lon="7.04917">
        <ele>1218.73</ele>
        <time>2021-09-12T08:27:37.000Z</time>
      </trkpt>
      <trkpt lat="48.08113" lon="7.04929">
        <ele>1216.81</ele>
        <time>2021-09-12T08:27:43.000Z</time>
      </trkpt>
      <trkpt lat="48.08117" lon="7.04943">
        <ele>1217.18</ele>
        <time>2021-09-12T08:27:51.000Z</time>
      </trkpt>
      <trkpt lat="48.08122" lon="7.04955">
        <ele>1217.43</ele>
        <time>2021-09-12T08:27:58.000Z</time>
      </trkpt>
      <trkpt lat="48.08129" lon="7.04965">
        <ele>1217.14</ele>
        <time>2021-09-12T08:28:05.000Z</time>
      </trkpt>
      <trkpt lat="48.08136" lon="7.04975">
        <ele>1216.67</ele>
        <time>2021-09-12T08:28:12.000Z</time>
      </trkpt>
      <trkpt lat="48.08142" lon="7.04985">
        <ele>1215.7</ele>
        <time>2021-09-12T08:28:18.000Z</time>
      </trkpt>
      <trkpt lat="48.08151" lon="7.04993">
        <ele>1216.26</ele>
        <time>2021-09-12T08:28:26.000Z</time>
      </trkpt>
      <trkpt lat="48.08159" lon="7.05002">
        <ele>1216.37</ele>
        <time>2021-09-12T08:28:36.000Z</time>
      </trkpt>
      <trkpt lat="48.08165" lon="7.05014">
        <ele>1214.29</ele>
        <time>2021-09-12T08:28:43.000Z</time>
      </trkpt>
      <trkpt lat="48.0817" lon="7.05026">
        <ele>1214.64</ele>
        <time>2021-09-12T08:28:51.000Z</time>
      </trkpt>
      <trkpt lat="48.08178" lon="7.05033">
        <ele>1209.08</ele>
        <time>2021-09-12T08:31:03.000Z</time>
      </trkpt>
      <trkpt lat="48.08187" lon="7.0504">
        <ele>1208.17</ele>
        <time>2021-09-12T08:31:12.000Z</time>
      </trkpt>
      <trkpt lat="48.08194" lon="7.05049">
        <ele>1208.14</ele>
        <time>2021-09-12T08:31:22.000Z</time>
      </trkpt>
      <trkpt lat="48.08199" lon="7.05062">
        <ele>1209.47</ele>
        <time>2021-09-12T08:31:28.000Z</time>
      </trkpt>
      <trkpt lat="48.08206" lon="7.05071">
        <ele>1211.1</ele>
        <time>2021-09-12T08:31:35.000Z</time>
      </trkpt>
      <trkpt lat="48.08212" lon="7.05082">
        <ele>1212.2</ele>
        <time>2021-09-12T08:31:44.000Z</time>
      </trkpt>
      <trkpt lat="48.08218" lon="7.05092">
        <ele>1213.41</ele>
        <time>2021-09-12T08:31:51.000Z</time>
      </trkpt>
      <trkpt lat="48.08225" lon="7.05104">
        <ele>1214.42</ele>
        <time>2021-09-12T08:32:00.000Z</time>
      </trkpt>
      <trkpt lat="48.0823" lon="7.05115">
        <ele>1216.64</ele>
        <time>2021-09-12T08:32:08.000Z</time>
      </trkpt>
      <trkpt lat="48.08235" lon="7.05127">
        <ele>1217.38</ele>
        <time>2021-09-12T08:32:17.000Z</time>
      </trkpt>
      <trkpt lat="48.08241" lon="7.05138">
        <ele>1218.86</ele>
        <time>2021-09-12T08:32:28.000Z</time>
      </trkpt>
      <trkpt lat="48.08249" lon="7.05145">
        <ele>1221.02</ele>
        <time>2021-09-12T08:32:39.000Z</time>
      </trkpt>
      <trkpt lat="48.08258" lon="7.05151">
        <ele>1221.91</ele>
        <time>2021-09-12T08:32:54.000Z</time>
      </trkpt>
      <trkpt lat="48.08266" lon="7.05157">
        <ele>1223.02</ele>
        <time>2021-09-12T08:33:05.000Z</time>
      </trkpt>
      <trkpt lat="48.08272" lon="7.05167">
        <ele>1223.96</ele>
        <time>2021-09-12T08:33:15.000Z</time>
      </trkpt>
      <trkpt lat="48.08282" lon="7.05169">
        <ele>1225.82</ele>
        <time>2021-09-12T08:33:27.000Z</time>
      </trkpt>
      <trkpt lat="48.08289" lon="7.05177">
        <ele>1227.72</ele>
        <time>2021-09-12T08:33:38.000Z</time>
      </trkpt>
      <trkpt lat="48.08298" lon="7.05182">
        <ele>1225.81</ele>
        <time>2021-09-12T08:33:52.000Z</time>
      </trkpt>
      <trkpt lat="48.08306" lon="7.05189">
        <ele>1230.19</ele>
        <time>2021-09-12T08:34:04.000Z</time>
      </trkpt>
      <trkpt lat="48.08315" lon="7.05195">
        <ele>1233.8</ele>
        <time>2021-09-12T08:34:15.000Z</time>
      </trkpt>
      <trkpt lat="48.08324" lon="7.05198">
        <ele>1234.68</ele>
        <time>2021-09-12T08:34:28.000Z</time>
      </trkpt>
      <trkpt lat="48.08334" lon="7.05201">
        <ele>1234.94</ele>
        <time>2021-09-12T08:34:42.000Z</time>
      </trkpt>
      <trkpt lat="48.0834" lon="7.0521">
        <ele>1235.88</ele>
        <time>2021-09-12T08:34:55.000Z</time>
      </trkpt>
      <trkpt lat="48.08349" lon="7.05212">
        <ele>1238.23</ele>
        <time>2021-09-12T08:35:06.000Z</time>
      </trkpt>
      <trkpt lat="48.08359" lon="7.05215">
        <ele>1240.16</ele>
        <time>2021-09-12T08:35:56.000Z</time>
      </trkpt>
      <trkpt lat="48.08368" lon="7.05216">
        <ele>1240.07</ele>
        <time>2021-09-12T08:36:09.000Z</time>
      </trkpt>
      <trkpt lat="48.08372" lon="7.05229">
        <ele>1245.62</ele>
        <time>2021-09-12T08:36:44.000Z</time>
      </trkpt>
      <trkpt lat="48.08375" lon="7.05214">
        <ele>1249.64</ele>
        <time>2021-09-12T08:37:04.000Z</time>
      </trkpt>
      <trkpt lat="48.08385" lon="7.05214">
        <ele>1240.22</ele>
        <time>2021-09-12T08:37:53.000Z</time>
      </trkpt>
      <trkpt lat="48.08394" lon="7.05215">
        <ele>1238.43</ele>
        <time>2021-09-12T08:38:01.000Z</time>
      </trkpt>
      <trkpt lat="48.08403" lon="7.05218">
        <ele>1234.02</ele>
        <time>2021-09-12T08:38:12.000Z</time>
      </trkpt>
      <trkpt lat="48.08413" lon="7.05216">
        <ele>1234.35</ele>
        <time>2021-09-12T08:38:23.000Z</time>
      </trkpt>
      <trkpt lat="48.08422" lon="7.05219">
        <ele>1234.72</ele>
        <time>2021-09-12T08:38:30.000Z</time>
      </trkpt>
      <trkpt lat="48.08432" lon="7.05221">
        <ele>1233.36</ele>
        <time>2021-09-12T08:38:42.000Z</time>
      </trkpt>
      <trkpt lat="48.08442" lon="7.05225">
        <ele>1233.73</ele>
        <time>2021-09-12T08:38:52.000Z</time>
      </trkpt>
      <trkpt lat="48.08451" lon="7.05229">
        <ele>1233.35</ele>
        <time>2021-09-12T08:38:59.000Z</time>
      </trkpt>
      <trkpt lat="48.0846" lon="7.0523">
        <ele>1233.63</ele>
        <time>2021-09-12T08:39:10.000Z</time>
      </trkpt>
      <trkpt lat="48.08469" lon="7.05237">
        <ele>1232.65</ele>
        <time>2021-09-12T08:39:21.000Z</time>
      </trkpt>
      <trkpt lat="48.08478" lon="7.0524">
        <ele>1231.69</ele>
        <time>2021-09-12T08:39:55.000Z</time>
      </trkpt>
      <trkpt lat="48.08487" lon="7.05236">
        <ele>1231.74</ele>
        <time>2021-09-12T08:41:02.000Z</time>
      </trkpt>
      <trkpt lat="48.08496" lon="7.05234">
        <ele>1229.13</ele>
        <time>2021-09-12T08:41:31.000Z</time>
      </trkpt>
      <trkpt lat="48.08505" lon="7.05234">
        <ele>1227.64</ele>
        <time>2021-09-12T08:41:45.000Z</time>
      </trkpt>
      <trkpt lat="48.08513" lon="7.05227">
        <ele>1222.19</ele>
        <time>2021-09-12T08:41:59.000Z</time>
      </trkpt>
      <trkpt lat="48.08522" lon="7.05226">
        <ele>1220.12</ele>
        <time>2021-09-12T08:42:08.000Z</time>
      </trkpt>
      <trkpt lat="48.0853" lon="7.05235">
        <ele>1216.93</ele>
        <time>2021-09-12T08:42:23.000Z</time>
      </trkpt>
      <trkpt lat="48.08538" lon="7.05241">
        <ele>1216.17</ele>
        <time>2021-09-12T08:42:34.000Z</time>
      </trkpt>
      <trkpt lat="48.08547" lon="7.05246">
        <ele>1213.24</ele>
        <time>2021-09-12T08:42:45.000Z</time>
      </trkpt>
      <trkpt lat="48.08556" lon="7.05247">
        <ele>1209.89</ele>
        <time>2021-09-12T08:42:56.000Z</time>
      </trkpt>
      <trkpt lat="48.08566" lon="7.05249">
        <ele>1207.99</ele>
        <time>2021-09-12T08:43:07.000Z</time>
      </trkpt>
      <trkpt lat="48.08576" lon="7.05245">
        <ele>1203.87</ele>
        <time>2021-09-12T08:43:18.000Z</time>
      </trkpt>
      <trkpt lat="48.08586" lon="7.0525">
        <ele>1199.94</ele>
        <time>2021-09-12T08:43:29.000Z</time>
      </trkpt>
      <trkpt lat="48.08594" lon="7.0526">
        <ele>1198.3</ele>
        <time>2021-09-12T08:43:39.000Z</time>
      </trkpt>
      <trkpt lat="48.08603" lon="7.05266">
        <ele>1196.57</ele>
        <time>2021-09-12T08:43:49.000Z</time>
      </trkpt>
      <trkpt lat="48.0861" lon="7.05275">
        <ele>1194.17</ele>
        <time>2021-09-12T08:43:59.000Z</time>
      </trkpt>
      <trkpt lat="48.08618" lon="7.05282">
        <ele>1193.02</ele>
        <time>2021-09-12T08:44:06.000Z</time>
      </trkpt>
      <trkpt lat="48.08626" lon="7.05291">
        <ele>1193.01</ele>
        <time>2021-09-12T08:44:14.000Z</time>
      </trkpt>
      <trkpt lat="48.08632" lon="7.05301">
        <ele>1191.41</ele>
        <time>2021-09-12T08:44:27.000Z</time>
      </trkpt>
      <trkpt lat="48.08642" lon="7.05305">
        <ele>1188.08</ele>
        <time>2021-09-12T08:44:36.000Z</time>
      </trkpt>
      <trkpt lat="48.08649" lon="7.05314">
        <ele>1186.11</ele>
        <time>2021-09-12T08:44:43.000Z</time>
      </trkpt>
      <trkpt lat="48.08658" lon="7.05318">
        <ele>1184.48</ele>
        <time>2021-09-12T08:44:54.000Z</time>
      </trkpt>
      <trkpt lat="48.08667" lon="7.05318">
        <ele>1182.85</ele>
        <time>2021-09-12T08:45:01.000Z</time>
      </trkpt>
      <trkpt lat="48.08673" lon="7.05329">
        <ele>1181.16</ele>
        <time>2021-09-12T08:45:09.000Z</time>
      </trkpt>
      <trkpt lat="48.0868" lon="7.05339">
        <ele>1180.87</ele>
        <time>2021-09-12T08:45:16.000Z</time>
      </trkpt>
      <trkpt lat="48.08686" lon="7.0535">
        <ele>1178.44</ele>
        <time>2021-09-12T08:45:23.000Z</time>
      </trkpt>
      <trkpt lat="48.08691" lon="7.05364">
        <ele>1177</ele>
        <time>2021-09-12T08:45:30.000Z</time>
      </trkpt>
      <trkpt lat="48.08698" lon="7.05374">
        <ele>1179.05</ele>
        <time>2021-09-12T08:45:36.000Z</time>
      </trkpt>
      <trkpt lat="48.08705" lon="7.05385">
        <ele>1177.86</ele>
        <time>2021-09-12T08:45:44.000Z</time>
      </trkpt>
      <trkpt lat="48.08711" lon="7.05397">
        <ele>1177.14</ele>
        <time>2021-09-12T08:45:52.000Z</time>
      </trkpt>
      <trkpt lat="48.08717" lon="7.05408">
        <ele>1176.2</ele>
        <time>2021-09-12T08:45:59.000Z</time>
      </trkpt>
      <trkpt lat="48.08724" lon="7.05418">
        <ele>1176.81</ele>
        <time>2021-09-12T08:46:05.000Z</time>
      </trkpt>
      <trkpt lat="48.0873" lon="7.0543">
        <ele>1177.62</ele>
        <time>2021-09-12T08:46:13.000Z</time>
      </trkpt>
      <trkpt lat="48.08733" lon="7.05443">
        <ele>1177.68</ele>
        <time>2021-09-12T08:46:22.000Z</time>
      </trkpt>
      <trkpt lat="48.08733" lon="7.05458">
        <ele>1176.16</ele>
        <time>2021-09-12T08:46:30.000Z</time>
      </trkpt>
      <trkpt lat="48.08732" lon="7.05473">
        <ele>1175.42</ele>
        <time>2021-09-12T08:46:40.000Z</time>
      </trkpt>
      <trkpt lat="48.0873" lon="7.05487">
        <ele>1179.02</ele>
        <time>2021-09-12T08:46:48.000Z</time>
      </trkpt>
      <trkpt lat="48.08732" lon="7.05501">
        <ele>1179.83</ele>
        <time>2021-09-12T08:46:59.000Z</time>
      </trkpt>
      <trkpt lat="48.08731" lon="7.05514">
        <ele>1180.55</ele>
        <time>2021-09-12T08:47:07.000Z</time>
      </trkpt>
      <trkpt lat="48.08728" lon="7.05527">
        <ele>1182.5</ele>
        <time>2021-09-12T08:47:16.000Z</time>
      </trkpt>
      <trkpt lat="48.08725" lon="7.05544">
        <ele>1194.31</ele>
        <time>2021-09-12T08:47:29.000Z</time>
      </trkpt>
      <trkpt lat="48.08722" lon="7.05557">
        <ele>1200.35</ele>
        <time>2021-09-12T08:47:40.000Z</time>
      </trkpt>
      <trkpt lat="48.08721" lon="7.05571">
        <ele>1195.52</ele>
        <time>2021-09-12T08:47:51.000Z</time>
      </trkpt>
      <trkpt lat="48.08721" lon="7.05585">
        <ele>1192.61</ele>
        <time>2021-09-12T08:48:01.000Z</time>
      </trkpt>
      <trkpt lat="48.08725" lon="7.05598">
        <ele>1190.08</ele>
        <time>2021-09-12T08:48:11.000Z</time>
      </trkpt>
      <trkpt lat="48.0873" lon="7.0561">
        <ele>1188.24</ele>
        <time>2021-09-12T08:48:20.000Z</time>
      </trkpt>
      <trkpt lat="48.08738" lon="7.05619">
        <ele>1187.76</ele>
        <time>2021-09-12T08:48:30.000Z</time>
      </trkpt>
      <trkpt lat="48.08747" lon="7.05624">
        <ele>1187.33</ele>
        <time>2021-09-12T08:48:36.000Z</time>
      </trkpt>
      <trkpt lat="48.08756" lon="7.05632">
        <ele>1186.46</ele>
        <time>2021-09-12T08:48:43.000Z</time>
      </trkpt>
      <trkpt lat="48.08764" lon="7.05641">
        <ele>1185.84</ele>
        <time>2021-09-12T08:48:52.000Z</time>
      </trkpt>
      <trkpt lat="48.0877" lon="7.05651">
        <ele>1186.25</ele>
        <time>2021-09-12T08:49:00.000Z</time>
      </trkpt>
      <trkpt lat="48.0878" lon="7.05655">
        <ele>1185.97</ele>
        <time>2021-09-12T08:49:09.000Z</time>
      </trkpt>
      <trkpt lat="48.08788" lon="7.05658">
        <ele>1184.67</ele>
        <time>2021-09-12T08:49:16.000Z</time>
      </trkpt>
      <trkpt lat="48.08796" lon="7.05664">
        <ele>1183.58</ele>
        <time>2021-09-12T08:49:23.000Z</time>
      </trkpt>
      <trkpt lat="48.08805" lon="7.05671">
        <ele>1184.44</ele>
        <time>2021-09-12T08:49:34.000Z</time>
      </trkpt>
      <trkpt lat="48.08813" lon="7.05679">
        <ele>1184.39</ele>
        <time>2021-09-12T08:49:42.000Z</time>
      </trkpt>
      <trkpt lat="48.08819" lon="7.05689">
        <ele>1186.14</ele>
        <time>2021-09-12T08:49:50.000Z</time>
      </trkpt>
      <trkpt lat="48.08827" lon="7.05699">
        <ele>1186.03</ele>
        <time>2021-09-12T08:49:56.000Z</time>
      </trkpt>
      <trkpt lat="48.08836" lon="7.05705">
        <ele>1184.68</ele>
        <time>2021-09-12T08:50:04.000Z</time>
      </trkpt>
      <trkpt lat="48.08844" lon="7.05712">
        <ele>1183.55</ele>
        <time>2021-09-12T08:50:13.000Z</time>
      </trkpt>
      <trkpt lat="48.08853" lon="7.05717">
        <ele>1183.4</ele>
        <time>2021-09-12T08:50:23.000Z</time>
      </trkpt>
      <trkpt lat="48.0886" lon="7.05727">
        <ele>1184.21</ele>
        <time>2021-09-12T08:50:31.000Z</time>
      </trkpt>
      <trkpt lat="48.08867" lon="7.05736">
        <ele>1184.89</ele>
        <time>2021-09-12T08:50:39.000Z</time>
      </trkpt>
      <trkpt lat="48.08875" lon="7.05742">
        <ele>1187.89</ele>
        <time>2021-09-12T08:50:47.000Z</time>
      </trkpt>
      <trkpt lat="48.08884" lon="7.05745">
        <ele>1189.29</ele>
        <time>2021-09-12T08:50:54.000Z</time>
      </trkpt>
      <trkpt lat="48.08894" lon="7.05751">
        <ele>1186.9</ele>
        <time>2021-09-12T08:51:01.000Z</time>
      </trkpt>
      <trkpt lat="48.08903" lon="7.05757">
        <ele>1185.63</ele>
        <time>2021-09-12T08:51:09.000Z</time>
      </trkpt>
      <trkpt lat="48.0891" lon="7.05766">
        <ele>1187.28</ele>
        <time>2021-09-12T08:51:19.000Z</time>
      </trkpt>
      <trkpt lat="48.0892" lon="7.05772">
        <ele>1187.39</ele>
        <time>2021-09-12T08:51:30.000Z</time>
      </trkpt>
      <trkpt lat="48.08929" lon="7.05779">
        <ele>1187.41</ele>
        <time>2021-09-12T08:51:38.000Z</time>
      </trkpt>
      <trkpt lat="48.08938" lon="7.05782">
        <ele>1186.22</ele>
        <time>2021-09-12T08:51:48.000Z</time>
      </trkpt>
      <trkpt lat="48.08948" lon="7.05782">
        <ele>1183.7</ele>
        <time>2021-09-12T08:51:56.000Z</time>
      </trkpt>
      <trkpt lat="48.08957" lon="7.05788">
        <ele>1181.14</ele>
        <time>2021-09-12T08:52:04.000Z</time>
      </trkpt>
      <trkpt lat="48.08966" lon="7.05791">
        <ele>1178.1</ele>
        <time>2021-09-12T08:52:12.000Z</time>
      </trkpt>
      <trkpt lat="48.08973" lon="7.058">
        <ele>1181.23</ele>
        <time>2021-09-12T08:52:33.000Z</time>
      </trkpt>
      <trkpt lat="48.08982" lon="7.05806">
        <ele>1179.91</ele>
        <time>2021-09-12T08:52:40.000Z</time>
      </trkpt>
      <trkpt lat="48.08991" lon="7.0581">
        <ele>1178.53</ele>
        <time>2021-09-12T08:52:47.000Z</time>
      </trkpt>
      <trkpt lat="48.09001" lon="7.05812">
        <ele>1176.84</ele>
        <time>2021-09-12T08:52:55.000Z</time>
      </trkpt>
      <trkpt lat="48.09009" lon="7.05817">
        <ele>1175.85</ele>
        <time>2021-09-12T08:53:04.000Z</time>
      </trkpt>
      <trkpt lat="48.09017" lon="7.05824">
        <ele>1174.03</ele>
        <time>2021-09-12T08:53:13.000Z</time>
      </trkpt>
      <trkpt lat="48.09025" lon="7.05831">
        <ele>1173.54</ele>
        <time>2021-09-12T08:53:22.000Z</time>
      </trkpt>
      <trkpt lat="48.09035" lon="7.05836">
        <ele>1172.13</ele>
        <time>2021-09-12T08:53:30.000Z</time>
      </trkpt>
      <trkpt lat="48.09044" lon="7.0584">
        <ele>1179.49</ele>
        <time>2021-09-12T08:53:46.000Z</time>
      </trkpt>
      <trkpt lat="48.09056" lon="7.05843">
        <ele>1179.67</ele>
        <time>2021-09-12T08:53:52.000Z</time>
      </trkpt>
      <trkpt lat="48.09066" lon="7.05851">
        <ele>1178.38</ele>
        <time>2021-09-12T08:53:57.000Z</time>
      </trkpt>
      <trkpt lat="48.09072" lon="7.05862">
        <ele>1175.8</ele>
        <time>2021-09-12T08:54:03.000Z</time>
      </trkpt>
      <trkpt lat="48.0908" lon="7.05872">
        <ele>1172.42</ele>
        <time>2021-09-12T08:54:10.000Z</time>
      </trkpt>
      <trkpt lat="48.09084" lon="7.05885">
        <ele>1171</ele>
        <time>2021-09-12T08:54:22.000Z</time>
      </trkpt>
      <trkpt lat="48.09089" lon="7.05896">
        <ele>1172.2</ele>
        <time>2021-09-12T08:54:31.000Z</time>
      </trkpt>
      <trkpt lat="48.09099" lon="7.05898">
        <ele>1172.78</ele>
        <time>2021-09-12T08:54:38.000Z</time>
      </trkpt>
      <trkpt lat="48.09108" lon="7.05899">
        <ele>1175.61</ele>
        <time>2021-09-12T08:54:48.000Z</time>
      </trkpt>
      <trkpt lat="48.09118" lon="7.05899">
        <ele>1174.87</ele>
        <time>2021-09-12T08:54:57.000Z</time>
      </trkpt>
      <trkpt lat="48.09125" lon="7.05908">
        <ele>1173.13</ele>
        <time>2021-09-12T08:55:06.000Z</time>
      </trkpt>
      <trkpt lat="48.09133" lon="7.05915">
        <ele>1172.64</ele>
        <time>2021-09-12T08:55:14.000Z</time>
      </trkpt>
      <trkpt lat="48.09141" lon="7.05925">
        <ele>1172.33</ele>
        <time>2021-09-12T08:55:23.000Z</time>
      </trkpt>
      <trkpt lat="48.09149" lon="7.05934">
        <ele>1174.12</ele>
        <time>2021-09-12T08:55:31.000Z</time>
      </trkpt>
      <trkpt lat="48.09155" lon="7.05945">
        <ele>1176.48</ele>
        <time>2021-09-12T08:55:39.000Z</time>
      </trkpt>
      <trkpt lat="48.09163" lon="7.05953">
        <ele>1178.57</ele>
        <time>2021-09-12T08:55:48.000Z</time>
      </trkpt>
      <trkpt lat="48.09172" lon="7.05962">
        <ele>1180.35</ele>
        <time>2021-09-12T08:55:56.000Z</time>
      </trkpt>
      <trkpt lat="48.0918" lon="7.05971">
        <ele>1183.66</ele>
        <time>2021-09-12T08:56:04.000Z</time>
      </trkpt>
      <trkpt lat="48.09189" lon="7.05979">
        <ele>1185.17</ele>
        <time>2021-09-12T08:56:11.000Z</time>
      </trkpt>
      <trkpt lat="48.09198" lon="7.05985">
        <ele>1183.27</ele>
        <time>2021-09-12T08:56:19.000Z</time>
      </trkpt>
      <trkpt lat="48.09205" lon="7.05995">
        <ele>1183.04</ele>
        <time>2021-09-12T08:56:29.000Z</time>
      </trkpt>
      <trkpt lat="48.09213" lon="7.06003">
        <ele>1186.1</ele>
        <time>2021-09-12T08:56:40.000Z</time>
      </trkpt>
      <trkpt lat="48.09221" lon="7.06011">
        <ele>1185.17</ele>
        <time>2021-09-12T08:56:48.000Z</time>
      </trkpt>
      <trkpt lat="48.0923" lon="7.06018">
        <ele>1182.71</ele>
        <time>2021-09-12T08:56:54.000Z</time>
      </trkpt>
      <trkpt lat="48.09237" lon="7.06029">
        <ele>1183.56</ele>
        <time>2021-09-12T08:57:00.000Z</time>
      </trkpt>
      <trkpt lat="48.09243" lon="7.0604">
        <ele>1186.24</ele>
        <time>2021-09-12T08:57:09.000Z</time>
      </trkpt>
      <trkpt lat="48.09253" lon="7.06044">
        <ele>1184.07</ele>
        <time>2021-09-12T08:57:38.000Z</time>
      </trkpt>
      <trkpt lat="48.09263" lon="7.06047">
        <ele>1182.06</ele>
        <time>2021-09-12T08:57:46.000Z</time>
      </trkpt>
      <trkpt lat="48.0927" lon="7.06056">
        <ele>1178.28</ele>
        <time>2021-09-12T08:57:55.000Z</time>
      </trkpt>
      <trkpt lat="48.09273" lon="7.06069">
        <ele>1176.32</ele>
        <time>2021-09-12T08:58:03.000Z</time>
      </trkpt>
      <trkpt lat="48.09281" lon="7.06075">
        <ele>1173.77</ele>
        <time>2021-09-12T08:58:14.000Z</time>
      </trkpt>
      <trkpt lat="48.09289" lon="7.06084">
        <ele>1174.97</ele>
        <time>2021-09-12T08:58:23.000Z</time>
      </trkpt>
      <trkpt lat="48.09296" lon="7.06092">
        <ele>1176.01</ele>
        <time>2021-09-12T08:58:29.000Z</time>
      </trkpt>
      <trkpt lat="48.09305" lon="7.06096">
        <ele>1176.03</ele>
        <time>2021-09-12T08:58:36.000Z</time>
      </trkpt>
      <trkpt lat="48.09313" lon="7.06103">
        <ele>1177.05</ele>
        <time>2021-09-12T08:58:43.000Z</time>
      </trkpt>
      <trkpt lat="48.09321" lon="7.06111">
        <ele>1177.62</ele>
        <time>2021-09-12T08:58:51.000Z</time>
      </trkpt>
      <trkpt lat="48.09329" lon="7.06119">
        <ele>1177.81</ele>
        <time>2021-09-12T08:58:58.000Z</time>
      </trkpt>
      <trkpt lat="48.09337" lon="7.06127">
        <ele>1177.9</ele>
        <time>2021-09-12T08:59:06.000Z</time>
      </trkpt>
      <trkpt lat="48.09343" lon="7.06141">
        <ele>1178.04</ele>
        <time>2021-09-12T08:59:13.000Z</time>
      </trkpt>
      <trkpt lat="48.09351" lon="7.0615">
        <ele>1177.13</ele>
        <time>2021-09-12T08:59:21.000Z</time>
      </trkpt>
      <trkpt lat="48.09359" lon="7.06156">
        <ele>1178.41</ele>
        <time>2021-09-12T08:59:28.000Z</time>
      </trkpt>
      <trkpt lat="48.09368" lon="7.06157">
        <ele>1181.53</ele>
        <time>2021-09-12T08:59:36.000Z</time>
      </trkpt>
      <trkpt lat="48.09378" lon="7.06158">
        <ele>1182.66</ele>
        <time>2021-09-12T08:59:43.000Z</time>
      </trkpt>
      <trkpt lat="48.09387" lon="7.06161">
        <ele>1180.47</ele>
        <time>2021-09-12T08:59:51.000Z</time>
      </trkpt>
      <trkpt lat="48.09396" lon="7.06165">
        <ele>1179.34</ele>
        <time>2021-09-12T09:00:00.000Z</time>
      </trkpt>
      <trkpt lat="48.09406" lon="7.0617">
        <ele>1180.37</ele>
        <time>2021-09-12T09:00:10.000Z</time>
      </trkpt>
      <trkpt lat="48.09414" lon="7.06178">
        <ele>1181.27</ele>
        <time>2021-09-12T09:00:19.000Z</time>
      </trkpt>
      <trkpt lat="48.09423" lon="7.0618">
        <ele>1181.66</ele>
        <time>2021-09-12T09:00:27.000Z</time>
      </trkpt>
      <trkpt lat="48.09432" lon="7.06185">
        <ele>1181.88</ele>
        <time>2021-09-12T09:00:34.000Z</time>
      </trkpt>
      <trkpt lat="48.09442" lon="7.06188">
        <ele>1181.89</ele>
        <time>2021-09-12T09:00:43.000Z</time>
      </trkpt>
      <trkpt lat="48.09451" lon="7.06194">
        <ele>1182.54</ele>
        <time>2021-09-12T09:00:51.000Z</time>
      </trkpt>
      <trkpt lat="48.09459" lon="7.06199">
        <ele>1183.42</ele>
        <time>2021-09-12T09:01:00.000Z</time>
      </trkpt>
      <trkpt lat="48.09469" lon="7.06204">
        <ele>1185.04</ele>
        <time>2021-09-12T09:01:09.000Z</time>
      </trkpt>
      <trkpt lat="48.09478" lon="7.06211">
        <ele>1184.49</ele>
        <time>2021-09-12T09:01:17.000Z</time>
      </trkpt>
      <trkpt lat="48.09487" lon="7.06217">
        <ele>1186.66</ele>
        <time>2021-09-12T09:01:27.000Z</time>
      </trkpt>
      <trkpt lat="48.09495" lon="7.06223">
        <ele>1187.03</ele>
        <time>2021-09-12T09:01:36.000Z</time>
      </trkpt>
      <trkpt lat="48.09505" lon="7.06225">
        <ele>1186.98</ele>
        <time>2021-09-12T09:01:45.000Z</time>
      </trkpt>
      <trkpt lat="48.09514" lon="7.06228">
        <ele>1188.93</ele>
        <time>2021-09-12T09:01:54.000Z</time>
      </trkpt>
      <trkpt lat="48.09524" lon="7.06231">
        <ele>1191.79</ele>
        <time>2021-09-12T09:02:03.000Z</time>
      </trkpt>
      <trkpt lat="48.09532" lon="7.06239">
        <ele>1191</ele>
        <time>2021-09-12T09:02:13.000Z</time>
      </trkpt>
      <trkpt lat="48.09541" lon="7.06246">
        <ele>1190.38</ele>
        <time>2021-09-12T09:02:24.000Z</time>
      </trkpt>
      <trkpt lat="48.0955" lon="7.06252">
        <ele>1192.68</ele>
        <time>2021-09-12T09:02:33.000Z</time>
      </trkpt>
      <trkpt lat="48.09557" lon="7.06261">
        <ele>1195.07</ele>
        <time>2021-09-12T09:02:43.000Z</time>
      </trkpt>
      <trkpt lat="48.09566" lon="7.06267">
        <ele>1197.35</ele>
        <time>2021-09-12T09:02:53.000Z</time>
      </trkpt>
      <trkpt lat="48.09576" lon="7.06272">
        <ele>1199.72</ele>
        <time>2021-09-12T09:03:02.000Z</time>
      </trkpt>
      <trkpt lat="48.09585" lon="7.06276">
        <ele>1199.55</ele>
        <time>2021-09-12T09:03:13.000Z</time>
      </trkpt>
      <trkpt lat="48.09594" lon="7.0628">
        <ele>1201.93</ele>
        <time>2021-09-12T09:03:22.000Z</time>
      </trkpt>
      <trkpt lat="48.09603" lon="7.06283">
        <ele>1204.09</ele>
        <time>2021-09-12T09:03:31.000Z</time>
      </trkpt>
      <trkpt lat="48.09612" lon="7.06286">
        <ele>1204.38</ele>
        <time>2021-09-12T09:03:41.000Z</time>
      </trkpt>
      <trkpt lat="48.09621" lon="7.06292">
        <ele>1204.41</ele>
        <time>2021-09-12T09:03:53.000Z</time>
      </trkpt>
      <trkpt lat="48.09629" lon="7.06301">
        <ele>1207.57</ele>
        <time>2021-09-12T09:04:04.000Z</time>
      </trkpt>
      <trkpt lat="48.09637" lon="7.0631">
        <ele>1209.57</ele>
        <time>2021-09-12T09:04:17.000Z</time>
      </trkpt>
      <trkpt lat="48.09646" lon="7.06315">
        <ele>1211.79</ele>
        <time>2021-09-12T09:04:30.000Z</time>
      </trkpt>
      <trkpt lat="48.09655" lon="7.0632">
        <ele>1212.03</ele>
        <time>2021-09-12T09:04:40.000Z</time>
      </trkpt>
      <trkpt lat="48.09664" lon="7.06325">
        <ele>1214.74</ele>
        <time>2021-09-12T09:04:51.000Z</time>
      </trkpt>
      <trkpt lat="48.09674" lon="7.06329">
        <ele>1217.74</ele>
        <time>2021-09-12T09:05:03.000Z</time>
      </trkpt>
      <trkpt lat="48.09683" lon="7.06334">
        <ele>1219.01</ele>
        <time>2021-09-12T09:05:14.000Z</time>
      </trkpt>
      <trkpt lat="48.09691" lon="7.06342">
        <ele>1221.25</ele>
        <time>2021-09-12T09:05:24.000Z</time>
      </trkpt>
      <trkpt lat="48.097" lon="7.06347">
        <ele>1223.7</ele>
        <time>2021-09-12T09:05:34.000Z</time>
      </trkpt>
      <trkpt lat="48.09709" lon="7.06352">
        <ele>1224.78</ele>
        <time>2021-09-12T09:05:45.000Z</time>
      </trkpt>
      <trkpt lat="48.09718" lon="7.06357">
        <ele>1226.42</ele>
        <time>2021-09-12T09:05:58.000Z</time>
      </trkpt>
      <trkpt lat="48.09728" lon="7.0636">
        <ele>1228.05</ele>
        <time>2021-09-12T09:06:08.000Z</time>
      </trkpt>
      <trkpt lat="48.09736" lon="7.06367">
        <ele>1229.96</ele>
        <time>2021-09-12T09:06:19.000Z</time>
      </trkpt>
      <trkpt lat="48.09744" lon="7.06373">
        <ele>1231.91</ele>
        <time>2021-09-12T09:06:28.000Z</time>
      </trkpt>
      <trkpt lat="48.09753" lon="7.06378">
        <ele>1235.18</ele>
        <time>2021-09-12T09:06:39.000Z</time>
      </trkpt>
      <trkpt lat="48.09761" lon="7.06386">
        <ele>1236.55</ele>
        <time>2021-09-12T09:06:48.000Z</time>
      </trkpt>
      <trkpt lat="48.0977" lon="7.06393">
        <ele>1237.15</ele>
        <time>2021-09-12T09:06:58.000Z</time>
      </trkpt>
      <trkpt lat="48.09777" lon="7.06402">
        <ele>1237.96</ele>
        <time>2021-09-12T09:07:08.000Z</time>
      </trkpt>
      <trkpt lat="48.09784" lon="7.06411">
        <ele>1238.86</ele>
        <time>2021-09-12T09:07:18.000Z</time>
      </trkpt>
      <trkpt lat="48.09793" lon="7.06417">
        <ele>1239.76</ele>
        <time>2021-09-12T09:07:29.000Z</time>
      </trkpt>
      <trkpt lat="48.09802" lon="7.06424">
        <ele>1241.22</ele>
        <time>2021-09-12T09:07:37.000Z</time>
      </trkpt>
      <trkpt lat="48.0981" lon="7.06431">
        <ele>1243.13</ele>
        <time>2021-09-12T09:07:47.000Z</time>
      </trkpt>
      <trkpt lat="48.09819" lon="7.06436">
        <ele>1243.74</ele>
        <time>2021-09-12T09:07:57.000Z</time>
      </trkpt>
      <trkpt lat="48.09828" lon="7.06441">
        <ele>1243.94</ele>
        <time>2021-09-12T09:08:05.000Z</time>
      </trkpt>
      <trkpt lat="48.09837" lon="7.06448">
        <ele>1244.41</ele>
        <time>2021-09-12T09:08:14.000Z</time>
      </trkpt>
      <trkpt lat="48.09845" lon="7.06455">
        <ele>1245.43</ele>
        <time>2021-09-12T09:08:21.000Z</time>
      </trkpt>
      <trkpt lat="48.09854" lon="7.06461">
        <ele>1246.81</ele>
        <time>2021-09-12T09:08:29.000Z</time>
      </trkpt>
      <trkpt lat="48.09863" lon="7.06468">
        <ele>1247.28</ele>
        <time>2021-09-12T09:08:38.000Z</time>
      </trkpt>
      <trkpt lat="48.09871" lon="7.06474">
        <ele>1248.16</ele>
        <time>2021-09-12T09:08:45.000Z</time>
      </trkpt>
      <trkpt lat="48.0988" lon="7.06483">
        <ele>1249.46</ele>
        <time>2021-09-12T09:08:54.000Z</time>
      </trkpt>
      <trkpt lat="48.09887" lon="7.06491">
        <ele>1252.51</ele>
        <time>2021-09-12T09:09:19.000Z</time>
      </trkpt>
      <trkpt lat="48.09896" lon="7.06495">
        <ele>1251.6</ele>
        <time>2021-09-12T09:09:27.000Z</time>
      </trkpt>
      <trkpt lat="48.09904" lon="7.06504">
        <ele>1249.08</ele>
        <time>2021-09-12T09:09:37.000Z</time>
      </trkpt>
      <trkpt lat="48.09912" lon="7.0651">
        <ele>1247.33</ele>
        <time>2021-09-12T09:09:47.000Z</time>
      </trkpt>
      <trkpt lat="48.0992" lon="7.06519">
        <ele>1247.93</ele>
        <time>2021-09-12T09:09:55.000Z</time>
      </trkpt>
      <trkpt lat="48.09927" lon="7.06527">
        <ele>1246.52</ele>
        <time>2021-09-12T09:10:02.000Z</time>
      </trkpt>
      <trkpt lat="48.09935" lon="7.06537">
        <ele>1246.3</ele>
        <time>2021-09-12T09:10:10.000Z</time>
      </trkpt>
      <trkpt lat="48.09943" lon="7.06547">
        <ele>1245.55</ele>
        <time>2021-09-12T09:10:17.000Z</time>
      </trkpt>
      <trkpt lat="48.0995" lon="7.06556">
        <ele>1245.65</ele>
        <time>2021-09-12T09:10:25.000Z</time>
      </trkpt>
      <trkpt lat="48.09958" lon="7.06565">
        <ele>1246.07</ele>
        <time>2021-09-12T09:10:32.000Z</time>
      </trkpt>
      <trkpt lat="48.09966" lon="7.06574">
        <ele>1247.6</ele>
        <time>2021-09-12T09:10:41.000Z</time>
      </trkpt>
      <trkpt lat="48.09974" lon="7.06583">
        <ele>1247.45</ele>
        <time>2021-09-12T09:10:48.000Z</time>
      </trkpt>
      <trkpt lat="48.09981" lon="7.06591">
        <ele>1246.37</ele>
        <time>2021-09-12T09:10:55.000Z</time>
      </trkpt>
      <trkpt lat="48.09988" lon="7.06601">
        <ele>1245.72</ele>
        <time>2021-09-12T09:11:01.000Z</time>
      </trkpt>
      <trkpt lat="48.09996" lon="7.06608">
        <ele>1245.21</ele>
        <time>2021-09-12T09:11:09.000Z</time>
      </trkpt>
      <trkpt lat="48.10003" lon="7.06618">
        <ele>1245.79</ele>
        <time>2021-09-12T09:11:16.000Z</time>
      </trkpt>
      <trkpt lat="48.10011" lon="7.06626">
        <ele>1245.87</ele>
        <time>2021-09-12T09:11:23.000Z</time>
      </trkpt>
      <trkpt lat="48.10018" lon="7.06635">
        <ele>1246.26</ele>
        <time>2021-09-12T09:11:30.000Z</time>
      </trkpt>
      <trkpt lat="48.10024" lon="7.06645">
        <ele>1246.51</ele>
        <time>2021-09-12T09:11:38.000Z</time>
      </trkpt>
      <trkpt lat="48.10032" lon="7.06655">
        <ele>1247.47</ele>
        <time>2021-09-12T09:11:45.000Z</time>
      </trkpt>
      <trkpt lat="48.10039" lon="7.06665">
        <ele>1247.06</ele>
        <time>2021-09-12T09:11:53.000Z</time>
      </trkpt>
      <trkpt lat="48.10045" lon="7.06675">
        <ele>1246.53</ele>
        <time>2021-09-12T09:12:01.000Z</time>
      </trkpt>
      <trkpt lat="48.10053" lon="7.06685">
        <ele>1246.26</ele>
        <time>2021-09-12T09:12:10.000Z</time>
      </trkpt>
      <trkpt lat="48.10059" lon="7.06696">
        <ele>1245.87</ele>
        <time>2021-09-12T09:12:18.000Z</time>
      </trkpt>
      <trkpt lat="48.10066" lon="7.06706">
        <ele>1247.21</ele>
        <time>2021-09-12T09:12:26.000Z</time>
      </trkpt>
      <trkpt lat="48.10073" lon="7.06717">
        <ele>1247.98</ele>
        <time>2021-09-12T09:12:35.000Z</time>
      </trkpt>
      <trkpt lat="48.10079" lon="7.06728">
        <ele>1246.83</ele>
        <time>2021-09-12T09:12:45.000Z</time>
      </trkpt>
      <trkpt lat="48.10088" lon="7.06735">
        <ele>1246.14</ele>
        <time>2021-09-12T09:12:54.000Z</time>
      </trkpt>
      <trkpt lat="48.1009" lon="7.06749">
        <ele>1246.99</ele>
        <time>2021-09-12T09:13:02.000Z</time>
      </trkpt>
      <trkpt lat="48.10086" lon="7.06762">
        <ele>1247.82</ele>
        <time>2021-09-12T09:13:10.000Z</time>
      </trkpt>
      <trkpt lat="48.10094" lon="7.06771">
        <ele>1248.23</ele>
        <time>2021-09-12T09:13:36.000Z</time>
      </trkpt>
      <trkpt lat="48.10103" lon="7.06775">
        <ele>1251.9</ele>
        <time>2021-09-12T09:13:45.000Z</time>
      </trkpt>
      <trkpt lat="48.10107" lon="7.06788">
        <ele>1253.84</ele>
        <time>2021-09-12T09:14:00.000Z</time>
      </trkpt>
      <trkpt lat="48.10109" lon="7.06802">
        <ele>1253.32</ele>
        <time>2021-09-12T09:14:10.000Z</time>
      </trkpt>
      <trkpt lat="48.10106" lon="7.06787">
        <ele>1252.66</ele>
        <time>2021-09-12T09:17:55.000Z</time>
      </trkpt>
      <trkpt lat="48.10114" lon="7.0678">
        <ele>1253.63</ele>
        <time>2021-09-12T09:18:05.000Z</time>
      </trkpt>
      <trkpt lat="48.10124" lon="7.06782">
        <ele>1254.91</ele>
        <time>2021-09-12T09:18:13.000Z</time>
      </trkpt>
      <trkpt lat="48.10133" lon="7.06783">
        <ele>1254.32</ele>
        <time>2021-09-12T09:18:21.000Z</time>
      </trkpt>
      <trkpt lat="48.10142" lon="7.06784">
        <ele>1254.52</ele>
        <time>2021-09-12T09:18:29.000Z</time>
      </trkpt>
      <trkpt lat="48.10152" lon="7.06788">
        <ele>1254.47</ele>
        <time>2021-09-12T09:18:36.000Z</time>
      </trkpt>
      <trkpt lat="48.1016" lon="7.06794">
        <ele>1253.44</ele>
        <time>2021-09-12T09:18:44.000Z</time>
      </trkpt>
      <trkpt lat="48.1017" lon="7.06798">
        <ele>1253.8</ele>
        <time>2021-09-12T09:18:52.000Z</time>
      </trkpt>
      <trkpt lat="48.10178" lon="7.06804">
        <ele>1253.8</ele>
        <time>2021-09-12T09:18:59.000Z</time>
      </trkpt>
      <trkpt lat="48.10187" lon="7.06809">
        <ele>1254.52</ele>
        <time>2021-09-12T09:19:06.000Z</time>
      </trkpt>
      <trkpt lat="48.10197" lon="7.06815">
        <ele>1255.19</ele>
        <time>2021-09-12T09:19:15.000Z</time>
      </trkpt>
      <trkpt lat="48.10206" lon="7.06817">
        <ele>1255.33</ele>
        <time>2021-09-12T09:19:23.000Z</time>
      </trkpt>
      <trkpt lat="48.10215" lon="7.06821">
        <ele>1255.41</ele>
        <time>2021-09-12T09:19:30.000Z</time>
      </trkpt>
      <trkpt lat="48.10224" lon="7.06829">
        <ele>1255.35</ele>
        <time>2021-09-12T09:19:39.000Z</time>
      </trkpt>
      <trkpt lat="48.1023" lon="7.0684">
        <ele>1255.32</ele>
        <time>2021-09-12T09:19:47.000Z</time>
      </trkpt>
      <trkpt lat="48.10239" lon="7.06843">
        <ele>1254.35</ele>
        <time>2021-09-12T09:19:55.000Z</time>
      </trkpt>
      <trkpt lat="48.10247" lon="7.06849">
        <ele>1253.3</ele>
        <time>2021-09-12T09:20:04.000Z</time>
      </trkpt>
      <trkpt lat="48.1025" lon="7.06863">
        <ele>1254.16</ele>
        <time>2021-09-12T09:20:12.000Z</time>
      </trkpt>
      <trkpt lat="48.1026" lon="7.06867">
        <ele>1253.55</ele>
        <time>2021-09-12T09:20:32.000Z</time>
      </trkpt>
      <trkpt lat="48.10269" lon="7.06865">
        <ele>1255.04</ele>
        <time>2021-09-12T09:20:41.000Z</time>
      </trkpt>
      <trkpt lat="48.10277" lon="7.06872">
        <ele>1254.42</ele>
        <time>2021-09-12T09:20:50.000Z</time>
      </trkpt>
      <trkpt lat="48.10284" lon="7.06881">
        <ele>1252.5</ele>
        <time>2021-09-12T09:20:59.000Z</time>
      </trkpt>
      <trkpt lat="48.10293" lon="7.06886">
        <ele>1249.34</ele>
        <time>2021-09-12T09:21:15.000Z</time>
      </trkpt>
      <trkpt lat="48.10296" lon="7.06872">
        <ele>1246.05</ele>
        <time>2021-09-12T09:21:24.000Z</time>
      </trkpt>
      <trkpt lat="48.10302" lon="7.0686">
        <ele>1243.33</ele>
        <time>2021-09-12T09:21:35.000Z</time>
      </trkpt>
      <trkpt lat="48.10308" lon="7.0685">
        <ele>1240.9</ele>
        <time>2021-09-12T09:21:48.000Z</time>
      </trkpt>
      <trkpt lat="48.10313" lon="7.06838">
        <ele>1239.66</ele>
        <time>2021-09-12T09:22:02.000Z</time>
      </trkpt>
      <trkpt lat="48.10322" lon="7.06832">
        <ele>1238.43</ele>
        <time>2021-09-12T09:22:32.000Z</time>
      </trkpt>
      <trkpt lat="48.10331" lon="7.06829">
        <ele>1235.88</ele>
        <time>2021-09-12T09:22:49.000Z</time>
      </trkpt>
      <trkpt lat="48.1034" lon="7.06826">
        <ele>1236.39</ele>
        <time>2021-09-12T09:22:56.000Z</time>
      </trkpt>
      <trkpt lat="48.1035" lon="7.06822">
        <ele>1236.52</ele>
        <time>2021-09-12T09:23:04.000Z</time>
      </trkpt>
      <trkpt lat="48.1036" lon="7.06818">
        <ele>1235.24</ele>
        <time>2021-09-12T09:23:12.000Z</time>
      </trkpt>
      <trkpt lat="48.10369" lon="7.06819">
        <ele>1236.5</ele>
        <time>2021-09-12T09:23:19.000Z</time>
      </trkpt>
      <trkpt lat="48.10378" lon="7.06825">
        <ele>1236.31</ele>
        <time>2021-09-12T09:23:27.000Z</time>
      </trkpt>
      <trkpt lat="48.10385" lon="7.06834">
        <ele>1235.71</ele>
        <time>2021-09-12T09:23:35.000Z</time>
      </trkpt>
      <trkpt lat="48.10393" lon="7.06841">
        <ele>1235.37</ele>
        <time>2021-09-12T09:23:43.000Z</time>
      </trkpt>
      <trkpt lat="48.10402" lon="7.06848">
        <ele>1235.83</ele>
        <time>2021-09-12T09:23:53.000Z</time>
      </trkpt>
      <trkpt lat="48.10411" lon="7.06855">
        <ele>1235.98</ele>
        <time>2021-09-12T09:24:01.000Z</time>
      </trkpt>
      <trkpt lat="48.10419" lon="7.06862">
        <ele>1237.03</ele>
        <time>2021-09-12T09:24:09.000Z</time>
      </trkpt>
      <trkpt lat="48.10425" lon="7.06872">
        <ele>1239.02</ele>
        <time>2021-09-12T09:24:18.000Z</time>
      </trkpt>
      <trkpt lat="48.10434" lon="7.06875">
        <ele>1239.79</ele>
        <time>2021-09-12T09:24:26.000Z</time>
      </trkpt>
      <trkpt lat="48.10442" lon="7.06885">
        <ele>1240</ele>
        <time>2021-09-12T09:24:35.000Z</time>
      </trkpt>
      <trkpt lat="48.10449" lon="7.06892">
        <ele>1239.1</ele>
        <time>2021-09-12T09:24:43.000Z</time>
      </trkpt>
      <trkpt lat="48.10457" lon="7.06902">
        <ele>1240.79</ele>
        <time>2021-09-12T09:24:52.000Z</time>
      </trkpt>
      <trkpt lat="48.10462" lon="7.06913">
        <ele>1242.17</ele>
        <time>2021-09-12T09:24:59.000Z</time>
      </trkpt>
      <trkpt lat="48.10466" lon="7.06926">
        <ele>1243.5</ele>
        <time>2021-09-12T09:25:07.000Z</time>
      </trkpt>
      <trkpt lat="48.10468" lon="7.0694">
        <ele>1242.37</ele>
        <time>2021-09-12T09:25:14.000Z</time>
      </trkpt>
      <trkpt lat="48.10478" lon="7.06944">
        <ele>1241.03</ele>
        <time>2021-09-12T09:25:27.000Z</time>
      </trkpt>
      <trkpt lat="48.10487" lon="7.06938">
        <ele>1240.24</ele>
        <time>2021-09-12T09:25:34.000Z</time>
      </trkpt>
      <trkpt lat="48.10495" lon="7.06934">
        <ele>1239.28</ele>
        <time>2021-09-12T09:25:42.000Z</time>
      </trkpt>
      <trkpt lat="48.10504" lon="7.06935">
        <ele>1238.06</ele>
        <time>2021-09-12T09:25:49.000Z</time>
      </trkpt>
      <trkpt lat="48.10514" lon="7.06932">
        <ele>1237.35</ele>
        <time>2021-09-12T09:25:58.000Z</time>
      </trkpt>
      <trkpt lat="48.10523" lon="7.06932">
        <ele>1237.64</ele>
        <time>2021-09-12T09:26:05.000Z</time>
      </trkpt>
      <trkpt lat="48.10532" lon="7.0694">
        <ele>1238.27</ele>
        <time>2021-09-12T09:26:13.000Z</time>
      </trkpt>
      <trkpt lat="48.10536" lon="7.06952">
        <ele>1241.31</ele>
        <time>2021-09-12T09:26:23.000Z</time>
      </trkpt>
      <trkpt lat="48.10533" lon="7.06967">
        <ele>1238.26</ele>
        <time>2021-09-12T09:26:47.000Z</time>
      </trkpt>
      <trkpt lat="48.10527" lon="7.06955">
        <ele>1238.97</ele>
        <time>2021-09-12T09:30:20.000Z</time>
      </trkpt>
      <trkpt lat="48.10525" lon="7.06971">
        <ele>1241.59</ele>
        <time>2021-09-12T09:36:57.000Z</time>
      </trkpt>
      <trkpt lat="48.10523" lon="7.06985">
        <ele>1242.1</ele>
        <time>2021-09-12T09:37:02.000Z</time>
      </trkpt>
      <trkpt lat="48.10529" lon="7.07014">
        <ele>1243.13</ele>
        <time>2021-09-12T09:37:07.000Z</time>
      </trkpt>
      <trkpt lat="48.10535" lon="7.06983">
        <ele>1241.22</ele>
        <time>2021-09-12T09:37:12.000Z</time>
      </trkpt>
      <trkpt lat="48.10533" lon="7.06968">
        <ele>1242.22</ele>
        <time>2021-09-12T09:37:17.000Z</time>
      </trkpt>
      <trkpt lat="48.10524" lon="7.06966">
        <ele>1238.69</ele>
        <time>2021-09-12T09:45:23.000Z</time>
      </trkpt>
      <trkpt lat="48.10533" lon="7.06965">
        <ele>1239.9</ele>
        <time>2021-09-12T09:45:40.000Z</time>
      </trkpt>
      <trkpt lat="48.10536" lon="7.06951">
        <ele>1239.64</ele>
        <time>2021-09-12T09:47:04.000Z</time>
      </trkpt>
      <trkpt lat="48.10546" lon="7.06952">
        <ele>1238.07</ele>
        <time>2021-09-12T09:47:15.000Z</time>
      </trkpt>
      <trkpt lat="48.10555" lon="7.06958">
        <ele>1238.34</ele>
        <time>2021-09-12T09:47:22.000Z</time>
      </trkpt>
      <trkpt lat="48.10563" lon="7.06966">
        <ele>1240.36</ele>
        <time>2021-09-12T09:47:31.000Z</time>
      </trkpt>
      <trkpt lat="48.10571" lon="7.06975">
        <ele>1242.48</ele>
        <time>2021-09-12T09:47:39.000Z</time>
      </trkpt>
      <trkpt lat="48.1058" lon="7.06981">
        <ele>1244.32</ele>
        <time>2021-09-12T09:47:48.000Z</time>
      </trkpt>
      <trkpt lat="48.10589" lon="7.06987">
        <ele>1247.02</ele>
        <time>2021-09-12T09:47:59.000Z</time>
      </trkpt>
      <trkpt lat="48.10597" lon="7.06994">
        <ele>1247.43</ele>
        <time>2021-09-12T09:48:09.000Z</time>
      </trkpt>
      <trkpt lat="48.10605" lon="7.07001">
        <ele>1247.94</ele>
        <time>2021-09-12T09:48:18.000Z</time>
      </trkpt>
      <trkpt lat="48.10614" lon="7.07006">
        <ele>1249.4</ele>
        <time>2021-09-12T09:48:26.000Z</time>
      </trkpt>
      <trkpt lat="48.10624" lon="7.07009">
        <ele>1252.42</ele>
        <time>2021-09-12T09:48:36.000Z</time>
      </trkpt>
      <trkpt lat="48.10633" lon="7.07012">
        <ele>1251.15</ele>
        <time>2021-09-12T09:48:44.000Z</time>
      </trkpt>
      <trkpt lat="48.10642" lon="7.07017">
        <ele>1250.07</ele>
        <time>2021-09-12T09:48:51.000Z</time>
      </trkpt>
      <trkpt lat="48.10651" lon="7.07021">
        <ele>1251.86</ele>
        <time>2021-09-12T09:48:59.000Z</time>
      </trkpt>
      <trkpt lat="48.10659" lon="7.0703">
        <ele>1251.9</ele>
        <time>2021-09-12T09:49:07.000Z</time>
      </trkpt>
      <trkpt lat="48.10665" lon="7.07041">
        <ele>1254.77</ele>
        <time>2021-09-12T09:49:15.000Z</time>
      </trkpt>
      <trkpt lat="48.1067" lon="7.07054">
        <ele>1256.75</ele>
        <time>2021-09-12T09:49:27.000Z</time>
      </trkpt>
      <trkpt lat="48.10678" lon="7.07062">
        <ele>1255.31</ele>
        <time>2021-09-12T09:49:34.000Z</time>
      </trkpt>
      <trkpt lat="48.10685" lon="7.07071">
        <ele>1254.56</ele>
        <time>2021-09-12T09:49:42.000Z</time>
      </trkpt>
      <trkpt lat="48.10684" lon="7.07086">
        <ele>1256.49</ele>
        <time>2021-09-12T09:49:56.000Z</time>
      </trkpt>
      <trkpt lat="48.10691" lon="7.07097">
        <ele>1253.48</ele>
        <time>2021-09-12T09:50:05.000Z</time>
      </trkpt>
      <trkpt lat="48.10698" lon="7.07106">
        <ele>1250.89</ele>
        <time>2021-09-12T09:50:15.000Z</time>
      </trkpt>
      <trkpt lat="48.10705" lon="7.07114">
        <ele>1250.58</ele>
        <time>2021-09-12T09:50:24.000Z</time>
      </trkpt>
      <trkpt lat="48.10714" lon="7.0712">
        <ele>1249</ele>
        <time>2021-09-12T09:50:34.000Z</time>
      </trkpt>
      <trkpt lat="48.10724" lon="7.07124">
        <ele>1246.78</ele>
        <time>2021-09-12T09:50:41.000Z</time>
      </trkpt>
      <trkpt lat="48.10732" lon="7.07129">
        <ele>1244.18</ele>
        <time>2021-09-12T09:50:49.000Z</time>
      </trkpt>
      <trkpt lat="48.10742" lon="7.07132">
        <ele>1245.54</ele>
        <time>2021-09-12T09:50:58.000Z</time>
      </trkpt>
      <trkpt lat="48.10752" lon="7.07137">
        <ele>1244.52</ele>
        <time>2021-09-12T09:51:06.000Z</time>
      </trkpt>
      <trkpt lat="48.10761" lon="7.0714">
        <ele>1243.32</ele>
        <time>2021-09-12T09:51:14.000Z</time>
      </trkpt>
      <trkpt lat="48.10769" lon="7.07147">
        <ele>1243.67</ele>
        <time>2021-09-12T09:51:22.000Z</time>
      </trkpt>
      <trkpt lat="48.10777" lon="7.07155">
        <ele>1244.47</ele>
        <time>2021-09-12T09:51:33.000Z</time>
      </trkpt>
      <trkpt lat="48.10785" lon="7.07163">
        <ele>1242.74</ele>
        <time>2021-09-12T09:51:46.000Z</time>
      </trkpt>
      <trkpt lat="48.1079" lon="7.07175">
        <ele>1242.15</ele>
        <time>2021-09-12T09:51:58.000Z</time>
      </trkpt>
      <trkpt lat="48.10793" lon="7.07188">
        <ele>1240.19</ele>
        <time>2021-09-12T09:52:07.000Z</time>
      </trkpt>
      <trkpt lat="48.108" lon="7.07198">
        <ele>1237.34</ele>
        <time>2021-09-12T09:52:14.000Z</time>
      </trkpt>
      <trkpt lat="48.10804" lon="7.07211">
        <ele>1237.91</ele>
        <time>2021-09-12T09:52:21.000Z</time>
      </trkpt>
      <trkpt lat="48.10809" lon="7.07223">
        <ele>1237.53</ele>
        <time>2021-09-12T09:52:31.000Z</time>
      </trkpt>
      <trkpt lat="48.10815" lon="7.07234">
        <ele>1235.87</ele>
        <time>2021-09-12T09:52:41.000Z</time>
      </trkpt>
      <trkpt lat="48.1082" lon="7.07246">
        <ele>1235.13</ele>
        <time>2021-09-12T09:52:48.000Z</time>
      </trkpt>
      <trkpt lat="48.10821" lon="7.07261">
        <ele>1235.38</ele>
        <time>2021-09-12T09:52:55.000Z</time>
      </trkpt>
      <trkpt lat="48.10821" lon="7.07275">
        <ele>1237.02</ele>
        <time>2021-09-12T09:53:02.000Z</time>
      </trkpt>
      <trkpt lat="48.10818" lon="7.07289">
        <ele>1238.51</ele>
        <time>2021-09-12T09:53:10.000Z</time>
      </trkpt>
      <trkpt lat="48.10819" lon="7.07303">
        <ele>1238.57</ele>
        <time>2021-09-12T09:53:18.000Z</time>
      </trkpt>
      <trkpt lat="48.1082" lon="7.07318">
        <ele>1237.95</ele>
        <time>2021-09-12T09:53:26.000Z</time>
      </trkpt>
      <trkpt lat="48.10819" lon="7.07333">
        <ele>1237.41</ele>
        <time>2021-09-12T09:53:33.000Z</time>
      </trkpt>
      <trkpt lat="48.10818" lon="7.07348">
        <ele>1237.15</ele>
        <time>2021-09-12T09:53:41.000Z</time>
      </trkpt>
      <trkpt lat="48.10819" lon="7.07362">
        <ele>1236.86</ele>
        <time>2021-09-12T09:53:50.000Z</time>
      </trkpt>
      <trkpt lat="48.10822" lon="7.07374">
        <ele>1234.99</ele>
        <time>2021-09-12T09:53:57.000Z</time>
      </trkpt>
      <trkpt lat="48.10826" lon="7.07387">
        <ele>1234.04</ele>
        <time>2021-09-12T09:54:04.000Z</time>
      </trkpt>
      <trkpt lat="48.1083" lon="7.074">
        <ele>1235.91</ele>
        <time>2021-09-12T09:54:12.000Z</time>
      </trkpt>
      <trkpt lat="48.10834" lon="7.07414">
        <ele>1237.15</ele>
        <time>2021-09-12T09:54:20.000Z</time>
      </trkpt>
      <trkpt lat="48.10838" lon="7.07426">
        <ele>1235.76</ele>
        <time>2021-09-12T09:54:30.000Z</time>
      </trkpt>
      <trkpt lat="48.10836" lon="7.07441">
        <ele>1236.51</ele>
        <time>2021-09-12T09:54:38.000Z</time>
      </trkpt>
      <trkpt lat="48.10833" lon="7.07456">
        <ele>1238.37</ele>
        <time>2021-09-12T09:54:46.000Z</time>
      </trkpt>
      <trkpt lat="48.10832" lon="7.07469">
        <ele>1238.55</ele>
        <time>2021-09-12T09:54:53.000Z</time>
      </trkpt>
      <trkpt lat="48.1083" lon="7.07483">
        <ele>1238.69</ele>
        <time>2021-09-12T09:55:01.000Z</time>
      </trkpt>
      <trkpt lat="48.10826" lon="7.07495">
        <ele>1240.87</ele>
        <time>2021-09-12T09:55:08.000Z</time>
      </trkpt>
      <trkpt lat="48.10823" lon="7.07509">
        <ele>1242.78</ele>
        <time>2021-09-12T09:55:16.000Z</time>
      </trkpt>
      <trkpt lat="48.10822" lon="7.07522">
        <ele>1242.9</ele>
        <time>2021-09-12T09:55:25.000Z</time>
      </trkpt>
      <trkpt lat="48.10818" lon="7.07535">
        <ele>1243.95</ele>
        <time>2021-09-12T09:55:34.000Z</time>
      </trkpt>
      <trkpt lat="48.10816" lon="7.07549">
        <ele>1245.66</ele>
        <time>2021-09-12T09:55:46.000Z</time>
      </trkpt>
      <trkpt lat="48.10812" lon="7.07561">
        <ele>1247.72</ele>
        <time>2021-09-12T09:55:56.000Z</time>
      </trkpt>
      <trkpt lat="48.10802" lon="7.07565">
        <ele>1251.15</ele>
        <time>2021-09-12T09:56:06.000Z</time>
      </trkpt>
      <trkpt lat="48.10787" lon="7.07577">
        <ele>1274.01</ele>
        <time>2021-09-12T09:56:19.000Z</time>
      </trkpt>
      <trkpt lat="48.1077" lon="7.07557">
        <ele>1295.04</ele>
        <time>2021-09-12T09:56:24.000Z</time>
      </trkpt>
      <trkpt lat="48.10727" lon="7.07472">
        <ele>1304.42</ele>
        <time>2021-09-12T09:56:29.000Z</time>
      </trkpt>
      <trkpt lat="48.10667" lon="7.07492">
        <ele>1316.74</ele>
        <time>2021-09-12T09:56:34.000Z</time>
      </trkpt>
      <trkpt lat="48.10679" lon="7.07494">
        <ele>1315.39</ele>
        <time>2021-09-12T09:56:39.000Z</time>
      </trkpt>
      <trkpt lat="48.10694" lon="7.07505">
        <ele>1307.98</ele>
        <time>2021-09-12T09:56:44.000Z</time>
      </trkpt>
      <trkpt lat="48.10712" lon="7.07519">
        <ele>1300.58</ele>
        <time>2021-09-12T09:56:49.000Z</time>
      </trkpt>
      <trkpt lat="48.10736" lon="7.0755">
        <ele>1293.11</ele>
        <time>2021-09-12T09:56:54.000Z</time>
      </trkpt>
      <trkpt lat="48.10762" lon="7.07583">
        <ele>1283.58</ele>
        <time>2021-09-12T09:56:59.000Z</time>
      </trkpt>
      <trkpt lat="48.10774" lon="7.07605">
        <ele>1270.37</ele>
        <time>2021-09-12T09:57:04.000Z</time>
      </trkpt>
      <trkpt lat="48.10777" lon="7.0762">
        <ele>1262.26</ele>
        <time>2021-09-12T09:57:09.000Z</time>
      </trkpt>
      <trkpt lat="48.10779" lon="7.07634">
        <ele>1256.37</ele>
        <time>2021-09-12T09:57:15.000Z</time>
      </trkpt>
      <trkpt lat="48.10782" lon="7.07647">
        <ele>1254.8</ele>
        <time>2021-09-12T09:57:22.000Z</time>
      </trkpt>
      <trkpt lat="48.10787" lon="7.07658">
        <ele>1253.09</ele>
        <time>2021-09-12T09:57:32.000Z</time>
      </trkpt>
      <trkpt lat="48.10787" lon="7.07672">
        <ele>1252.18</ele>
        <time>2021-09-12T09:57:42.000Z</time>
      </trkpt>
      <trkpt lat="48.10787" lon="7.07686">
        <ele>1252.09</ele>
        <time>2021-09-12T09:57:50.000Z</time>
      </trkpt>
      <trkpt lat="48.1079" lon="7.07699">
        <ele>1250.73</ele>
        <time>2021-09-12T09:57:58.000Z</time>
      </trkpt>
      <trkpt lat="48.10792" lon="7.07713">
        <ele>1248.45</ele>
        <time>2021-09-12T09:58:07.000Z</time>
      </trkpt>
      <trkpt lat="48.10793" lon="7.07728">
        <ele>1248.08</ele>
        <time>2021-09-12T09:58:15.000Z</time>
      </trkpt>
      <trkpt lat="48.10797" lon="7.07742">
        <ele>1247.45</ele>
        <time>2021-09-12T09:58:22.000Z</time>
      </trkpt>
      <trkpt lat="48.10799" lon="7.07755">
        <ele>1247.13</ele>
        <time>2021-09-12T09:58:29.000Z</time>
      </trkpt>
      <trkpt lat="48.10801" lon="7.07768">
        <ele>1248.64</ele>
        <time>2021-09-12T09:58:37.000Z</time>
      </trkpt>
      <trkpt lat="48.10801" lon="7.07783">
        <ele>1246.88</ele>
        <time>2021-09-12T09:58:46.000Z</time>
      </trkpt>
      <trkpt lat="48.10803" lon="7.07796">
        <ele>1244.62</ele>
        <time>2021-09-12T09:58:54.000Z</time>
      </trkpt>
      <trkpt lat="48.10807" lon="7.0781">
        <ele>1244.88</ele>
        <time>2021-09-12T09:59:03.000Z</time>
      </trkpt>
      <trkpt lat="48.10811" lon="7.07824">
        <ele>1245.14</ele>
        <time>2021-09-12T09:59:11.000Z</time>
      </trkpt>
      <trkpt lat="48.10816" lon="7.07836">
        <ele>1245.93</ele>
        <time>2021-09-12T09:59:18.000Z</time>
      </trkpt>
      <trkpt lat="48.10818" lon="7.0785">
        <ele>1245.05</ele>
        <time>2021-09-12T09:59:26.000Z</time>
      </trkpt>
      <trkpt lat="48.10822" lon="7.07863">
        <ele>1243.43</ele>
        <time>2021-09-12T09:59:33.000Z</time>
      </trkpt>
      <trkpt lat="48.10826" lon="7.07878">
        <ele>1244.05</ele>
        <time>2021-09-12T09:59:40.000Z</time>
      </trkpt>
      <trkpt lat="48.1083" lon="7.07891">
        <ele>1242.09</ele>
        <time>2021-09-12T09:59:47.000Z</time>
      </trkpt>
      <trkpt lat="48.10833" lon="7.07905">
        <ele>1239.97</ele>
        <time>2021-09-12T09:59:56.000Z</time>
      </trkpt>
      <trkpt lat="48.10833" lon="7.0792">
        <ele>1239.96</ele>
        <time>2021-09-12T10:00:05.000Z</time>
      </trkpt>
      <trkpt lat="48.10833" lon="7.07933">
        <ele>1238.28</ele>
        <time>2021-09-12T10:00:12.000Z</time>
      </trkpt>
      <trkpt lat="48.10829" lon="7.07946">
        <ele>1236.86</ele>
        <time>2021-09-12T10:00:21.000Z</time>
      </trkpt>
      <trkpt lat="48.10822" lon="7.07957">
        <ele>1234.34</ele>
        <time>2021-09-12T10:00:31.000Z</time>
      </trkpt>
      <trkpt lat="48.10816" lon="7.07967">
        <ele>1232.5</ele>
        <time>2021-09-12T10:00:38.000Z</time>
      </trkpt>
      <trkpt lat="48.10809" lon="7.07977">
        <ele>1230</ele>
        <time>2021-09-12T10:00:47.000Z</time>
      </trkpt>
      <trkpt lat="48.10802" lon="7.07987">
        <ele>1227.57</ele>
        <time>2021-09-12T10:00:55.000Z</time>
      </trkpt>
      <trkpt lat="48.10794" lon="7.07995">
        <ele>1225.19</ele>
        <time>2021-09-12T10:01:05.000Z</time>
      </trkpt>
      <trkpt lat="48.10785" lon="7.08001">
        <ele>1222.95</ele>
        <time>2021-09-12T10:01:14.000Z</time>
      </trkpt>
      <trkpt lat="48.10776" lon="7.08003">
        <ele>1221.12</ele>
        <time>2021-09-12T10:01:25.000Z</time>
      </trkpt>
      <trkpt lat="48.10766" lon="7.08004">
        <ele>1219.64</ele>
        <time>2021-09-12T10:01:35.000Z</time>
      </trkpt>
      <trkpt lat="48.10757" lon="7.08007">
        <ele>1218.21</ele>
        <time>2021-09-12T10:01:45.000Z</time>
      </trkpt>
      <trkpt lat="48.10747" lon="7.08005">
        <ele>1215.62</ele>
        <time>2021-09-12T10:01:55.000Z</time>
      </trkpt>
      <trkpt lat="48.10738" lon="7.08006">
        <ele>1214.01</ele>
        <time>2021-09-12T10:02:05.000Z</time>
      </trkpt>
      <trkpt lat="48.10729" lon="7.08006">
        <ele>1212.57</ele>
        <time>2021-09-12T10:02:14.000Z</time>
      </trkpt>
      <trkpt lat="48.10721" lon="7.08014">
        <ele>1208.45</ele>
        <time>2021-09-12T10:02:24.000Z</time>
      </trkpt>
      <trkpt lat="48.10719" lon="7.08031">
        <ele>1202.73</ele>
        <time>2021-09-12T10:03:35.000Z</time>
      </trkpt>
      <trkpt lat="48.10711" lon="7.08037">
        <ele>1206.41</ele>
        <time>2021-09-12T10:04:34.000Z</time>
      </trkpt>
      <trkpt lat="48.10704" lon="7.08045">
        <ele>1205.28</ele>
        <time>2021-09-12T10:04:46.000Z</time>
      </trkpt>
      <trkpt lat="48.10695" lon="7.08052">
        <ele>1204.9</ele>
        <time>2021-09-12T10:04:56.000Z</time>
      </trkpt>
      <trkpt lat="48.10688" lon="7.08062">
        <ele>1204.66</ele>
        <time>2021-09-12T10:05:03.000Z</time>
      </trkpt>
      <trkpt lat="48.1068" lon="7.08066">
        <ele>1204.24</ele>
        <time>2021-09-12T10:05:12.000Z</time>
      </trkpt>
      <trkpt lat="48.1067" lon="7.08064">
        <ele>1203.48</ele>
        <time>2021-09-12T10:05:20.000Z</time>
      </trkpt>
      <trkpt lat="48.10661" lon="7.08064">
        <ele>1201.4</ele>
        <time>2021-09-12T10:05:35.000Z</time>
      </trkpt>
      <trkpt lat="48.10653" lon="7.08072">
        <ele>1199.72</ele>
        <time>2021-09-12T10:05:44.000Z</time>
      </trkpt>
      <trkpt lat="48.10647" lon="7.08062">
        <ele>1195.95</ele>
        <time>2021-09-12T10:05:55.000Z</time>
      </trkpt>
      <trkpt lat="48.10637" lon="7.08062">
        <ele>1194.48</ele>
        <time>2021-09-12T10:06:07.000Z</time>
      </trkpt>
      <trkpt lat="48.10628" lon="7.08057">
        <ele>1189.46</ele>
        <time>2021-09-12T10:06:21.000Z</time>
      </trkpt>
      <trkpt lat="48.10621" lon="7.08049">
        <ele>1186.22</ele>
        <time>2021-09-12T10:06:34.000Z</time>
      </trkpt>
      <trkpt lat="48.10612" lon="7.08054">
        <ele>1183.88</ele>
        <time>2021-09-12T10:06:55.000Z</time>
      </trkpt>
      <trkpt lat="48.10603" lon="7.08053">
        <ele>1181.72</ele>
        <time>2021-09-12T10:07:09.000Z</time>
      </trkpt>
      <trkpt lat="48.10594" lon="7.08051">
        <ele>1178.16</ele>
        <time>2021-09-12T10:07:21.000Z</time>
      </trkpt>
      <trkpt lat="48.10584" lon="7.08053">
        <ele>1173.58</ele>
        <time>2021-09-12T10:07:35.000Z</time>
      </trkpt>
      <trkpt lat="48.10575" lon="7.08054">
        <ele>1170.84</ele>
        <time>2021-09-12T10:07:48.000Z</time>
      </trkpt>
      <trkpt lat="48.10566" lon="7.08054">
        <ele>1168.93</ele>
        <time>2021-09-12T10:07:59.000Z</time>
      </trkpt>
      <trkpt lat="48.10558" lon="7.08061">
        <ele>1165.65</ele>
        <time>2021-09-12T10:08:09.000Z</time>
      </trkpt>
      <trkpt lat="48.10549" lon="7.08059">
        <ele>1161.76</ele>
        <time>2021-09-12T10:08:21.000Z</time>
      </trkpt>
      <trkpt lat="48.10545" lon="7.08045">
        <ele>1159.43</ele>
        <time>2021-09-12T10:08:34.000Z</time>
      </trkpt>
      <trkpt lat="48.10549" lon="7.08033">
        <ele>1157.41</ele>
        <time>2021-09-12T10:08:45.000Z</time>
      </trkpt>
      <trkpt lat="48.1055" lon="7.08019">
        <ele>1156.32</ele>
        <time>2021-09-12T10:08:54.000Z</time>
      </trkpt>
      <trkpt lat="48.10552" lon="7.08006">
        <ele>1153.5</ele>
        <time>2021-09-12T10:09:03.000Z</time>
      </trkpt>
      <trkpt lat="48.10557" lon="7.07994">
        <ele>1152.41</ele>
        <time>2021-09-12T10:09:12.000Z</time>
      </trkpt>
      <trkpt lat="48.10559" lon="7.0798">
        <ele>1150.17</ele>
        <time>2021-09-12T10:09:21.000Z</time>
      </trkpt>
      <trkpt lat="48.10562" lon="7.07966">
        <ele>1149.06</ele>
        <time>2021-09-12T10:09:29.000Z</time>
      </trkpt>
      <trkpt lat="48.10567" lon="7.07953">
        <ele>1147.89</ele>
        <time>2021-09-12T10:09:38.000Z</time>
      </trkpt>
      <trkpt lat="48.10559" lon="7.07947">
        <ele>1143.31</ele>
        <time>2021-09-12T10:10:05.000Z</time>
      </trkpt>
      <trkpt lat="48.10549" lon="7.07947">
        <ele>1140.9</ele>
        <time>2021-09-12T10:10:16.000Z</time>
      </trkpt>
      <trkpt lat="48.10541" lon="7.07955">
        <ele>1137.07</ele>
        <time>2021-09-12T10:10:28.000Z</time>
      </trkpt>
      <trkpt lat="48.10533" lon="7.0796">
        <ele>1136.76</ele>
        <time>2021-09-12T10:10:37.000Z</time>
      </trkpt>
      <trkpt lat="48.10525" lon="7.07967">
        <ele>1134.76</ele>
        <time>2021-09-12T10:10:47.000Z</time>
      </trkpt>
      <trkpt lat="48.10516" lon="7.07971">
        <ele>1133.57</ele>
        <time>2021-09-12T10:10:55.000Z</time>
      </trkpt>
      <trkpt lat="48.10508" lon="7.07978">
        <ele>1129.66</ele>
        <time>2021-09-12T10:11:05.000Z</time>
      </trkpt>
      <trkpt lat="48.10499" lon="7.07981">
        <ele>1127.21</ele>
        <time>2021-09-12T10:11:18.000Z</time>
      </trkpt>
      <trkpt lat="48.10492" lon="7.07989">
        <ele>1123.37</ele>
        <time>2021-09-12T10:11:34.000Z</time>
      </trkpt>
      <trkpt lat="48.10484" lon="7.07996">
        <ele>1119.51</ele>
        <time>2021-09-12T10:11:44.000Z</time>
      </trkpt>
      <trkpt lat="48.10475" lon="7.07997">
        <ele>1120.12</ele>
        <time>2021-09-12T10:12:05.000Z</time>
      </trkpt>
      <trkpt lat="48.10466" lon="7.07994">
        <ele>1113.67</ele>
        <time>2021-09-12T10:12:46.000Z</time>
      </trkpt>
      <trkpt lat="48.10473" lon="7.07985">
        <ele>1111.44</ele>
        <time>2021-09-12T10:13:03.000Z</time>
      </trkpt>
      <trkpt lat="48.10478" lon="7.07974">
        <ele>1110.12</ele>
        <time>2021-09-12T10:13:11.000Z</time>
      </trkpt>
      <trkpt lat="48.10469" lon="7.07971">
        <ele>1112.1</ele>
        <time>2021-09-12T10:13:30.000Z</time>
      </trkpt>
      <trkpt lat="48.10459" lon="7.07972">
        <ele>1115.1</ele>
        <time>2021-09-12T10:13:42.000Z</time>
      </trkpt>
      <trkpt lat="48.1045" lon="7.07973">
        <ele>1114.32</ele>
        <time>2021-09-12T10:13:53.000Z</time>
      </trkpt>
      <trkpt lat="48.10441" lon="7.07973">
        <ele>1107.84</ele>
        <time>2021-09-12T10:14:03.000Z</time>
      </trkpt>
      <trkpt lat="48.10445" lon="7.07959">
        <ele>1099.22</ele>
        <time>2021-09-12T10:14:24.000Z</time>
      </trkpt>
      <trkpt lat="48.10449" lon="7.07946">
        <ele>1096.12</ele>
        <time>2021-09-12T10:14:35.000Z</time>
      </trkpt>
      <trkpt lat="48.10445" lon="7.07934">
        <ele>1092.25</ele>
        <time>2021-09-12T10:14:49.000Z</time>
      </trkpt>
      <trkpt lat="48.10449" lon="7.07921">
        <ele>1087.16</ele>
        <time>2021-09-12T10:15:04.000Z</time>
      </trkpt>
      <trkpt lat="48.10451" lon="7.07907">
        <ele>1085.33</ele>
        <time>2021-09-12T10:15:13.000Z</time>
      </trkpt>
      <trkpt lat="48.1045" lon="7.07893">
        <ele>1082.17</ele>
        <time>2021-09-12T10:15:22.000Z</time>
      </trkpt>
      <trkpt lat="48.1045" lon="7.07879">
        <ele>1079.95</ele>
        <time>2021-09-12T10:15:30.000Z</time>
      </trkpt>
      <trkpt lat="48.10451" lon="7.07865">
        <ele>1078.23</ele>
        <time>2021-09-12T10:15:38.000Z</time>
      </trkpt>
      <trkpt lat="48.10447" lon="7.07852">
        <ele>1079.03</ele>
        <time>2021-09-12T10:15:47.000Z</time>
      </trkpt>
      <trkpt lat="48.1045" lon="7.07839">
        <ele>1076.82</ele>
        <time>2021-09-12T10:15:59.000Z</time>
      </trkpt>
      <trkpt lat="48.10447" lon="7.07826">
        <ele>1072.9</ele>
        <time>2021-09-12T10:16:12.000Z</time>
      </trkpt>
      <trkpt lat="48.1045" lon="7.07813">
        <ele>1072.75</ele>
        <time>2021-09-12T10:16:26.000Z</time>
      </trkpt>
      <trkpt lat="48.10452" lon="7.078">
        <ele>1069.94</ele>
        <time>2021-09-12T10:16:48.000Z</time>
      </trkpt>
      <trkpt lat="48.10456" lon="7.07788">
        <ele>1070</ele>
        <time>2021-09-12T10:17:02.000Z</time>
      </trkpt>
      <trkpt lat="48.10457" lon="7.07774">
        <ele>1072.03</ele>
        <time>2021-09-12T10:17:15.000Z</time>
      </trkpt>
      <trkpt lat="48.10453" lon="7.07762">
        <ele>1075.18</ele>
        <time>2021-09-12T10:17:33.000Z</time>
      </trkpt>
      <trkpt lat="48.10451" lon="7.07749">
        <ele>1075.06</ele>
        <time>2021-09-12T10:17:43.000Z</time>
      </trkpt>
      <trkpt lat="48.1045" lon="7.07735">
        <ele>1074.43</ele>
        <time>2021-09-12T10:17:51.000Z</time>
      </trkpt>
      <trkpt lat="48.10446" lon="7.07722">
        <ele>1072.7</ele>
        <time>2021-09-12T10:18:01.000Z</time>
      </trkpt>
      <trkpt lat="48.10439" lon="7.07711">
        <ele>1073.19</ele>
        <time>2021-09-12T10:18:09.000Z</time>
      </trkpt>
      <trkpt lat="48.10434" lon="7.07698">
        <ele>1071.11</ele>
        <time>2021-09-12T10:18:19.000Z</time>
      </trkpt>
      <trkpt lat="48.10429" lon="7.07687">
        <ele>1070.44</ele>
        <time>2021-09-12T10:18:26.000Z</time>
      </trkpt>
      <trkpt lat="48.10427" lon="7.07672">
        <ele>1064.14</ele>
        <time>2021-09-12T10:18:34.000Z</time>
      </trkpt>
      <trkpt lat="48.10427" lon="7.07658">
        <ele>1061.52</ele>
        <time>2021-09-12T10:18:40.000Z</time>
      </trkpt>
      <trkpt lat="48.1043" lon="7.07643">
        <ele>1059.18</ele>
        <time>2021-09-12T10:18:47.000Z</time>
      </trkpt>
      <trkpt lat="48.10428" lon="7.07628">
        <ele>1058.97</ele>
        <time>2021-09-12T10:18:54.000Z</time>
      </trkpt>
      <trkpt lat="48.10429" lon="7.07613">
        <ele>1056.98</ele>
        <time>2021-09-12T10:19:02.000Z</time>
      </trkpt>
      <trkpt lat="48.10432" lon="7.076">
        <ele>1056.23</ele>
        <time>2021-09-12T10:19:12.000Z</time>
      </trkpt>
      <trkpt lat="48.10428" lon="7.07586">
        <ele>1054.76</ele>
        <time>2021-09-12T10:19:20.000Z</time>
      </trkpt>
      <trkpt lat="48.10424" lon="7.07573">
        <ele>1056.52</ele>
        <time>2021-09-12T10:19:28.000Z</time>
      </trkpt>
      <trkpt lat="48.10425" lon="7.07559">
        <ele>1055.67</ele>
        <time>2021-09-12T10:19:34.000Z</time>
      </trkpt>
      <trkpt lat="48.10424" lon="7.07544">
        <ele>1055.03</ele>
        <time>2021-09-12T10:19:40.000Z</time>
      </trkpt>
      <trkpt lat="48.1042" lon="7.0753">
        <ele>1052.89</ele>
        <time>2021-09-12T10:19:47.000Z</time>
      </trkpt>
      <trkpt lat="48.10416" lon="7.07516">
        <ele>1050.73</ele>
        <time>2021-09-12T10:19:54.000Z</time>
      </trkpt>
      <trkpt lat="48.10411" lon="7.07505">
        <ele>1049.4</ele>
        <time>2021-09-12T10:20:03.000Z</time>
      </trkpt>
      <trkpt lat="48.10404" lon="7.07493">
        <ele>1048.96</ele>
        <time>2021-09-12T10:20:11.000Z</time>
      </trkpt>
      <trkpt lat="48.10395" lon="7.07493">
        <ele>1049.34</ele>
        <time>2021-09-12T10:20:17.000Z</time>
      </trkpt>
      <trkpt lat="48.10386" lon="7.07495">
        <ele>1049.82</ele>
        <time>2021-09-12T10:20:24.000Z</time>
      </trkpt>
      <trkpt lat="48.10377" lon="7.07493">
        <ele>1050.89</ele>
        <time>2021-09-12T10:20:31.000Z</time>
      </trkpt>
      <trkpt lat="48.10368" lon="7.07493">
        <ele>1051.25</ele>
        <time>2021-09-12T10:20:40.000Z</time>
      </trkpt>
      <trkpt lat="48.10362" lon="7.07504">
        <ele>1051.11</ele>
        <time>2021-09-12T10:20:55.000Z</time>
      </trkpt>
      <trkpt lat="48.10354" lon="7.07485">
        <ele>1049.2</ele>
        <time>2021-09-12T10:22:52.000Z</time>
      </trkpt>
      <trkpt lat="48.10352" lon="7.07498">
        <ele>1050.63</ele>
        <time>2021-09-12T10:35:08.000Z</time>
      </trkpt>
      <trkpt lat="48.10343" lon="7.07496">
        <ele>1046.93</ele>
        <time>2021-09-12T10:36:59.000Z</time>
      </trkpt>
      <trkpt lat="48.10334" lon="7.07489">
        <ele>1044.6</ele>
        <time>2021-09-12T10:37:11.000Z</time>
      </trkpt>
      <trkpt lat="48.1033" lon="7.07476">
        <ele>1043.06</ele>
        <time>2021-09-12T10:37:19.000Z</time>
      </trkpt>
      <trkpt lat="48.10323" lon="7.07467">
        <ele>1041.71</ele>
        <time>2021-09-12T10:37:28.000Z</time>
      </trkpt>
      <trkpt lat="48.10314" lon="7.07464">
        <ele>1040.6</ele>
        <time>2021-09-12T10:37:37.000Z</time>
      </trkpt>
      <trkpt lat="48.10304" lon="7.07461">
        <ele>1040.33</ele>
        <time>2021-09-12T10:37:44.000Z</time>
      </trkpt>
      <trkpt lat="48.10296" lon="7.07467">
        <ele>1040.39</ele>
        <time>2021-09-12T10:37:49.000Z</time>
      </trkpt>
      <trkpt lat="48.10287" lon="7.07468">
        <ele>1041.13</ele>
        <time>2021-09-12T10:37:57.000Z</time>
      </trkpt>
      <trkpt lat="48.10276" lon="7.07466">
        <ele>1037.63</ele>
        <time>2021-09-12T10:38:08.000Z</time>
      </trkpt>
      <trkpt lat="48.10267" lon="7.07466">
        <ele>1035.71</ele>
        <time>2021-09-12T10:38:16.000Z</time>
      </trkpt>
      <trkpt lat="48.10257" lon="7.07465">
        <ele>1034.93</ele>
        <time>2021-09-12T10:38:23.000Z</time>
      </trkpt>
      <trkpt lat="48.10248" lon="7.07465">
        <ele>1034.7</ele>
        <time>2021-09-12T10:38:30.000Z</time>
      </trkpt>
      <trkpt lat="48.10239" lon="7.07462">
        <ele>1033.62</ele>
        <time>2021-09-12T10:38:36.000Z</time>
      </trkpt>
      <trkpt lat="48.10229" lon="7.07463">
        <ele>1032.13</ele>
        <time>2021-09-12T10:38:42.000Z</time>
      </trkpt>
      <trkpt lat="48.1022" lon="7.07471">
        <ele>1031.89</ele>
        <time>2021-09-12T10:38:50.000Z</time>
      </trkpt>
      <trkpt lat="48.10214" lon="7.07481">
        <ele>1032.83</ele>
        <time>2021-09-12T10:38:58.000Z</time>
      </trkpt>
      <trkpt lat="48.10211" lon="7.07495">
        <ele>1033.11</ele>
        <time>2021-09-12T10:39:06.000Z</time>
      </trkpt>
      <trkpt lat="48.10214" lon="7.07509">
        <ele>1033.65</ele>
        <time>2021-09-12T10:39:14.000Z</time>
      </trkpt>
      <trkpt lat="48.10216" lon="7.07522">
        <ele>1032.53</ele>
        <time>2021-09-12T10:39:21.000Z</time>
      </trkpt>
      <trkpt lat="48.10217" lon="7.07537">
        <ele>1032.69</ele>
        <time>2021-09-12T10:39:28.000Z</time>
      </trkpt>
      <trkpt lat="48.10215" lon="7.07551">
        <ele>1032.99</ele>
        <time>2021-09-12T10:39:35.000Z</time>
      </trkpt>
      <trkpt lat="48.10213" lon="7.07566">
        <ele>1032.65</ele>
        <time>2021-09-12T10:39:42.000Z</time>
      </trkpt>
      <trkpt lat="48.10211" lon="7.07579">
        <ele>1030.57</ele>
        <time>2021-09-12T10:39:50.000Z</time>
      </trkpt>
      <trkpt lat="48.10208" lon="7.07592">
        <ele>1028.45</ele>
        <time>2021-09-12T10:39:58.000Z</time>
      </trkpt>
      <trkpt lat="48.102" lon="7.07599">
        <ele>1030.37</ele>
        <time>2021-09-12T10:40:12.000Z</time>
      </trkpt>
      <trkpt lat="48.10197" lon="7.07614">
        <ele>1030.8</ele>
        <time>2021-09-12T10:40:20.000Z</time>
      </trkpt>
      <trkpt lat="48.10196" lon="7.07628">
        <ele>1032.61</ele>
        <time>2021-09-12T10:40:30.000Z</time>
      </trkpt>
      <trkpt lat="48.10192" lon="7.0764">
        <ele>1036.95</ele>
        <time>2021-09-12T10:40:42.000Z</time>
      </trkpt>
      <trkpt lat="48.10182" lon="7.07638">
        <ele>1037.43</ele>
        <time>2021-09-12T10:40:55.000Z</time>
      </trkpt>
      <trkpt lat="48.10175" lon="7.07629">
        <ele>1038.35</ele>
        <time>2021-09-12T10:41:06.000Z</time>
      </trkpt>
      <trkpt lat="48.10174" lon="7.07615">
        <ele>1038.17</ele>
        <time>2021-09-12T10:41:56.000Z</time>
      </trkpt>
      <trkpt lat="48.10165" lon="7.07621">
        <ele>1038.19</ele>
        <time>2021-09-12T10:42:07.000Z</time>
      </trkpt>
      <trkpt lat="48.10156" lon="7.07618">
        <ele>1040.12</ele>
        <time>2021-09-12T10:42:16.000Z</time>
      </trkpt>
      <trkpt lat="48.10147" lon="7.07616">
        <ele>1043</ele>
        <time>2021-09-12T10:42:28.000Z</time>
      </trkpt>
      <trkpt lat="48.10151" lon="7.07602">
        <ele>1048.98</ele>
        <time>2021-09-12T10:43:09.000Z</time>
      </trkpt>
      <trkpt lat="48.10155" lon="7.0759">
        <ele>1051.55</ele>
        <time>2021-09-12T10:43:16.000Z</time>
      </trkpt>
      <trkpt lat="48.10157" lon="7.07576">
        <ele>1052.96</ele>
        <time>2021-09-12T10:43:26.000Z</time>
      </trkpt>
      <trkpt lat="48.10165" lon="7.0757">
        <ele>1051.81</ele>
        <time>2021-09-12T10:43:38.000Z</time>
      </trkpt>
      <trkpt lat="48.10158" lon="7.0758">
        <ele>1046.25</ele>
        <time>2021-09-12T10:44:05.000Z</time>
      </trkpt>
      <trkpt lat="48.10151" lon="7.07589">
        <ele>1048</ele>
        <time>2021-09-12T10:44:20.000Z</time>
      </trkpt>
      <trkpt lat="48.10147" lon="7.07602">
        <ele>1050.78</ele>
        <time>2021-09-12T10:44:28.000Z</time>
      </trkpt>
      <trkpt lat="48.1014" lon="7.07612">
        <ele>1055.78</ele>
        <time>2021-09-12T10:44:41.000Z</time>
      </trkpt>
      <trkpt lat="48.10131" lon="7.07617">
        <ele>1056.68</ele>
        <time>2021-09-12T10:45:01.000Z</time>
      </trkpt>
      <trkpt lat="48.10127" lon="7.07629">
        <ele>1057.87</ele>
        <time>2021-09-12T10:45:14.000Z</time>
      </trkpt>
      <trkpt lat="48.10118" lon="7.07634">
        <ele>1058.52</ele>
        <time>2021-09-12T10:45:30.000Z</time>
      </trkpt>
      <trkpt lat="48.10114" lon="7.07646">
        <ele>1060.85</ele>
        <time>2021-09-12T10:45:42.000Z</time>
      </trkpt>
      <trkpt lat="48.10104" lon="7.07649">
        <ele>1062.31</ele>
        <time>2021-09-12T10:46:05.000Z</time>
      </trkpt>
      <trkpt lat="48.10095" lon="7.07653">
        <ele>1063.41</ele>
        <time>2021-09-12T10:46:19.000Z</time>
      </trkpt>
      <trkpt lat="48.10085" lon="7.07656">
        <ele>1065.91</ele>
        <time>2021-09-12T10:46:27.000Z</time>
      </trkpt>
      <trkpt lat="48.10076" lon="7.07659">
        <ele>1067.39</ele>
        <time>2021-09-12T10:46:36.000Z</time>
      </trkpt>
      <trkpt lat="48.10068" lon="7.07668">
        <ele>1070.67</ele>
        <time>2021-09-12T10:46:44.000Z</time>
      </trkpt>
      <trkpt lat="48.10061" lon="7.07678">
        <ele>1073.09</ele>
        <time>2021-09-12T10:46:53.000Z</time>
      </trkpt>
      <trkpt lat="48.10054" lon="7.07687">
        <ele>1072.01</ele>
        <time>2021-09-12T10:47:02.000Z</time>
      </trkpt>
      <trkpt lat="48.10045" lon="7.07694">
        <ele>1071.51</ele>
        <time>2021-09-12T10:47:13.000Z</time>
      </trkpt>
      <trkpt lat="48.10039" lon="7.07705">
        <ele>1073.66</ele>
        <time>2021-09-12T10:47:22.000Z</time>
      </trkpt>
      <trkpt lat="48.10032" lon="7.07714">
        <ele>1075.96</ele>
        <time>2021-09-12T10:47:34.000Z</time>
      </trkpt>
      <trkpt lat="48.10023" lon="7.07717">
        <ele>1077.38</ele>
        <time>2021-09-12T10:47:45.000Z</time>
      </trkpt>
      <trkpt lat="48.10015" lon="7.07723">
        <ele>1081.08</ele>
        <time>2021-09-12T10:47:57.000Z</time>
      </trkpt>
      <trkpt lat="48.10006" lon="7.07728">
        <ele>1080.57</ele>
        <time>2021-09-12T10:48:05.000Z</time>
      </trkpt>
      <trkpt lat="48.09996" lon="7.07733">
        <ele>1083.76</ele>
        <time>2021-09-12T10:48:17.000Z</time>
      </trkpt>
      <trkpt lat="48.09987" lon="7.07735">
        <ele>1084.73</ele>
        <time>2021-09-12T10:48:26.000Z</time>
      </trkpt>
      <trkpt lat="48.09978" lon="7.0773">
        <ele>1082.59</ele>
        <time>2021-09-12T10:48:34.000Z</time>
      </trkpt>
      <trkpt lat="48.0997" lon="7.07723">
        <ele>1082.08</ele>
        <time>2021-09-12T10:48:48.000Z</time>
      </trkpt>
      <trkpt lat="48.09963" lon="7.07715">
        <ele>1082.67</ele>
        <time>2021-09-12T10:48:59.000Z</time>
      </trkpt>
      <trkpt lat="48.09954" lon="7.07714">
        <ele>1084.21</ele>
        <time>2021-09-12T10:49:06.000Z</time>
      </trkpt>
      <trkpt lat="48.09944" lon="7.07712">
        <ele>1086.35</ele>
        <time>2021-09-12T10:49:15.000Z</time>
      </trkpt>
      <trkpt lat="48.09935" lon="7.07717">
        <ele>1087.48</ele>
        <time>2021-09-12T10:49:23.000Z</time>
      </trkpt>
      <trkpt lat="48.09925" lon="7.07716">
        <ele>1088.18</ele>
        <time>2021-09-12T10:49:31.000Z</time>
      </trkpt>
      <trkpt lat="48.09919" lon="7.07706">
        <ele>1090.19</ele>
        <time>2021-09-12T10:49:40.000Z</time>
      </trkpt>
      <trkpt lat="48.09909" lon="7.07705">
        <ele>1091.1</ele>
        <time>2021-09-12T10:49:47.000Z</time>
      </trkpt>
      <trkpt lat="48.099" lon="7.07701">
        <ele>1091.72</ele>
        <time>2021-09-12T10:49:57.000Z</time>
      </trkpt>
      <trkpt lat="48.09891" lon="7.07696">
        <ele>1091.15</ele>
        <time>2021-09-12T10:50:05.000Z</time>
      </trkpt>
      <trkpt lat="48.09882" lon="7.07689">
        <ele>1091.61</ele>
        <time>2021-09-12T10:50:13.000Z</time>
      </trkpt>
      <trkpt lat="48.09876" lon="7.0768">
        <ele>1091.29</ele>
        <time>2021-09-12T10:50:23.000Z</time>
      </trkpt>
      <trkpt lat="48.09869" lon="7.07671">
        <ele>1090.42</ele>
        <time>2021-09-12T10:50:31.000Z</time>
      </trkpt>
      <trkpt lat="48.09861" lon="7.07662">
        <ele>1088.97</ele>
        <time>2021-09-12T10:50:38.000Z</time>
      </trkpt>
      <trkpt lat="48.09855" lon="7.0765">
        <ele>1088.54</ele>
        <time>2021-09-12T10:50:47.000Z</time>
      </trkpt>
      <trkpt lat="48.09848" lon="7.07641">
        <ele>1088.27</ele>
        <time>2021-09-12T10:50:56.000Z</time>
      </trkpt>
      <trkpt lat="48.09837" lon="7.07635">
        <ele>1086.96</ele>
        <time>2021-09-12T10:51:03.000Z</time>
      </trkpt>
      <trkpt lat="48.09828" lon="7.07631">
        <ele>1085.56</ele>
        <time>2021-09-12T10:51:10.000Z</time>
      </trkpt>
      <trkpt lat="48.09823" lon="7.07621">
        <ele>1085.34</ele>
        <time>2021-09-12T10:51:18.000Z</time>
      </trkpt>
      <trkpt lat="48.09813" lon="7.07615">
        <ele>1088.02</ele>
        <time>2021-09-12T10:51:27.000Z</time>
      </trkpt>
      <trkpt lat="48.09803" lon="7.07613">
        <ele>1088.13</ele>
        <time>2021-09-12T10:51:35.000Z</time>
      </trkpt>
      <trkpt lat="48.09793" lon="7.0761">
        <ele>1087.73</ele>
        <time>2021-09-12T10:51:42.000Z</time>
      </trkpt>
      <trkpt lat="48.09784" lon="7.07608">
        <ele>1088.41</ele>
        <time>2021-09-12T10:51:50.000Z</time>
      </trkpt>
      <trkpt lat="48.09774" lon="7.07611">
        <ele>1086.72</ele>
        <time>2021-09-12T10:51:56.000Z</time>
      </trkpt>
      <trkpt lat="48.09765" lon="7.07609">
        <ele>1086.17</ele>
        <time>2021-09-12T10:52:04.000Z</time>
      </trkpt>
      <trkpt lat="48.09754" lon="7.07613">
        <ele>1089.75</ele>
        <time>2021-09-12T10:52:14.000Z</time>
      </trkpt>
      <trkpt lat="48.09745" lon="7.07611">
        <ele>1090.15</ele>
        <time>2021-09-12T10:52:22.000Z</time>
      </trkpt>
      <trkpt lat="48.09735" lon="7.07612">
        <ele>1089.28</ele>
        <time>2021-09-12T10:52:29.000Z</time>
      </trkpt>
      <trkpt lat="48.09725" lon="7.0761">
        <ele>1087.85</ele>
        <time>2021-09-12T10:52:36.000Z</time>
      </trkpt>
      <trkpt lat="48.09716" lon="7.07608">
        <ele>1087.7</ele>
        <time>2021-09-12T10:52:42.000Z</time>
      </trkpt>
      <trkpt lat="48.09705" lon="7.07609">
        <ele>1084.96</ele>
        <time>2021-09-12T10:52:51.000Z</time>
      </trkpt>
      <trkpt lat="48.09696" lon="7.07609">
        <ele>1082.73</ele>
        <time>2021-09-12T10:52:58.000Z</time>
      </trkpt>
      <trkpt lat="48.09687" lon="7.07604">
        <ele>1080.95</ele>
        <time>2021-09-12T10:53:07.000Z</time>
      </trkpt>
      <trkpt lat="48.09679" lon="7.07599">
        <ele>1079.94</ele>
        <time>2021-09-12T10:53:15.000Z</time>
      </trkpt>
      <trkpt lat="48.09669" lon="7.07598">
        <ele>1078.54</ele>
        <time>2021-09-12T10:53:24.000Z</time>
      </trkpt>
      <trkpt lat="48.0966" lon="7.07594">
        <ele>1081.28</ele>
        <time>2021-09-12T10:53:32.000Z</time>
      </trkpt>
      <trkpt lat="48.0965" lon="7.07589">
        <ele>1082.43</ele>
        <time>2021-09-12T10:53:40.000Z</time>
      </trkpt>
      <trkpt lat="48.09642" lon="7.07584">
        <ele>1084.21</ele>
        <time>2021-09-12T10:53:50.000Z</time>
      </trkpt>
      <trkpt lat="48.09633" lon="7.07577">
        <ele>1083.28</ele>
        <time>2021-09-12T10:54:01.000Z</time>
      </trkpt>
      <trkpt lat="48.09627" lon="7.07566">
        <ele>1083.4</ele>
        <time>2021-09-12T10:54:10.000Z</time>
      </trkpt>
      <trkpt lat="48.09619" lon="7.07557">
        <ele>1083.99</ele>
        <time>2021-09-12T10:54:17.000Z</time>
      </trkpt>
      <trkpt lat="48.09611" lon="7.0755">
        <ele>1083.73</ele>
        <time>2021-09-12T10:54:24.000Z</time>
      </trkpt>
      <trkpt lat="48.09604" lon="7.07539">
        <ele>1083.3</ele>
        <time>2021-09-12T10:54:33.000Z</time>
      </trkpt>
      <trkpt lat="48.09598" lon="7.07528">
        <ele>1081.9</ele>
        <time>2021-09-12T10:54:40.000Z</time>
      </trkpt>
      <trkpt lat="48.09591" lon="7.07517">
        <ele>1081.47</ele>
        <time>2021-09-12T10:54:48.000Z</time>
      </trkpt>
      <trkpt lat="48.09585" lon="7.07506">
        <ele>1081.04</ele>
        <time>2021-09-12T10:54:57.000Z</time>
      </trkpt>
      <trkpt lat="48.09579" lon="7.07495">
        <ele>1082.08</ele>
        <time>2021-09-12T10:55:04.000Z</time>
      </trkpt>
      <trkpt lat="48.09574" lon="7.07483">
        <ele>1081.67</ele>
        <time>2021-09-12T10:55:11.000Z</time>
      </trkpt>
      <trkpt lat="48.09568" lon="7.07471">
        <ele>1081.12</ele>
        <time>2021-09-12T10:55:18.000Z</time>
      </trkpt>
      <trkpt lat="48.09562" lon="7.07461">
        <ele>1078.6</ele>
        <time>2021-09-12T10:55:25.000Z</time>
      </trkpt>
      <trkpt lat="48.09561" lon="7.07447">
        <ele>1076.81</ele>
        <time>2021-09-12T10:55:34.000Z</time>
      </trkpt>
      <trkpt lat="48.09556" lon="7.07435">
        <ele>1081.01</ele>
        <time>2021-09-12T10:55:39.000Z</time>
      </trkpt>
      <trkpt lat="48.09551" lon="7.07423">
        <ele>1084.12</ele>
        <time>2021-09-12T10:55:45.000Z</time>
      </trkpt>
      <trkpt lat="48.09547" lon="7.07411">
        <ele>1088.41</ele>
        <time>2021-09-12T10:55:54.000Z</time>
      </trkpt>
      <trkpt lat="48.09546" lon="7.07398">
        <ele>1092.07</ele>
        <time>2021-09-12T10:56:06.000Z</time>
      </trkpt>
      <trkpt lat="48.09542" lon="7.07384">
        <ele>1092.61</ele>
        <time>2021-09-12T10:56:15.000Z</time>
      </trkpt>
      <trkpt lat="48.09541" lon="7.0737">
        <ele>1091.88</ele>
        <time>2021-09-12T10:56:23.000Z</time>
      </trkpt>
      <trkpt lat="48.09534" lon="7.0736">
        <ele>1092.4</ele>
        <time>2021-09-12T10:56:30.000Z</time>
      </trkpt>
      <trkpt lat="48.09528" lon="7.07347">
        <ele>1092.29</ele>
        <time>2021-09-12T10:56:39.000Z</time>
      </trkpt>
      <trkpt lat="48.09529" lon="7.07332">
        <ele>1091.28</ele>
        <time>2021-09-12T10:56:46.000Z</time>
      </trkpt>
      <trkpt lat="48.09527" lon="7.07318">
        <ele>1091.58</ele>
        <time>2021-09-12T10:56:52.000Z</time>
      </trkpt>
      <trkpt lat="48.09522" lon="7.07304">
        <ele>1089.44</ele>
        <time>2021-09-12T10:57:00.000Z</time>
      </trkpt>
      <trkpt lat="48.09517" lon="7.07293">
        <ele>1089.43</ele>
        <time>2021-09-12T10:57:07.000Z</time>
      </trkpt>
      <trkpt lat="48.09509" lon="7.07283">
        <ele>1088.77</ele>
        <time>2021-09-12T10:57:14.000Z</time>
      </trkpt>
      <trkpt lat="48.09504" lon="7.07272">
        <ele>1088.42</ele>
        <time>2021-09-12T10:57:22.000Z</time>
      </trkpt>
      <trkpt lat="48.09499" lon="7.07259">
        <ele>1090.18</ele>
        <time>2021-09-12T10:57:31.000Z</time>
      </trkpt>
      <trkpt lat="48.09492" lon="7.07248">
        <ele>1089.84</ele>
        <time>2021-09-12T10:57:39.000Z</time>
      </trkpt>
      <trkpt lat="48.09485" lon="7.07238">
        <ele>1088.67</ele>
        <time>2021-09-12T10:57:47.000Z</time>
      </trkpt>
      <trkpt lat="48.09478" lon="7.07228">
        <ele>1089.05</ele>
        <time>2021-09-12T10:57:55.000Z</time>
      </trkpt>
      <trkpt lat="48.09474" lon="7.07215">
        <ele>1089.29</ele>
        <time>2021-09-12T10:58:03.000Z</time>
      </trkpt>
      <trkpt lat="48.09471" lon="7.07203">
        <ele>1088.43</ele>
        <time>2021-09-12T10:58:11.000Z</time>
      </trkpt>
      <trkpt lat="48.09467" lon="7.07189">
        <ele>1089.59</ele>
        <time>2021-09-12T10:58:17.000Z</time>
      </trkpt>
      <trkpt lat="48.0946" lon="7.07179">
        <ele>1090.44</ele>
        <time>2021-09-12T10:58:26.000Z</time>
      </trkpt>
      <trkpt lat="48.09456" lon="7.07166">
        <ele>1093.92</ele>
        <time>2021-09-12T10:58:36.000Z</time>
      </trkpt>
      <trkpt lat="48.0945" lon="7.07154">
        <ele>1097.03</ele>
        <time>2021-09-12T10:58:45.000Z</time>
      </trkpt>
      <trkpt lat="48.09444" lon="7.07142">
        <ele>1097.07</ele>
        <time>2021-09-12T10:58:51.000Z</time>
      </trkpt>
      <trkpt lat="48.09438" lon="7.07131">
        <ele>1097.16</ele>
        <time>2021-09-12T10:59:00.000Z</time>
      </trkpt>
      <trkpt lat="48.09438" lon="7.07118">
        <ele>1098.62</ele>
        <time>2021-09-12T10:59:10.000Z</time>
      </trkpt>
      <trkpt lat="48.09435" lon="7.07104">
        <ele>1099.07</ele>
        <time>2021-09-12T10:59:20.000Z</time>
      </trkpt>
      <trkpt lat="48.09427" lon="7.07095">
        <ele>1098.67</ele>
        <time>2021-09-12T10:59:27.000Z</time>
      </trkpt>
      <trkpt lat="48.09419" lon="7.07088">
        <ele>1097.57</ele>
        <time>2021-09-12T10:59:35.000Z</time>
      </trkpt>
      <trkpt lat="48.09417" lon="7.07073">
        <ele>1095.74</ele>
        <time>2021-09-12T10:59:45.000Z</time>
      </trkpt>
      <trkpt lat="48.09415" lon="7.07059">
        <ele>1095.61</ele>
        <time>2021-09-12T10:59:54.000Z</time>
      </trkpt>
      <trkpt lat="48.09413" lon="7.07045">
        <ele>1093.55</ele>
        <time>2021-09-12T11:00:01.000Z</time>
      </trkpt>
      <trkpt lat="48.09411" lon="7.07031">
        <ele>1092.77</ele>
        <time>2021-09-12T11:00:10.000Z</time>
      </trkpt>
      <trkpt lat="48.09409" lon="7.07016">
        <ele>1093.08</ele>
        <time>2021-09-12T11:00:20.000Z</time>
      </trkpt>
      <trkpt lat="48.09406" lon="7.07003">
        <ele>1094.8</ele>
        <time>2021-09-12T11:00:28.000Z</time>
      </trkpt>
      <trkpt lat="48.09398" lon="7.06996">
        <ele>1098.34</ele>
        <time>2021-09-12T11:00:37.000Z</time>
      </trkpt>
      <trkpt lat="48.0939" lon="7.06986">
        <ele>1102.54</ele>
        <time>2021-09-12T11:00:48.000Z</time>
      </trkpt>
      <trkpt lat="48.09382" lon="7.06979">
        <ele>1105.08</ele>
        <time>2021-09-12T11:00:57.000Z</time>
      </trkpt>
      <trkpt lat="48.09376" lon="7.06967">
        <ele>1106.1</ele>
        <time>2021-09-12T11:01:07.000Z</time>
      </trkpt>
      <trkpt lat="48.09372" lon="7.06955">
        <ele>1107.1</ele>
        <time>2021-09-12T11:01:18.000Z</time>
      </trkpt>
      <trkpt lat="48.09365" lon="7.06945">
        <ele>1109.1</ele>
        <time>2021-09-12T11:01:26.000Z</time>
      </trkpt>
      <trkpt lat="48.09358" lon="7.06936">
        <ele>1110.23</ele>
        <time>2021-09-12T11:01:33.000Z</time>
      </trkpt>
      <trkpt lat="48.09349" lon="7.0693">
        <ele>1108.57</ele>
        <time>2021-09-12T11:01:40.000Z</time>
      </trkpt>
      <trkpt lat="48.0934" lon="7.06929">
        <ele>1109.01</ele>
        <time>2021-09-12T11:01:47.000Z</time>
      </trkpt>
      <trkpt lat="48.09331" lon="7.06925">
        <ele>1111.85</ele>
        <time>2021-09-12T11:01:54.000Z</time>
      </trkpt>
      <trkpt lat="48.09321" lon="7.06922">
        <ele>1112.46</ele>
        <time>2021-09-12T11:02:02.000Z</time>
      </trkpt>
      <trkpt lat="48.09312" lon="7.06922">
        <ele>1112.17</ele>
        <time>2021-09-12T11:02:10.000Z</time>
      </trkpt>
      <trkpt lat="48.09303" lon="7.06918">
        <ele>1113.87</ele>
        <time>2021-09-12T11:02:19.000Z</time>
      </trkpt>
      <trkpt lat="48.09293" lon="7.06918">
        <ele>1116.6</ele>
        <time>2021-09-12T11:02:27.000Z</time>
      </trkpt>
      <trkpt lat="48.09284" lon="7.06916">
        <ele>1118.14</ele>
        <time>2021-09-12T11:02:34.000Z</time>
      </trkpt>
      <trkpt lat="48.09275" lon="7.06916">
        <ele>1118.62</ele>
        <time>2021-09-12T11:02:42.000Z</time>
      </trkpt>
      <trkpt lat="48.09265" lon="7.06912">
        <ele>1117.65</ele>
        <time>2021-09-12T11:02:50.000Z</time>
      </trkpt>
      <trkpt lat="48.09256" lon="7.0691">
        <ele>1117.01</ele>
        <time>2021-09-12T11:02:57.000Z</time>
      </trkpt>
      <trkpt lat="48.09247" lon="7.0691">
        <ele>1117.31</ele>
        <time>2021-09-12T11:03:04.000Z</time>
      </trkpt>
      <trkpt lat="48.09239" lon="7.06918">
        <ele>1118.91</ele>
        <time>2021-09-12T11:03:12.000Z</time>
      </trkpt>
      <trkpt lat="48.0923" lon="7.06924">
        <ele>1120.21</ele>
        <time>2021-09-12T11:03:20.000Z</time>
      </trkpt>
      <trkpt lat="48.09221" lon="7.0692">
        <ele>1119.76</ele>
        <time>2021-09-12T11:03:29.000Z</time>
      </trkpt>
      <trkpt lat="48.09214" lon="7.06911">
        <ele>1120.25</ele>
        <time>2021-09-12T11:03:39.000Z</time>
      </trkpt>
      <trkpt lat="48.09209" lon="7.06899">
        <ele>1119.32</ele>
        <time>2021-09-12T11:03:47.000Z</time>
      </trkpt>
      <trkpt lat="48.09203" lon="7.06888">
        <ele>1118.35</ele>
        <time>2021-09-12T11:03:55.000Z</time>
      </trkpt>
      <trkpt lat="48.09196" lon="7.06879">
        <ele>1116.38</ele>
        <time>2021-09-12T11:04:05.000Z</time>
      </trkpt>
      <trkpt lat="48.0919" lon="7.06889">
        <ele>1115.67</ele>
        <time>2021-09-12T11:04:14.000Z</time>
      </trkpt>
      <trkpt lat="48.0918" lon="7.06892">
        <ele>1116.13</ele>
        <time>2021-09-12T11:04:24.000Z</time>
      </trkpt>
      <trkpt lat="48.09171" lon="7.06896">
        <ele>1111.67</ele>
        <time>2021-09-12T11:04:46.000Z</time>
      </trkpt>
      <trkpt lat="48.09162" lon="7.06897">
        <ele>1108.87</ele>
        <time>2021-09-12T11:05:00.000Z</time>
      </trkpt>
      <trkpt lat="48.09154" lon="7.06886">
        <ele>1105.68</ele>
        <time>2021-09-12T11:05:11.000Z</time>
      </trkpt>
      <trkpt lat="48.09147" lon="7.06876">
        <ele>1103.12</ele>
        <time>2021-09-12T11:05:29.000Z</time>
      </trkpt>
      <trkpt lat="48.09137" lon="7.06874">
        <ele>1104.73</ele>
        <time>2021-09-12T11:05:38.000Z</time>
      </trkpt>
      <trkpt lat="48.09128" lon="7.0687">
        <ele>1103.69</ele>
        <time>2021-09-12T11:05:47.000Z</time>
      </trkpt>
      <trkpt lat="48.09118" lon="7.06868">
        <ele>1101.98</ele>
        <time>2021-09-12T11:05:57.000Z</time>
      </trkpt>
      <trkpt lat="48.09109" lon="7.06869">
        <ele>1102.68</ele>
        <time>2021-09-12T11:06:08.000Z</time>
      </trkpt>
      <trkpt lat="48.09099" lon="7.06868">
        <ele>1102.52</ele>
        <time>2021-09-12T11:06:22.000Z</time>
      </trkpt>
      <trkpt lat="48.0909" lon="7.06865">
        <ele>1100.14</ele>
        <time>2021-09-12T11:06:30.000Z</time>
      </trkpt>
      <trkpt lat="48.09087" lon="7.06852">
        <ele>1092.64</ele>
        <time>2021-09-12T11:06:51.000Z</time>
      </trkpt>
      <trkpt lat="48.09094" lon="7.06868">
        <ele>1092.97</ele>
        <time>2021-09-12T11:08:00.000Z</time>
      </trkpt>
      <trkpt lat="48.0909" lon="7.06854">
        <ele>1095.59</ele>
        <time>2021-09-12T11:12:05.000Z</time>
      </trkpt>
      <trkpt lat="48.09096" lon="7.06864">
        <ele>1091.44</ele>
        <time>2021-09-12T11:18:52.000Z</time>
      </trkpt>
      <trkpt lat="48.09087" lon="7.06867">
        <ele>1091.91</ele>
        <time>2021-09-12T11:20:11.000Z</time>
      </trkpt>
      <trkpt lat="48.09089" lon="7.0685">
        <ele>1089.33</ele>
        <time>2021-09-12T11:20:31.000Z</time>
      </trkpt>
      <trkpt lat="48.09093" lon="7.06864">
        <ele>1087.15</ele>
        <time>2021-09-12T11:20:54.000Z</time>
      </trkpt>
      <trkpt lat="48.09082" lon="7.06877">
        <ele>1110</ele>
        <time>2021-09-12T11:21:21.000Z</time>
      </trkpt>
      <trkpt lat="48.09078" lon="7.06865">
        <ele>1117.97</ele>
        <time>2021-09-12T11:21:27.000Z</time>
      </trkpt>
      <trkpt lat="48.09085" lon="7.06855">
        <ele>1096.09</ele>
        <time>2021-09-12T11:22:04.000Z</time>
      </trkpt>
      <trkpt lat="48.09094" lon="7.06855">
        <ele>1086.59</ele>
        <time>2021-09-12T11:34:36.000Z</time>
      </trkpt>
      <trkpt lat="48.09094" lon="7.06869">
        <ele>1083.11</ele>
        <time>2021-09-12T11:35:35.000Z</time>
      </trkpt>
      <trkpt lat="48.09101" lon="7.06878">
        <ele>1082.18</ele>
        <time>2021-09-12T11:35:44.000Z</time>
      </trkpt>
      <trkpt lat="48.09101" lon="7.06865">
        <ele>1079.52</ele>
        <time>2021-09-12T11:36:17.000Z</time>
      </trkpt>
      <trkpt lat="48.09089" lon="7.06857">
        <ele>1083.52</ele>
        <time>2021-09-12T11:37:57.000Z</time>
      </trkpt>
      <trkpt lat="48.09094" lon="7.06869">
        <ele>1085.27</ele>
        <time>2021-09-12T11:38:44.000Z</time>
      </trkpt>
      <trkpt lat="48.0909" lon="7.06857">
        <ele>1087.61</ele>
        <time>2021-09-12T11:39:08.000Z</time>
      </trkpt>
      <trkpt lat="48.09087" lon="7.0687">
        <ele>1090.98</ele>
        <time>2021-09-12T11:46:00.000Z</time>
      </trkpt>
      <trkpt lat="48.09088" lon="7.06884">
        <ele>1089.34</ele>
        <time>2021-09-12T11:46:09.000Z</time>
      </trkpt>
      <trkpt lat="48.09086" lon="7.06897">
        <ele>1088.62</ele>
        <time>2021-09-12T11:46:17.000Z</time>
      </trkpt>
      <trkpt lat="48.09077" lon="7.06898">
        <ele>1086.4</ele>
        <time>2021-09-12T11:46:36.000Z</time>
      </trkpt>
      <trkpt lat="48.09068" lon="7.06892">
        <ele>1084.2</ele>
        <time>2021-09-12T11:46:45.000Z</time>
      </trkpt>
      <trkpt lat="48.09059" lon="7.06892">
        <ele>1082.85</ele>
        <time>2021-09-12T11:46:54.000Z</time>
      </trkpt>
      <trkpt lat="48.0905" lon="7.06889">
        <ele>1079.97</ele>
        <time>2021-09-12T11:47:03.000Z</time>
      </trkpt>
      <trkpt lat="48.0904" lon="7.06886">
        <ele>1079.04</ele>
        <time>2021-09-12T11:47:14.000Z</time>
      </trkpt>
      <trkpt lat="48.0903" lon="7.06883">
        <ele>1078.78</ele>
        <time>2021-09-12T11:47:23.000Z</time>
      </trkpt>
      <trkpt lat="48.09021" lon="7.06883">
        <ele>1074.46</ele>
        <time>2021-09-12T11:47:32.000Z</time>
      </trkpt>
      <trkpt lat="48.09012" lon="7.06881">
        <ele>1072.03</ele>
        <time>2021-09-12T11:47:43.000Z</time>
      </trkpt>
      <trkpt lat="48.09002" lon="7.06883">
        <ele>1071.02</ele>
        <time>2021-09-12T11:47:52.000Z</time>
      </trkpt>
      <trkpt lat="48.08994" lon="7.06879">
        <ele>1071.3</ele>
        <time>2021-09-12T11:48:01.000Z</time>
      </trkpt>
      <trkpt lat="48.08984" lon="7.06879">
        <ele>1069.29</ele>
        <time>2021-09-12T11:48:09.000Z</time>
      </trkpt>
      <trkpt lat="48.08975" lon="7.06877">
        <ele>1065.98</ele>
        <time>2021-09-12T11:48:17.000Z</time>
      </trkpt>
      <trkpt lat="48.08966" lon="7.06878">
        <ele>1062.88</ele>
        <time>2021-09-12T11:48:24.000Z</time>
      </trkpt>
      <trkpt lat="48.08956" lon="7.06876">
        <ele>1061.36</ele>
        <time>2021-09-12T11:48:35.000Z</time>
      </trkpt>
      <trkpt lat="48.08947" lon="7.06873">
        <ele>1060.27</ele>
        <time>2021-09-12T11:48:43.000Z</time>
      </trkpt>
      <trkpt lat="48.08937" lon="7.0687">
        <ele>1058.48</ele>
        <time>2021-09-12T11:48:50.000Z</time>
      </trkpt>
      <trkpt lat="48.08927" lon="7.06869">
        <ele>1055.94</ele>
        <time>2021-09-12T11:48:59.000Z</time>
      </trkpt>
      <trkpt lat="48.08918" lon="7.06866">
        <ele>1052.37</ele>
        <time>2021-09-12T11:49:10.000Z</time>
      </trkpt>
      <trkpt lat="48.08913" lon="7.06878">
        <ele>1047.14</ele>
        <time>2021-09-12T11:49:21.000Z</time>
      </trkpt>
      <trkpt lat="48.08906" lon="7.06887">
        <ele>1047.12</ele>
        <time>2021-09-12T11:49:30.000Z</time>
      </trkpt>
      <trkpt lat="48.08898" lon="7.06879">
        <ele>1050.24</ele>
        <time>2021-09-12T11:49:39.000Z</time>
      </trkpt>
      <trkpt lat="48.08899" lon="7.06865">
        <ele>1054.36</ele>
        <time>2021-09-12T11:49:50.000Z</time>
      </trkpt>
      <trkpt lat="48.08896" lon="7.06852">
        <ele>1054.87</ele>
        <time>2021-09-12T11:50:12.000Z</time>
      </trkpt>
      <trkpt lat="48.0889" lon="7.06841">
        <ele>1053.15</ele>
        <time>2021-09-12T11:50:22.000Z</time>
      </trkpt>
      <trkpt lat="48.08882" lon="7.06834">
        <ele>1051.87</ele>
        <time>2021-09-12T11:50:29.000Z</time>
      </trkpt>
      <trkpt lat="48.08874" lon="7.06827">
        <ele>1051.67</ele>
        <time>2021-09-12T11:50:37.000Z</time>
      </trkpt>
      <trkpt lat="48.08865" lon="7.06822">
        <ele>1050.21</ele>
        <time>2021-09-12T11:50:45.000Z</time>
      </trkpt>
      <trkpt lat="48.08856" lon="7.06819">
        <ele>1047.76</ele>
        <time>2021-09-12T11:50:54.000Z</time>
      </trkpt>
      <trkpt lat="48.08847" lon="7.06816">
        <ele>1046.45</ele>
        <time>2021-09-12T11:51:03.000Z</time>
      </trkpt>
      <trkpt lat="48.08838" lon="7.0681">
        <ele>1044.94</ele>
        <time>2021-09-12T11:51:10.000Z</time>
      </trkpt>
      <trkpt lat="48.08829" lon="7.06804">
        <ele>1043.16</ele>
        <time>2021-09-12T11:51:18.000Z</time>
      </trkpt>
      <trkpt lat="48.08822" lon="7.06796">
        <ele>1041.17</ele>
        <time>2021-09-12T11:51:26.000Z</time>
      </trkpt>
      <trkpt lat="48.08816" lon="7.06785">
        <ele>1037.21</ele>
        <time>2021-09-12T11:51:35.000Z</time>
      </trkpt>
      <trkpt lat="48.08808" lon="7.06775">
        <ele>1033.14</ele>
        <time>2021-09-12T11:51:43.000Z</time>
      </trkpt>
      <trkpt lat="48.08801" lon="7.06766">
        <ele>1030.21</ele>
        <time>2021-09-12T11:51:50.000Z</time>
      </trkpt>
      <trkpt lat="48.08795" lon="7.06755">
        <ele>1027.63</ele>
        <time>2021-09-12T11:51:57.000Z</time>
      </trkpt>
      <trkpt lat="48.08789" lon="7.06745">
        <ele>1024.67</ele>
        <time>2021-09-12T11:52:06.000Z</time>
      </trkpt>
      <trkpt lat="48.08782" lon="7.06734">
        <ele>1021.53</ele>
        <time>2021-09-12T11:52:17.000Z</time>
      </trkpt>
      <trkpt lat="48.08778" lon="7.06721">
        <ele>1019.1</ele>
        <time>2021-09-12T11:52:25.000Z</time>
      </trkpt>
      <trkpt lat="48.08773" lon="7.06709">
        <ele>1017.72</ele>
        <time>2021-09-12T11:52:32.000Z</time>
      </trkpt>
      <trkpt lat="48.08766" lon="7.067">
        <ele>1015.85</ele>
        <time>2021-09-12T11:52:43.000Z</time>
      </trkpt>
      <trkpt lat="48.0876" lon="7.06689">
        <ele>1016.1</ele>
        <time>2021-09-12T11:52:51.000Z</time>
      </trkpt>
      <trkpt lat="48.08753" lon="7.06679">
        <ele>1016.27</ele>
        <time>2021-09-12T11:53:00.000Z</time>
      </trkpt>
      <trkpt lat="48.0875" lon="7.06666">
        <ele>1017.85</ele>
        <time>2021-09-12T11:53:08.000Z</time>
      </trkpt>
      <trkpt lat="48.08752" lon="7.06653">
        <ele>1019.07</ele>
        <time>2021-09-12T11:53:16.000Z</time>
      </trkpt>
      <trkpt lat="48.08755" lon="7.06638">
        <ele>1019.38</ele>
        <time>2021-09-12T11:53:24.000Z</time>
      </trkpt>
      <trkpt lat="48.08761" lon="7.06628">
        <ele>1020.26</ele>
        <time>2021-09-12T11:53:30.000Z</time>
      </trkpt>
      <trkpt lat="48.08768" lon="7.06618">
        <ele>1020.98</ele>
        <time>2021-09-12T11:53:38.000Z</time>
      </trkpt>
      <trkpt lat="48.08777" lon="7.06616">
        <ele>1020.56</ele>
        <time>2021-09-12T11:53:52.000Z</time>
      </trkpt>
      <trkpt lat="48.08785" lon="7.06611">
        <ele>1018.75</ele>
        <time>2021-09-12T11:53:57.000Z</time>
      </trkpt>
      <trkpt lat="48.08794" lon="7.06605">
        <ele>1017.07</ele>
        <time>2021-09-12T11:54:04.000Z</time>
      </trkpt>
      <trkpt lat="48.08791" lon="7.0659">
        <ele>1018.53</ele>
        <time>2021-09-12T11:54:10.000Z</time>
      </trkpt>
      <trkpt lat="48.08786" lon="7.06578">
        <ele>1012.62</ele>
        <time>2021-09-12T11:54:23.000Z</time>
      </trkpt>
      <trkpt lat="48.08777" lon="7.0657">
        <ele>1010.39</ele>
        <time>2021-09-12T11:54:31.000Z</time>
      </trkpt>
      <trkpt lat="48.0877" lon="7.06562">
        <ele>1009.15</ele>
        <time>2021-09-12T11:54:38.000Z</time>
      </trkpt>
      <trkpt lat="48.08763" lon="7.06553">
        <ele>1008.54</ele>
        <time>2021-09-12T11:54:43.000Z</time>
      </trkpt>
      <trkpt lat="48.08755" lon="7.06544">
        <ele>1007.24</ele>
        <time>2021-09-12T11:54:50.000Z</time>
      </trkpt>
      <trkpt lat="48.0875" lon="7.06532">
        <ele>1006.6</ele>
        <time>2021-09-12T11:54:58.000Z</time>
      </trkpt>
      <trkpt lat="48.08743" lon="7.06522">
        <ele>1006.29</ele>
        <time>2021-09-12T11:55:06.000Z</time>
      </trkpt>
      <trkpt lat="48.08737" lon="7.06509">
        <ele>1005.84</ele>
        <time>2021-09-12T11:55:14.000Z</time>
      </trkpt>
      <trkpt lat="48.08734" lon="7.06495">
        <ele>1003.05</ele>
        <time>2021-09-12T11:55:24.000Z</time>
      </trkpt>
      <trkpt lat="48.0873" lon="7.06482">
        <ele>1000.5</ele>
        <time>2021-09-12T11:55:32.000Z</time>
      </trkpt>
      <trkpt lat="48.08726" lon="7.06469">
        <ele>999.5</ele>
        <time>2021-09-12T11:55:38.000Z</time>
      </trkpt>
      <trkpt lat="48.08722" lon="7.06456">
        <ele>999.71</ele>
        <time>2021-09-12T11:55:44.000Z</time>
      </trkpt>
      <trkpt lat="48.08719" lon="7.06443">
        <ele>1001.34</ele>
        <time>2021-09-12T11:55:51.000Z</time>
      </trkpt>
      <trkpt lat="48.08716" lon="7.06428">
        <ele>1002.02</ele>
        <time>2021-09-12T11:55:58.000Z</time>
      </trkpt>
      <trkpt lat="48.08714" lon="7.06415">
        <ele>1000.81</ele>
        <time>2021-09-12T11:56:06.000Z</time>
      </trkpt>
      <trkpt lat="48.08714" lon="7.06401">
        <ele>1000.75</ele>
        <time>2021-09-12T11:56:12.000Z</time>
      </trkpt>
      <trkpt lat="48.08714" lon="7.06387">
        <ele>999.91</ele>
        <time>2021-09-12T11:56:19.000Z</time>
      </trkpt>
      <trkpt lat="48.0871" lon="7.06374">
        <ele>998.14</ele>
        <time>2021-09-12T11:56:26.000Z</time>
      </trkpt>
      <trkpt lat="48.08706" lon="7.0636">
        <ele>997.68</ele>
        <time>2021-09-12T11:56:35.000Z</time>
      </trkpt>
      <trkpt lat="48.08702" lon="7.06347">
        <ele>997.13</ele>
        <time>2021-09-12T11:56:42.000Z</time>
      </trkpt>
      <trkpt lat="48.08697" lon="7.06335">
        <ele>995.21</ele>
        <time>2021-09-12T11:56:48.000Z</time>
      </trkpt>
      <trkpt lat="48.08693" lon="7.06322">
        <ele>994.37</ele>
        <time>2021-09-12T11:56:56.000Z</time>
      </trkpt>
      <trkpt lat="48.08686" lon="7.06311">
        <ele>994.33</ele>
        <time>2021-09-12T11:57:04.000Z</time>
      </trkpt>
      <trkpt lat="48.08676" lon="7.06308">
        <ele>992.2</ele>
        <time>2021-09-12T11:57:12.000Z</time>
      </trkpt>
      <trkpt lat="48.08665" lon="7.06311">
        <ele>991.88</ele>
        <time>2021-09-12T11:57:20.000Z</time>
      </trkpt>
      <trkpt lat="48.08659" lon="7.06302">
        <ele>994.91</ele>
        <time>2021-09-12T11:57:29.000Z</time>
      </trkpt>
      <trkpt lat="48.0865" lon="7.06297">
        <ele>995.7</ele>
        <time>2021-09-12T11:57:42.000Z</time>
      </trkpt>
      <trkpt lat="48.0864" lon="7.063">
        <ele>994.74</ele>
        <time>2021-09-12T11:57:50.000Z</time>
      </trkpt>
      <trkpt lat="48.08632" lon="7.06305">
        <ele>992.37</ele>
        <time>2021-09-12T11:58:02.000Z</time>
      </trkpt>
      <trkpt lat="48.08623" lon="7.06309">
        <ele>995.6</ele>
        <time>2021-09-12T11:58:11.000Z</time>
      </trkpt>
      <trkpt lat="48.08614" lon="7.06306">
        <ele>1003.69</ele>
        <time>2021-09-12T11:58:23.000Z</time>
      </trkpt>
      <trkpt lat="48.08608" lon="7.06294">
        <ele>1005.53</ele>
        <time>2021-09-12T11:58:32.000Z</time>
      </trkpt>
      <trkpt lat="48.08606" lon="7.0628">
        <ele>1006.76</ele>
        <time>2021-09-12T11:58:41.000Z</time>
      </trkpt>
      <trkpt lat="48.08602" lon="7.06266">
        <ele>1006.64</ele>
        <time>2021-09-12T11:58:48.000Z</time>
      </trkpt>
      <trkpt lat="48.08599" lon="7.06253">
        <ele>1006.91</ele>
        <time>2021-09-12T11:58:56.000Z</time>
      </trkpt>
      <trkpt lat="48.08602" lon="7.0624">
        <ele>1006.13</ele>
        <time>2021-09-12T11:59:04.000Z</time>
      </trkpt>
      <trkpt lat="48.08599" lon="7.06226">
        <ele>1005.24</ele>
        <time>2021-09-12T11:59:12.000Z</time>
      </trkpt>
      <trkpt lat="48.08597" lon="7.06213">
        <ele>1006.23</ele>
        <time>2021-09-12T11:59:25.000Z</time>
      </trkpt>
      <trkpt lat="48.08591" lon="7.06201">
        <ele>1003.79</ele>
        <time>2021-09-12T11:59:35.000Z</time>
      </trkpt>
      <trkpt lat="48.08586" lon="7.06189">
        <ele>1004.21</ele>
        <time>2021-09-12T11:59:40.000Z</time>
      </trkpt>
      <trkpt lat="48.0858" lon="7.06176">
        <ele>1003.47</ele>
        <time>2021-09-12T11:59:46.000Z</time>
      </trkpt>
      <trkpt lat="48.08576" lon="7.06164">
        <ele>1001.66</ele>
        <time>2021-09-12T11:59:54.000Z</time>
      </trkpt>
      <trkpt lat="48.0857" lon="7.06154">
        <ele>1000.62</ele>
        <time>2021-09-12T12:00:01.000Z</time>
      </trkpt>
      <trkpt lat="48.08563" lon="7.06143">
        <ele>1000.38</ele>
        <time>2021-09-12T12:00:11.000Z</time>
      </trkpt>
      <trkpt lat="48.08559" lon="7.06131">
        <ele>1001.28</ele>
        <time>2021-09-12T12:00:21.000Z</time>
      </trkpt>
      <trkpt lat="48.08551" lon="7.06121">
        <ele>1001.64</ele>
        <time>2021-09-12T12:00:29.000Z</time>
      </trkpt>
      <trkpt lat="48.08547" lon="7.06108">
        <ele>1002.69</ele>
        <time>2021-09-12T12:00:37.000Z</time>
      </trkpt>
      <trkpt lat="48.08544" lon="7.06093">
        <ele>1002.26</ele>
        <time>2021-09-12T12:00:44.000Z</time>
      </trkpt>
      <trkpt lat="48.0854" lon="7.06081">
        <ele>1001.79</ele>
        <time>2021-09-12T12:00:52.000Z</time>
      </trkpt>
      <trkpt lat="48.08539" lon="7.06066">
        <ele>1002.89</ele>
        <time>2021-09-12T12:01:01.000Z</time>
      </trkpt>
      <trkpt lat="48.08539" lon="7.06052">
        <ele>1000.9</ele>
        <time>2021-09-12T12:01:12.000Z</time>
      </trkpt>
      <trkpt lat="48.08538" lon="7.06038">
        <ele>1000.93</ele>
        <time>2021-09-12T12:01:20.000Z</time>
      </trkpt>
      <trkpt lat="48.0854" lon="7.06025">
        <ele>1002.35</ele>
        <time>2021-09-12T12:01:32.000Z</time>
      </trkpt>
      <trkpt lat="48.08538" lon="7.06011">
        <ele>1004.27</ele>
        <time>2021-09-12T12:01:41.000Z</time>
      </trkpt>
      <trkpt lat="48.08533" lon="7.05998">
        <ele>1005.44</ele>
        <time>2021-09-12T12:01:49.000Z</time>
      </trkpt>
      <trkpt lat="48.08528" lon="7.05987">
        <ele>1004.83</ele>
        <time>2021-09-12T12:01:58.000Z</time>
      </trkpt>
      <trkpt lat="48.08523" lon="7.05976">
        <ele>1004.57</ele>
        <time>2021-09-12T12:02:09.000Z</time>
      </trkpt>
      <trkpt lat="48.08513" lon="7.05976">
        <ele>1004.93</ele>
        <time>2021-09-12T12:02:25.000Z</time>
      </trkpt>
      <trkpt lat="48.08505" lon="7.05983">
        <ele>1005.76</ele>
        <time>2021-09-12T12:02:32.000Z</time>
      </trkpt>
      <trkpt lat="48.08495" lon="7.05982">
        <ele>1004.82</ele>
        <time>2021-09-12T12:02:43.000Z</time>
      </trkpt>
      <trkpt lat="48.08487" lon="7.0599">
        <ele>1004.71</ele>
        <time>2021-09-12T12:02:51.000Z</time>
      </trkpt>
      <trkpt lat="48.0848" lon="7.05997">
        <ele>1006.11</ele>
        <time>2021-09-12T12:03:00.000Z</time>
      </trkpt>
      <trkpt lat="48.0847" lon="7.05999">
        <ele>1007.77</ele>
        <time>2021-09-12T12:03:08.000Z</time>
      </trkpt>
      <trkpt lat="48.08461" lon="7.06002">
        <ele>1008.77</ele>
        <time>2021-09-12T12:03:17.000Z</time>
      </trkpt>
      <trkpt lat="48.08452" lon="7.05999">
        <ele>1010.46</ele>
        <time>2021-09-12T12:03:26.000Z</time>
      </trkpt>
      <trkpt lat="48.08443" lon="7.05995">
        <ele>1011.47</ele>
        <time>2021-09-12T12:03:35.000Z</time>
      </trkpt>
      <trkpt lat="48.08434" lon="7.05988">
        <ele>1012.82</ele>
        <time>2021-09-12T12:03:45.000Z</time>
      </trkpt>
      <trkpt lat="48.08425" lon="7.05983">
        <ele>1012.78</ele>
        <time>2021-09-12T12:03:52.000Z</time>
      </trkpt>
      <trkpt lat="48.08415" lon="7.05981">
        <ele>1014.14</ele>
        <time>2021-09-12T12:03:59.000Z</time>
      </trkpt>
      <trkpt lat="48.08407" lon="7.0599">
        <ele>1014.59</ele>
        <time>2021-09-12T12:04:10.000Z</time>
      </trkpt>
      <trkpt lat="48.084" lon="7.06">
        <ele>1014.07</ele>
        <time>2021-09-12T12:04:17.000Z</time>
      </trkpt>
      <trkpt lat="48.0839" lon="7.05999">
        <ele>1014.9</ele>
        <time>2021-09-12T12:04:24.000Z</time>
      </trkpt>
      <trkpt lat="48.08383" lon="7.05989">
        <ele>1016.38</ele>
        <time>2021-09-12T12:04:34.000Z</time>
      </trkpt>
      <trkpt lat="48.08376" lon="7.05979">
        <ele>1016.73</ele>
        <time>2021-09-12T12:04:42.000Z</time>
      </trkpt>
      <trkpt lat="48.08373" lon="7.05966">
        <ele>1017.08</ele>
        <time>2021-09-12T12:04:49.000Z</time>
      </trkpt>
      <trkpt lat="48.08373" lon="7.05952">
        <ele>1015.97</ele>
        <time>2021-09-12T12:05:00.000Z</time>
      </trkpt>
      <trkpt lat="48.08362" lon="7.05938">
        <ele>1038.27</ele>
        <time>2021-09-12T12:05:07.000Z</time>
      </trkpt>
      <trkpt lat="48.08361" lon="7.05924">
        <ele>1045.82</ele>
        <time>2021-09-12T12:05:14.000Z</time>
      </trkpt>
      <trkpt lat="48.08371" lon="7.05919">
        <ele>1034.49</ele>
        <time>2021-09-12T12:05:20.000Z</time>
      </trkpt>
      <trkpt lat="48.08375" lon="7.05907">
        <ele>1028.97</ele>
        <time>2021-09-12T12:05:26.000Z</time>
      </trkpt>
      <trkpt lat="48.08374" lon="7.05891">
        <ele>1023.02</ele>
        <time>2021-09-12T12:05:34.000Z</time>
      </trkpt>
      <trkpt lat="48.08372" lon="7.05876">
        <ele>1024.23</ele>
        <time>2021-09-12T12:05:41.000Z</time>
      </trkpt>
      <trkpt lat="48.08369" lon="7.05863">
        <ele>1026.6</ele>
        <time>2021-09-12T12:05:46.000Z</time>
      </trkpt>
      <trkpt lat="48.08365" lon="7.05851">
        <ele>1026.69</ele>
        <time>2021-09-12T12:05:55.000Z</time>
      </trkpt>
      <trkpt lat="48.08356" lon="7.05846">
        <ele>1025.06</ele>
        <time>2021-09-12T12:06:03.000Z</time>
      </trkpt>
      <trkpt lat="48.0835" lon="7.05836">
        <ele>1021.84</ele>
        <time>2021-09-12T12:06:12.000Z</time>
      </trkpt>
      <trkpt lat="48.08341" lon="7.0583">
        <ele>1019.12</ele>
        <time>2021-09-12T12:06:20.000Z</time>
      </trkpt>
      <trkpt lat="48.08331" lon="7.05827">
        <ele>1019.16</ele>
        <time>2021-09-12T12:06:28.000Z</time>
      </trkpt>
      <trkpt lat="48.08322" lon="7.05823">
        <ele>1020.18</ele>
        <time>2021-09-12T12:06:37.000Z</time>
      </trkpt>
      <trkpt lat="48.08317" lon="7.05812">
        <ele>1021.23</ele>
        <time>2021-09-12T12:06:46.000Z</time>
      </trkpt>
      <trkpt lat="48.0831" lon="7.05802">
        <ele>1021.73</ele>
        <time>2021-09-12T12:07:05.000Z</time>
      </trkpt>
      <trkpt lat="48.08307" lon="7.05789">
        <ele>1022.19</ele>
        <time>2021-09-12T12:07:19.000Z</time>
      </trkpt>
      <trkpt lat="48.08304" lon="7.05776">
        <ele>1022.67</ele>
        <time>2021-09-12T12:07:32.000Z</time>
      </trkpt>
      <trkpt lat="48.08301" lon="7.05763">
        <ele>1025.16</ele>
        <time>2021-09-12T12:07:48.000Z</time>
      </trkpt>
      <trkpt lat="48.08295" lon="7.05751">
        <ele>1025.34</ele>
        <time>2021-09-12T12:07:59.000Z</time>
      </trkpt>
      <trkpt lat="48.08292" lon="7.05738">
        <ele>1026.06</ele>
        <time>2021-09-12T12:08:13.000Z</time>
      </trkpt>
      <trkpt lat="48.08283" lon="7.05732">
        <ele>1025.09</ele>
        <time>2021-09-12T12:08:26.000Z</time>
      </trkpt>
      <trkpt lat="48.08274" lon="7.05732">
        <ele>1026.87</ele>
        <time>2021-09-12T12:08:38.000Z</time>
      </trkpt>
      <trkpt lat="48.08265" lon="7.05733">
        <ele>1031.84</ele>
        <time>2021-09-12T12:08:52.000Z</time>
      </trkpt>
      <trkpt lat="48.08256" lon="7.05738">
        <ele>1034.34</ele>
        <time>2021-09-12T12:09:06.000Z</time>
      </trkpt>
      <trkpt lat="48.08248" lon="7.05747">
        <ele>1036.37</ele>
        <time>2021-09-12T12:09:16.000Z</time>
      </trkpt>
      <trkpt lat="48.08239" lon="7.05749">
        <ele>1043.25</ele>
        <time>2021-09-12T12:09:29.000Z</time>
      </trkpt>
      <trkpt lat="48.0823" lon="7.05749">
        <ele>1049.39</ele>
        <time>2021-09-12T12:09:40.000Z</time>
      </trkpt>
      <trkpt lat="48.08221" lon="7.05748">
        <ele>1054.75</ele>
        <time>2021-09-12T12:09:53.000Z</time>
      </trkpt>
      <trkpt lat="48.08212" lon="7.05744">
        <ele>1055.86</ele>
        <time>2021-09-12T12:10:05.000Z</time>
      </trkpt>
      <trkpt lat="48.08204" lon="7.05737">
        <ele>1055.98</ele>
        <time>2021-09-12T12:10:17.000Z</time>
      </trkpt>
      <trkpt lat="48.08196" lon="7.0573">
        <ele>1054.66</ele>
        <time>2021-09-12T12:10:30.000Z</time>
      </trkpt>
      <trkpt lat="48.08189" lon="7.0572">
        <ele>1055.68</ele>
        <time>2021-09-12T12:10:44.000Z</time>
      </trkpt>
      <trkpt lat="48.08181" lon="7.05712">
        <ele>1055.61</ele>
        <time>2021-09-12T12:10:54.000Z</time>
      </trkpt>
      <trkpt lat="48.08173" lon="7.05705">
        <ele>1057.2</ele>
        <time>2021-09-12T12:11:04.000Z</time>
      </trkpt>
      <trkpt lat="48.08164" lon="7.05699">
        <ele>1056.41</ele>
        <time>2021-09-12T12:11:13.000Z</time>
      </trkpt>
      <trkpt lat="48.08154" lon="7.05696">
        <ele>1058.47</ele>
        <time>2021-09-12T12:11:22.000Z</time>
      </trkpt>
      <trkpt lat="48.08144" lon="7.05701">
        <ele>1056.89</ele>
        <time>2021-09-12T12:11:31.000Z</time>
      </trkpt>
      <trkpt lat="48.08135" lon="7.05702">
        <ele>1056.66</ele>
        <time>2021-09-12T12:11:42.000Z</time>
      </trkpt>
      <trkpt lat="48.08126" lon="7.05703">
        <ele>1056.03</ele>
        <time>2021-09-12T12:11:50.000Z</time>
      </trkpt>
      <trkpt lat="48.08116" lon="7.05707">
        <ele>1054.74</ele>
        <time>2021-09-12T12:11:58.000Z</time>
      </trkpt>
      <trkpt lat="48.08107" lon="7.05711">
        <ele>1053.04</ele>
        <time>2021-09-12T12:12:03.000Z</time>
      </trkpt>
      <trkpt lat="48.08099" lon="7.05719">
        <ele>1052.62</ele>
        <time>2021-09-12T12:12:10.000Z</time>
      </trkpt>
      <trkpt lat="48.0809" lon="7.05726">
        <ele>1050.33</ele>
        <time>2021-09-12T12:12:29.000Z</time>
      </trkpt>
      <trkpt lat="48.08083" lon="7.05735">
        <ele>1049.8</ele>
        <time>2021-09-12T12:12:39.000Z</time>
      </trkpt>
      <trkpt lat="48.08078" lon="7.05747">
        <ele>1049.27</ele>
        <time>2021-09-12T12:12:47.000Z</time>
      </trkpt>
      <trkpt lat="48.08073" lon="7.05758">
        <ele>1047.89</ele>
        <time>2021-09-12T12:12:55.000Z</time>
      </trkpt>
      <trkpt lat="48.08067" lon="7.05769">
        <ele>1046.57</ele>
        <time>2021-09-12T12:13:07.000Z</time>
      </trkpt>
      <trkpt lat="48.08058" lon="7.0577">
        <ele>1047.78</ele>
        <time>2021-09-12T12:13:17.000Z</time>
      </trkpt>
      <trkpt lat="48.0805" lon="7.05776">
        <ele>1049.93</ele>
        <time>2021-09-12T12:13:29.000Z</time>
      </trkpt>
      <trkpt lat="48.08044" lon="7.05787">
        <ele>1054.33</ele>
        <time>2021-09-12T12:13:45.000Z</time>
      </trkpt>
      <trkpt lat="48.08038" lon="7.05797">
        <ele>1058.77</ele>
        <time>2021-09-12T12:13:58.000Z</time>
      </trkpt>
      <trkpt lat="48.08033" lon="7.05808">
        <ele>1065.65</ele>
        <time>2021-09-12T12:14:10.000Z</time>
      </trkpt>
      <trkpt lat="48.08025" lon="7.05815">
        <ele>1069.93</ele>
        <time>2021-09-12T12:14:20.000Z</time>
      </trkpt>
      <trkpt lat="48.08016" lon="7.05823">
        <ele>1074.77</ele>
        <time>2021-09-12T12:14:30.000Z</time>
      </trkpt>
      <trkpt lat="48.08008" lon="7.05827">
        <ele>1071.44</ele>
        <time>2021-09-12T12:14:40.000Z</time>
      </trkpt>
      <trkpt lat="48.07997" lon="7.05828">
        <ele>1069.2</ele>
        <time>2021-09-12T12:14:50.000Z</time>
      </trkpt>
      <trkpt lat="48.07988" lon="7.0583">
        <ele>1069.03</ele>
        <time>2021-09-12T12:14:59.000Z</time>
      </trkpt>
      <trkpt lat="48.07981" lon="7.0582">
        <ele>1066.75</ele>
        <time>2021-09-12T12:15:09.000Z</time>
      </trkpt>
      <trkpt lat="48.07973" lon="7.05814">
        <ele>1066</ele>
        <time>2021-09-12T12:15:17.000Z</time>
      </trkpt>
      <trkpt lat="48.07965" lon="7.05806">
        <ele>1065.41</ele>
        <time>2021-09-12T12:15:26.000Z</time>
      </trkpt>
      <trkpt lat="48.0796" lon="7.05794">
        <ele>1069.68</ele>
        <time>2021-09-12T12:15:34.000Z</time>
      </trkpt>
      <trkpt lat="48.07955" lon="7.05782">
        <ele>1075.74</ele>
        <time>2021-09-12T12:15:42.000Z</time>
      </trkpt>
      <trkpt lat="48.07947" lon="7.05773">
        <ele>1076.55</ele>
        <time>2021-09-12T12:15:52.000Z</time>
      </trkpt>
      <trkpt lat="48.07946" lon="7.05759">
        <ele>1074.3</ele>
        <time>2021-09-12T12:15:59.000Z</time>
      </trkpt>
      <trkpt lat="48.07943" lon="7.05746">
        <ele>1078.38</ele>
        <time>2021-09-12T12:16:07.000Z</time>
      </trkpt>
      <trkpt lat="48.07942" lon="7.05732">
        <ele>1085.84</ele>
        <time>2021-09-12T12:16:17.000Z</time>
      </trkpt>
      <trkpt lat="48.07936" lon="7.0572">
        <ele>1091.02</ele>
        <time>2021-09-12T12:16:25.000Z</time>
      </trkpt>
      <trkpt lat="48.07935" lon="7.05706">
        <ele>1094.16</ele>
        <time>2021-09-12T12:16:35.000Z</time>
      </trkpt>
      <trkpt lat="48.07933" lon="7.05693">
        <ele>1093.79</ele>
        <time>2021-09-12T12:16:43.000Z</time>
      </trkpt>
      <trkpt lat="48.0793" lon="7.05678">
        <ele>1094.08</ele>
        <time>2021-09-12T12:16:52.000Z</time>
      </trkpt>
      <trkpt lat="48.07927" lon="7.05664">
        <ele>1095.35</ele>
        <time>2021-09-12T12:17:02.000Z</time>
      </trkpt>
      <trkpt lat="48.07921" lon="7.05653">
        <ele>1096.99</ele>
        <time>2021-09-12T12:17:10.000Z</time>
      </trkpt>
      <trkpt lat="48.0792" lon="7.05639">
        <ele>1096.94</ele>
        <time>2021-09-12T12:17:18.000Z</time>
      </trkpt>
      <trkpt lat="48.07919" lon="7.05626">
        <ele>1097.1</ele>
        <time>2021-09-12T12:17:26.000Z</time>
      </trkpt>
      <trkpt lat="48.07914" lon="7.05613">
        <ele>1095.9</ele>
        <time>2021-09-12T12:17:34.000Z</time>
      </trkpt>
      <trkpt lat="48.07911" lon="7.05601">
        <ele>1093.97</ele>
        <time>2021-09-12T12:17:42.000Z</time>
      </trkpt>
      <trkpt lat="48.07909" lon="7.05587">
        <ele>1092.85</ele>
        <time>2021-09-12T12:17:53.000Z</time>
      </trkpt>
      <trkpt lat="48.07904" lon="7.05575">
        <ele>1094.05</ele>
        <time>2021-09-12T12:18:01.000Z</time>
      </trkpt>
      <trkpt lat="48.07899" lon="7.05564">
        <ele>1095.09</ele>
        <time>2021-09-12T12:18:11.000Z</time>
      </trkpt>
      <trkpt lat="48.07895" lon="7.05551">
        <ele>1095.9</ele>
        <time>2021-09-12T12:18:20.000Z</time>
      </trkpt>
      <trkpt lat="48.07894" lon="7.05537">
        <ele>1097.24</ele>
        <time>2021-09-12T12:18:29.000Z</time>
      </trkpt>
      <trkpt lat="48.07891" lon="7.05523">
        <ele>1097.6</ele>
        <time>2021-09-12T12:18:37.000Z</time>
      </trkpt>
      <trkpt lat="48.07889" lon="7.05509">
        <ele>1099.67</ele>
        <time>2021-09-12T12:18:46.000Z</time>
      </trkpt>
      <trkpt lat="48.07885" lon="7.05496">
        <ele>1101.18</ele>
        <time>2021-09-12T12:18:54.000Z</time>
      </trkpt>
      <trkpt lat="48.0788" lon="7.05484">
        <ele>1102.37</ele>
        <time>2021-09-12T12:19:04.000Z</time>
      </trkpt>
      <trkpt lat="48.07878" lon="7.05471">
        <ele>1103.39</ele>
        <time>2021-09-12T12:19:13.000Z</time>
      </trkpt>
      <trkpt lat="48.07871" lon="7.0546">
        <ele>1101.88</ele>
        <time>2021-09-12T12:19:21.000Z</time>
      </trkpt>
      <trkpt lat="48.07862" lon="7.0545">
        <ele>1105.12</ele>
        <time>2021-09-12T12:19:29.000Z</time>
      </trkpt>
      <trkpt lat="48.0786" lon="7.05436">
        <ele>1104.44</ele>
        <time>2021-09-12T12:19:38.000Z</time>
      </trkpt>
      <trkpt lat="48.0786" lon="7.05422">
        <ele>1104.45</ele>
        <time>2021-09-12T12:19:46.000Z</time>
      </trkpt>
      <trkpt lat="48.07858" lon="7.05408">
        <ele>1106.99</ele>
        <time>2021-09-12T12:19:55.000Z</time>
      </trkpt>
      <trkpt lat="48.07853" lon="7.05396">
        <ele>1108.43</ele>
        <time>2021-09-12T12:20:03.000Z</time>
      </trkpt>
      <trkpt lat="48.0785" lon="7.05383">
        <ele>1107.99</ele>
        <time>2021-09-12T12:20:16.000Z</time>
      </trkpt>
      <trkpt lat="48.07845" lon="7.05372">
        <ele>1108.54</ele>
        <time>2021-09-12T12:20:25.000Z</time>
      </trkpt>
      <trkpt lat="48.07842" lon="7.05357">
        <ele>1107.35</ele>
        <time>2021-09-12T12:20:37.000Z</time>
      </trkpt>
      <trkpt lat="48.07844" lon="7.05344">
        <ele>1108</ele>
        <time>2021-09-12T12:20:44.000Z</time>
      </trkpt>
      <trkpt lat="48.07842" lon="7.0533">
        <ele>1110.98</ele>
        <time>2021-09-12T12:20:52.000Z</time>
      </trkpt>
      <trkpt lat="48.0784" lon="7.05317">
        <ele>1113.42</ele>
        <time>2021-09-12T12:21:01.000Z</time>
      </trkpt>
      <trkpt lat="48.07842" lon="7.05302">
        <ele>1111.6</ele>
        <time>2021-09-12T12:21:12.000Z</time>
      </trkpt>
      <trkpt lat="48.0784" lon="7.05289">
        <ele>1111.39</ele>
        <time>2021-09-12T12:21:19.000Z</time>
      </trkpt>
      <trkpt lat="48.07843" lon="7.05276">
        <ele>1111.18</ele>
        <time>2021-09-12T12:21:29.000Z</time>
      </trkpt>
      <trkpt lat="48.07843" lon="7.05261">
        <ele>1116.52</ele>
        <time>2021-09-12T12:21:39.000Z</time>
      </trkpt>
      <trkpt lat="48.07841" lon="7.05247">
        <ele>1115.64</ele>
        <time>2021-09-12T12:21:46.000Z</time>
      </trkpt>
      <trkpt lat="48.07843" lon="7.05233">
        <ele>1116.07</ele>
        <time>2021-09-12T12:21:55.000Z</time>
      </trkpt>
      <trkpt lat="48.07838" lon="7.05222">
        <ele>1118.37</ele>
        <time>2021-09-12T12:22:06.000Z</time>
      </trkpt>
      <trkpt lat="48.0784" lon="7.05207">
        <ele>1116.74</ele>
        <time>2021-09-12T12:22:12.000Z</time>
      </trkpt>
      <trkpt lat="48.0784" lon="7.05192">
        <ele>1116.1</ele>
        <time>2021-09-12T12:22:23.000Z</time>
      </trkpt>
      <trkpt lat="48.07837" lon="7.05179">
        <ele>1119.66</ele>
        <time>2021-09-12T12:22:31.000Z</time>
      </trkpt>
      <trkpt lat="48.07833" lon="7.05167">
        <ele>1121.64</ele>
        <time>2021-09-12T12:22:38.000Z</time>
      </trkpt>
      <trkpt lat="48.07828" lon="7.05155">
        <ele>1122.93</ele>
        <time>2021-09-12T12:22:44.000Z</time>
      </trkpt>
      <trkpt lat="48.07823" lon="7.05144">
        <ele>1123.36</ele>
        <time>2021-09-12T12:22:49.000Z</time>
      </trkpt>
      <trkpt lat="48.07815" lon="7.05134">
        <ele>1123.12</ele>
        <time>2021-09-12T12:22:57.000Z</time>
      </trkpt>
      <trkpt lat="48.07807" lon="7.05125">
        <ele>1121.69</ele>
        <time>2021-09-12T12:23:06.000Z</time>
      </trkpt>
      <trkpt lat="48.07799" lon="7.05118">
        <ele>1121.59</ele>
        <time>2021-09-12T12:23:13.000Z</time>
      </trkpt>
      <trkpt lat="48.0779" lon="7.05113">
        <ele>1121.87</ele>
        <time>2021-09-12T12:23:21.000Z</time>
      </trkpt>
      <trkpt lat="48.0778" lon="7.0511">
        <ele>1121.36</ele>
        <time>2021-09-12T12:23:29.000Z</time>
      </trkpt>
      <trkpt lat="48.07771" lon="7.05104">
        <ele>1120.48</ele>
        <time>2021-09-12T12:23:38.000Z</time>
      </trkpt>
      <trkpt lat="48.07762" lon="7.05099">
        <ele>1118.33</ele>
        <time>2021-09-12T12:23:44.000Z</time>
      </trkpt>
      <trkpt lat="48.07754" lon="7.05092">
        <ele>1119.13</ele>
        <time>2021-09-12T12:23:52.000Z</time>
      </trkpt>
      <trkpt lat="48.07746" lon="7.05083">
        <ele>1116.56</ele>
        <time>2021-09-12T12:24:00.000Z</time>
      </trkpt>
      <trkpt lat="48.07739" lon="7.05074">
        <ele>1113.67</ele>
        <time>2021-09-12T12:24:08.000Z</time>
      </trkpt>
      <trkpt lat="48.07732" lon="7.05065">
        <ele>1113.55</ele>
        <time>2021-09-12T12:24:14.000Z</time>
      </trkpt>
      <trkpt lat="48.07726" lon="7.05054">
        <ele>1114.58</ele>
        <time>2021-09-12T12:24:21.000Z</time>
      </trkpt>
      <trkpt lat="48.07718" lon="7.05044">
        <ele>1114.18</ele>
        <time>2021-09-12T12:24:29.000Z</time>
      </trkpt>
      <trkpt lat="48.07712" lon="7.05034">
        <ele>1112.86</ele>
        <time>2021-09-12T12:24:35.000Z</time>
      </trkpt>
      <trkpt lat="48.07704" lon="7.05026">
        <ele>1112.21</ele>
        <time>2021-09-12T12:24:42.000Z</time>
      </trkpt>
      <trkpt lat="48.07698" lon="7.05015">
        <ele>1112.15</ele>
        <time>2021-09-12T12:24:50.000Z</time>
      </trkpt>
      <trkpt lat="48.07691" lon="7.05005">
        <ele>1112.67</ele>
        <time>2021-09-12T12:24:57.000Z</time>
      </trkpt>
      <trkpt lat="48.07685" lon="7.04993">
        <ele>1113.95</ele>
        <time>2021-09-12T12:25:05.000Z</time>
      </trkpt>
      <trkpt lat="48.0768" lon="7.0498">
        <ele>1113.35</ele>
        <time>2021-09-12T12:25:14.000Z</time>
      </trkpt>
      <trkpt lat="48.07676" lon="7.04967">
        <ele>1112.54</ele>
        <time>2021-09-12T12:25:22.000Z</time>
      </trkpt>
      <trkpt lat="48.07671" lon="7.04954">
        <ele>1109.67</ele>
        <time>2021-09-12T12:25:36.000Z</time>
      </trkpt>
      <trkpt lat="48.07667" lon="7.04941">
        <ele>1109.4</ele>
        <time>2021-09-12T12:25:45.000Z</time>
      </trkpt>
      <trkpt lat="48.07663" lon="7.04928">
        <ele>1108.97</ele>
        <time>2021-09-12T12:25:53.000Z</time>
      </trkpt>
      <trkpt lat="48.0766" lon="7.04915">
        <ele>1108.66</ele>
        <time>2021-09-12T12:26:01.000Z</time>
      </trkpt>
      <trkpt lat="48.07656" lon="7.04901">
        <ele>1108.97</ele>
        <time>2021-09-12T12:26:08.000Z</time>
      </trkpt>
      <trkpt lat="48.0765" lon="7.04888">
        <ele>1107.45</ele>
        <time>2021-09-12T12:26:15.000Z</time>
      </trkpt>
      <trkpt lat="48.07647" lon="7.04875">
        <ele>1104.33</ele>
        <time>2021-09-12T12:26:23.000Z</time>
      </trkpt>
      <trkpt lat="48.07642" lon="7.04861">
        <ele>1102.18</ele>
        <time>2021-09-12T12:26:32.000Z</time>
      </trkpt>
      <trkpt lat="48.07638" lon="7.04848">
        <ele>1100.41</ele>
        <time>2021-09-12T12:26:40.000Z</time>
      </trkpt>
      <trkpt lat="48.07635" lon="7.04834">
        <ele>1100.35</ele>
        <time>2021-09-12T12:26:48.000Z</time>
      </trkpt>
      <trkpt lat="48.07631" lon="7.0482">
        <ele>1099.42</ele>
        <time>2021-09-12T12:26:55.000Z</time>
      </trkpt>
      <trkpt lat="48.07629" lon="7.04807">
        <ele>1098.28</ele>
        <time>2021-09-12T12:27:03.000Z</time>
      </trkpt>
      <trkpt lat="48.07628" lon="7.04792">
        <ele>1097.54</ele>
        <time>2021-09-12T12:27:11.000Z</time>
      </trkpt>
      <trkpt lat="48.07626" lon="7.04778">
        <ele>1096.84</ele>
        <time>2021-09-12T12:27:18.000Z</time>
      </trkpt>
      <trkpt lat="48.07623" lon="7.04766">
        <ele>1096.09</ele>
        <time>2021-09-12T12:27:25.000Z</time>
      </trkpt>
      <trkpt lat="48.07618" lon="7.04753">
        <ele>1094.85</ele>
        <time>2021-09-12T12:27:35.000Z</time>
      </trkpt>
      <trkpt lat="48.07617" lon="7.0474">
        <ele>1096.18</ele>
        <time>2021-09-12T12:27:41.000Z</time>
      </trkpt>
      <trkpt lat="48.07613" lon="7.04727">
        <ele>1095.84</ele>
        <time>2021-09-12T12:27:49.000Z</time>
      </trkpt>
      <trkpt lat="48.07612" lon="7.04713">
        <ele>1097.71</ele>
        <time>2021-09-12T12:27:56.000Z</time>
      </trkpt>
      <trkpt lat="48.07616" lon="7.04701">
        <ele>1095.66</ele>
        <time>2021-09-12T12:28:04.000Z</time>
      </trkpt>
      <trkpt lat="48.07624" lon="7.04694">
        <ele>1092.47</ele>
        <time>2021-09-12T12:28:13.000Z</time>
      </trkpt>
      <trkpt lat="48.07617" lon="7.04685">
        <ele>1089.63</ele>
        <time>2021-09-12T12:29:04.000Z</time>
      </trkpt>
      <trkpt lat="48.07613" lon="7.04671">
        <ele>1090.86</ele>
        <time>2021-09-12T12:29:10.000Z</time>
      </trkpt>
      <trkpt lat="48.07612" lon="7.04658">
        <ele>1090.53</ele>
        <time>2021-09-12T12:29:18.000Z</time>
      </trkpt>
      <trkpt lat="48.07613" lon="7.04642">
        <ele>1088.59</ele>
        <time>2021-09-12T12:29:26.000Z</time>
      </trkpt>
      <trkpt lat="48.07613" lon="7.04629">
        <ele>1087.49</ele>
        <time>2021-09-12T12:29:32.000Z</time>
      </trkpt>
      <trkpt lat="48.07616" lon="7.04615">
        <ele>1087</ele>
        <time>2021-09-12T12:29:50.000Z</time>
      </trkpt>
      <trkpt lat="48.07614" lon="7.04601">
        <ele>1087.31</ele>
        <time>2021-09-12T12:29:58.000Z</time>
      </trkpt>
      <trkpt lat="48.07616" lon="7.04588">
        <ele>1085.6</ele>
        <time>2021-09-12T12:30:07.000Z</time>
      </trkpt>
      <trkpt lat="48.07617" lon="7.04574">
        <ele>1084.88</ele>
        <time>2021-09-12T12:30:17.000Z</time>
      </trkpt>
      <trkpt lat="48.07618" lon="7.0456">
        <ele>1084.96</ele>
        <time>2021-09-12T12:30:24.000Z</time>
      </trkpt>
      <trkpt lat="48.07618" lon="7.04546">
        <ele>1083.63</ele>
        <time>2021-09-12T12:30:33.000Z</time>
      </trkpt>
      <trkpt lat="48.07617" lon="7.04531">
        <ele>1081.91</ele>
        <time>2021-09-12T12:30:41.000Z</time>
      </trkpt>
      <trkpt lat="48.07619" lon="7.04517">
        <ele>1078.73</ele>
        <time>2021-09-12T12:30:49.000Z</time>
      </trkpt>
      <trkpt lat="48.0762" lon="7.04503">
        <ele>1076.26</ele>
        <time>2021-09-12T12:30:56.000Z</time>
      </trkpt>
      <trkpt lat="48.07621" lon="7.04488">
        <ele>1074.11</ele>
        <time>2021-09-12T12:31:05.000Z</time>
      </trkpt>
      <trkpt lat="48.07623" lon="7.04475">
        <ele>1072.5</ele>
        <time>2021-09-12T12:31:12.000Z</time>
      </trkpt>
      <trkpt lat="48.07627" lon="7.04462">
        <ele>1071.89</ele>
        <time>2021-09-12T12:31:18.000Z</time>
      </trkpt>
      <trkpt lat="48.0763" lon="7.04449">
        <ele>1070.93</ele>
        <time>2021-09-12T12:31:26.000Z</time>
      </trkpt>
      <trkpt lat="48.07631" lon="7.04435">
        <ele>1073.3</ele>
        <time>2021-09-12T12:31:35.000Z</time>
      </trkpt>
      <trkpt lat="48.07631" lon="7.04421">
        <ele>1073.38</ele>
        <time>2021-09-12T12:31:42.000Z</time>
      </trkpt>
      <trkpt lat="48.07635" lon="7.04407">
        <ele>1072.09</ele>
        <time>2021-09-12T12:31:50.000Z</time>
      </trkpt>
      <trkpt lat="48.07636" lon="7.04394">
        <ele>1071.98</ele>
        <time>2021-09-12T12:32:01.000Z</time>
      </trkpt>
      <trkpt lat="48.07638" lon="7.0438">
        <ele>1071.83</ele>
        <time>2021-09-12T12:32:09.000Z</time>
      </trkpt>
      <trkpt lat="48.07642" lon="7.04366">
        <ele>1070.37</ele>
        <time>2021-09-12T12:32:18.000Z</time>
      </trkpt>
      <trkpt lat="48.07644" lon="7.04353">
        <ele>1068.96</ele>
        <time>2021-09-12T12:32:25.000Z</time>
      </trkpt>
      <trkpt lat="48.07647" lon="7.04339">
        <ele>1068.18</ele>
        <time>2021-09-12T12:32:32.000Z</time>
      </trkpt>
      <trkpt lat="48.07645" lon="7.04326">
        <ele>1068.54</ele>
        <time>2021-09-12T12:32:39.000Z</time>
      </trkpt>
      <trkpt lat="48.07644" lon="7.04312">
        <ele>1069.71</ele>
        <time>2021-09-12T12:32:47.000Z</time>
      </trkpt>
      <trkpt lat="48.07642" lon="7.04298">
        <ele>1070.53</ele>
        <time>2021-09-12T12:32:54.000Z</time>
      </trkpt>
      <trkpt lat="48.07639" lon="7.04283">
        <ele>1068.99</ele>
        <time>2021-09-12T12:33:02.000Z</time>
      </trkpt>
      <trkpt lat="48.07632" lon="7.04272">
        <ele>1068.05</ele>
        <time>2021-09-12T12:33:11.000Z</time>
      </trkpt>
      <trkpt lat="48.07626" lon="7.04262">
        <ele>1067.49</ele>
        <time>2021-09-12T12:33:16.000Z</time>
      </trkpt>
      <trkpt lat="48.07621" lon="7.0425">
        <ele>1068.01</ele>
        <time>2021-09-12T12:33:22.000Z</time>
      </trkpt>
      <trkpt lat="48.07617" lon="7.04237">
        <ele>1069.85</ele>
        <time>2021-09-12T12:33:30.000Z</time>
      </trkpt>
      <trkpt lat="48.07609" lon="7.04231">
        <ele>1069.95</ele>
        <time>2021-09-12T12:33:44.000Z</time>
      </trkpt>
      <trkpt lat="48.076" lon="7.04226">
        <ele>1073.15</ele>
        <time>2021-09-12T12:33:59.000Z</time>
      </trkpt>
      <trkpt lat="48.07594" lon="7.04214">
        <ele>1073.97</ele>
        <time>2021-09-12T12:34:06.000Z</time>
      </trkpt>
      <trkpt lat="48.07589" lon="7.04202">
        <ele>1074.58</ele>
        <time>2021-09-12T12:34:15.000Z</time>
      </trkpt>
      <trkpt lat="48.0758" lon="7.04207">
        <ele>1069.58</ele>
        <time>2021-09-12T12:35:23.000Z</time>
      </trkpt>
      <trkpt lat="48.07587" lon="7.04216">
        <ele>1066.17</ele>
        <time>2021-09-12T12:35:41.000Z</time>
      </trkpt>
      <trkpt lat="48.0758" lon="7.04206">
        <ele>1064.25</ele>
        <time>2021-09-12T12:35:51.000Z</time>
      </trkpt>
      <trkpt lat="48.07588" lon="7.04196">
        <ele>1068.33</ele>
        <time>2021-09-12T12:38:32.000Z</time>
      </trkpt>
      <trkpt lat="48.0758" lon="7.04199">
        <ele>1070.69</ele>
        <time>2021-09-12T12:40:19.000Z</time>
      </trkpt>
      <trkpt lat="48.0757" lon="7.04189">
        <ele>1063.06</ele>
        <time>2021-09-12T12:41:32.000Z</time>
      </trkpt>
      <trkpt lat="48.07578" lon="7.04198">
        <ele>1063.01</ele>
        <time>2021-09-12T12:41:54.000Z</time>
      </trkpt>
      <trkpt lat="48.0758" lon="7.04185">
        <ele>1057.5</ele>
        <time>2021-09-12T12:43:39.000Z</time>
      </trkpt>
      <trkpt lat="48.07577" lon="7.04172">
        <ele>1060.11</ele>
        <time>2021-09-12T12:43:58.000Z</time>
      </trkpt>
      <trkpt lat="48.07572" lon="7.04159">
        <ele>1060.25</ele>
        <time>2021-09-12T12:44:08.000Z</time>
      </trkpt>
      <trkpt lat="48.07567" lon="7.04148">
        <ele>1058.89</ele>
        <time>2021-09-12T12:44:18.000Z</time>
      </trkpt>
      <trkpt lat="48.07558" lon="7.04144">
        <ele>1058.74</ele>
        <time>2021-09-12T12:44:27.000Z</time>
      </trkpt>
      <trkpt lat="48.07549" lon="7.04136">
        <ele>1059.36</ele>
        <time>2021-09-12T12:44:33.000Z</time>
      </trkpt>
      <trkpt lat="48.0754" lon="7.04134">
        <ele>1057.15</ele>
        <time>2021-09-12T12:44:43.000Z</time>
      </trkpt>
      <trkpt lat="48.0753" lon="7.04134">
        <ele>1057.9</ele>
        <time>2021-09-12T12:44:57.000Z</time>
      </trkpt>
      <trkpt lat="48.07521" lon="7.04139">
        <ele>1057.34</ele>
        <time>2021-09-12T12:45:06.000Z</time>
      </trkpt>
      <trkpt lat="48.07511" lon="7.04139">
        <ele>1056.6</ele>
        <time>2021-09-12T12:45:24.000Z</time>
      </trkpt>
      <trkpt lat="48.07504" lon="7.0413">
        <ele>1060.69</ele>
        <time>2021-09-12T12:45:34.000Z</time>
      </trkpt>
      <trkpt lat="48.07494" lon="7.04124">
        <ele>1062.51</ele>
        <time>2021-09-12T12:45:43.000Z</time>
      </trkpt>
      <trkpt lat="48.07486" lon="7.04115">
        <ele>1062.31</ele>
        <time>2021-09-12T12:45:51.000Z</time>
      </trkpt>
      <trkpt lat="48.07477" lon="7.0411">
        <ele>1062</ele>
        <time>2021-09-12T12:46:01.000Z</time>
      </trkpt>
      <trkpt lat="48.07467" lon="7.0411">
        <ele>1062.02</ele>
        <time>2021-09-12T12:46:08.000Z</time>
      </trkpt>
      <trkpt lat="48.07458" lon="7.04111">
        <ele>1062</ele>
        <time>2021-09-12T12:46:13.000Z</time>
      </trkpt>
      <trkpt lat="48.0745" lon="7.04117">
        <ele>1060.97</ele>
        <time>2021-09-12T12:46:19.000Z</time>
      </trkpt>
      <trkpt lat="48.07441" lon="7.0412">
        <ele>1061.96</ele>
        <time>2021-09-12T12:46:27.000Z</time>
      </trkpt>
      <trkpt lat="48.07432" lon="7.04126">
        <ele>1061.96</ele>
        <time>2021-09-12T12:46:37.000Z</time>
      </trkpt>
      <trkpt lat="48.07423" lon="7.04128">
        <ele>1061.24</ele>
        <time>2021-09-12T12:46:47.000Z</time>
      </trkpt>
      <trkpt lat="48.07413" lon="7.04124">
        <ele>1061.26</ele>
        <time>2021-09-12T12:46:55.000Z</time>
      </trkpt>
      <trkpt lat="48.07403" lon="7.04122">
        <ele>1061.68</ele>
        <time>2021-09-12T12:47:04.000Z</time>
      </trkpt>
      <trkpt lat="48.07393" lon="7.04119">
        <ele>1061.01</ele>
        <time>2021-09-12T12:47:14.000Z</time>
      </trkpt>
      <trkpt lat="48.07384" lon="7.04116">
        <ele>1061.13</ele>
        <time>2021-09-12T12:47:22.000Z</time>
      </trkpt>
      <trkpt lat="48.07377" lon="7.04106">
        <ele>1057.45</ele>
        <time>2021-09-12T12:47:30.000Z</time>
      </trkpt>
      <trkpt lat="48.07369" lon="7.04097">
        <ele>1054.1</ele>
        <time>2021-09-12T12:47:39.000Z</time>
      </trkpt>
      <trkpt lat="48.07363" lon="7.04087">
        <ele>1052.03</ele>
        <time>2021-09-12T12:47:48.000Z</time>
      </trkpt>
      <trkpt lat="48.07356" lon="7.04076">
        <ele>1050.67</ele>
        <time>2021-09-12T12:47:56.000Z</time>
      </trkpt>
      <trkpt lat="48.07351" lon="7.04065">
        <ele>1048.25</ele>
        <time>2021-09-12T12:48:04.000Z</time>
      </trkpt>
      <trkpt lat="48.07346" lon="7.04053">
        <ele>1045.97</ele>
        <time>2021-09-12T12:48:12.000Z</time>
      </trkpt>
      <trkpt lat="48.07342" lon="7.04041">
        <ele>1045.04</ele>
        <time>2021-09-12T12:48:22.000Z</time>
      </trkpt>
      <trkpt lat="48.07333" lon="7.04034">
        <ele>1044.84</ele>
        <time>2021-09-12T12:48:32.000Z</time>
      </trkpt>
      <trkpt lat="48.07323" lon="7.04033">
        <ele>1047.15</ele>
        <time>2021-09-12T12:48:40.000Z</time>
      </trkpt>
      <trkpt lat="48.07313" lon="7.04031">
        <ele>1047.85</ele>
        <time>2021-09-12T12:48:48.000Z</time>
      </trkpt>
      <trkpt lat="48.07303" lon="7.04028">
        <ele>1048.99</ele>
        <time>2021-09-12T12:48:56.000Z</time>
      </trkpt>
      <trkpt lat="48.07295" lon="7.04022">
        <ele>1050.04</ele>
        <time>2021-09-12T12:49:06.000Z</time>
      </trkpt>
      <trkpt lat="48.07285" lon="7.04019">
        <ele>1049.17</ele>
        <time>2021-09-12T12:49:13.000Z</time>
      </trkpt>
      <trkpt lat="48.07276" lon="7.04012">
        <ele>1045.79</ele>
        <time>2021-09-12T12:49:24.000Z</time>
      </trkpt>
      <trkpt lat="48.07268" lon="7.04004">
        <ele>1043.85</ele>
        <time>2021-09-12T12:49:30.000Z</time>
      </trkpt>
      <trkpt lat="48.07261" lon="7.03994">
        <ele>1043.17</ele>
        <time>2021-09-12T12:49:41.000Z</time>
      </trkpt>
      <trkpt lat="48.07252" lon="7.03989">
        <ele>1043.29</ele>
        <time>2021-09-12T12:49:49.000Z</time>
      </trkpt>
      <trkpt lat="48.07243" lon="7.03983">
        <ele>1043.78</ele>
        <time>2021-09-12T12:49:56.000Z</time>
      </trkpt>
      <trkpt lat="48.07236" lon="7.03974">
        <ele>1045.31</ele>
        <time>2021-09-12T12:50:03.000Z</time>
      </trkpt>
      <trkpt lat="48.07227" lon="7.03967">
        <ele>1045.48</ele>
        <time>2021-09-12T12:50:12.000Z</time>
      </trkpt>
      <trkpt lat="48.07218" lon="7.03962">
        <ele>1045.26</ele>
        <time>2021-09-12T12:50:20.000Z</time>
      </trkpt>
      <trkpt lat="48.07209" lon="7.03956">
        <ele>1044.73</ele>
        <time>2021-09-12T12:50:26.000Z</time>
      </trkpt>
      <trkpt lat="48.07202" lon="7.03947">
        <ele>1045.22</ele>
        <time>2021-09-12T12:50:33.000Z</time>
      </trkpt>
      <trkpt lat="48.07195" lon="7.03935">
        <ele>1044</ele>
        <time>2021-09-12T12:50:40.000Z</time>
      </trkpt>
      <trkpt lat="48.07189" lon="7.03925">
        <ele>1043.47</ele>
        <time>2021-09-12T12:50:48.000Z</time>
      </trkpt>
      <trkpt lat="48.07184" lon="7.03912">
        <ele>1043.89</ele>
        <time>2021-09-12T12:50:57.000Z</time>
      </trkpt>
      <trkpt lat="48.07182" lon="7.03899">
        <ele>1044.46</ele>
        <time>2021-09-12T12:51:04.000Z</time>
      </trkpt>
      <trkpt lat="48.07179" lon="7.03885">
        <ele>1046.45</ele>
        <time>2021-09-12T12:51:12.000Z</time>
      </trkpt>
      <trkpt lat="48.07178" lon="7.03871">
        <ele>1047.47</ele>
        <time>2021-09-12T12:51:19.000Z</time>
      </trkpt>
      <trkpt lat="48.07175" lon="7.03857">
        <ele>1047.01</ele>
        <time>2021-09-12T12:51:27.000Z</time>
      </trkpt>
      <trkpt lat="48.07173" lon="7.03843">
        <ele>1047.83</ele>
        <time>2021-09-12T12:51:34.000Z</time>
      </trkpt>
      <trkpt lat="48.07169" lon="7.03831">
        <ele>1047.72</ele>
        <time>2021-09-12T12:51:42.000Z</time>
      </trkpt>
      <trkpt lat="48.07167" lon="7.03817">
        <ele>1047.11</ele>
        <time>2021-09-12T12:51:50.000Z</time>
      </trkpt>
      <trkpt lat="48.07171" lon="7.03803">
        <ele>1046.33</ele>
        <time>2021-09-12T12:51:59.000Z</time>
      </trkpt>
      <trkpt lat="48.07175" lon="7.03791">
        <ele>1044.94</ele>
        <time>2021-09-12T12:52:07.000Z</time>
      </trkpt>
      <trkpt lat="48.07179" lon="7.03777">
        <ele>1043.38</ele>
        <time>2021-09-12T12:52:16.000Z</time>
      </trkpt>
      <trkpt lat="48.07182" lon="7.03764">
        <ele>1043.77</ele>
        <time>2021-09-12T12:52:26.000Z</time>
      </trkpt>
      <trkpt lat="48.07187" lon="7.03753">
        <ele>1043.5</ele>
        <time>2021-09-12T12:52:33.000Z</time>
      </trkpt>
      <trkpt lat="48.07192" lon="7.03742">
        <ele>1043.38</ele>
        <time>2021-09-12T12:52:40.000Z</time>
      </trkpt>
      <trkpt lat="48.07197" lon="7.0373">
        <ele>1044.54</ele>
        <time>2021-09-12T12:52:48.000Z</time>
      </trkpt>
      <trkpt lat="48.072" lon="7.03716">
        <ele>1045.29</ele>
        <time>2021-09-12T12:52:56.000Z</time>
      </trkpt>
      <trkpt lat="48.07204" lon="7.03703">
        <ele>1044.97</ele>
        <time>2021-09-12T12:53:03.000Z</time>
      </trkpt>
      <trkpt lat="48.07207" lon="7.0369">
        <ele>1044.77</ele>
        <time>2021-09-12T12:53:12.000Z</time>
      </trkpt>
      <trkpt lat="48.0721" lon="7.03677">
        <ele>1045.57</ele>
        <time>2021-09-12T12:53:21.000Z</time>
      </trkpt>
      <trkpt lat="48.07214" lon="7.03663">
        <ele>1046.48</ele>
        <time>2021-09-12T12:53:29.000Z</time>
      </trkpt>
      <trkpt lat="48.07217" lon="7.03649">
        <ele>1048.31</ele>
        <time>2021-09-12T12:53:38.000Z</time>
      </trkpt>
      <trkpt lat="48.07223" lon="7.03637">
        <ele>1049.64</ele>
        <time>2021-09-12T12:53:48.000Z</time>
      </trkpt>
      <trkpt lat="48.07229" lon="7.03626">
        <ele>1049.17</ele>
        <time>2021-09-12T12:53:56.000Z</time>
      </trkpt>
      <trkpt lat="48.07234" lon="7.03613">
        <ele>1049.39</ele>
        <time>2021-09-12T12:54:06.000Z</time>
      </trkpt>
      <trkpt lat="48.07237" lon="7.036">
        <ele>1051.31</ele>
        <time>2021-09-12T12:54:14.000Z</time>
      </trkpt>
      <trkpt lat="48.0724" lon="7.03587">
        <ele>1052.61</ele>
        <time>2021-09-12T12:54:20.000Z</time>
      </trkpt>
      <trkpt lat="48.07244" lon="7.03573">
        <ele>1054.66</ele>
        <time>2021-09-12T12:54:30.000Z</time>
      </trkpt>
      <trkpt lat="48.07249" lon="7.03562">
        <ele>1055.44</ele>
        <time>2021-09-12T12:54:37.000Z</time>
      </trkpt>
      <trkpt lat="48.0725" lon="7.03548">
        <ele>1056.98</ele>
        <time>2021-09-12T12:54:43.000Z</time>
      </trkpt>
      <trkpt lat="48.07251" lon="7.03533">
        <ele>1058.85</ele>
        <time>2021-09-12T12:54:49.000Z</time>
      </trkpt>
      <trkpt lat="48.07252" lon="7.03518">
        <ele>1060.44</ele>
        <time>2021-09-12T12:54:57.000Z</time>
      </trkpt>
      <trkpt lat="48.07253" lon="7.03504">
        <ele>1061.04</ele>
        <time>2021-09-12T12:55:03.000Z</time>
      </trkpt>
      <trkpt lat="48.07252" lon="7.0349">
        <ele>1061.05</ele>
        <time>2021-09-12T12:55:11.000Z</time>
      </trkpt>
      <trkpt lat="48.07249" lon="7.03476">
        <ele>1059.2</ele>
        <time>2021-09-12T12:55:21.000Z</time>
      </trkpt>
      <trkpt lat="48.07249" lon="7.03462">
        <ele>1058.68</ele>
        <time>2021-09-12T12:55:28.000Z</time>
      </trkpt>
      <trkpt lat="48.07251" lon="7.03447">
        <ele>1059.39</ele>
        <time>2021-09-12T12:55:36.000Z</time>
      </trkpt>
      <trkpt lat="48.07249" lon="7.03432">
        <ele>1060.36</ele>
        <time>2021-09-12T12:55:44.000Z</time>
      </trkpt>
      <trkpt lat="48.07247" lon="7.03417">
        <ele>1061.9</ele>
        <time>2021-09-12T12:55:52.000Z</time>
      </trkpt>
      <trkpt lat="48.07246" lon="7.03403">
        <ele>1063.49</ele>
        <time>2021-09-12T12:56:01.000Z</time>
      </trkpt>
      <trkpt lat="48.07243" lon="7.0339">
        <ele>1063.75</ele>
        <time>2021-09-12T12:56:08.000Z</time>
      </trkpt>
      <trkpt lat="48.0724" lon="7.03376">
        <ele>1064.51</ele>
        <time>2021-09-12T12:56:16.000Z</time>
      </trkpt>
      <trkpt lat="48.07234" lon="7.03366">
        <ele>1065.85</ele>
        <time>2021-09-12T12:56:22.000Z</time>
      </trkpt>
      <trkpt lat="48.07228" lon="7.03354">
        <ele>1065.41</ele>
        <time>2021-09-12T12:56:30.000Z</time>
      </trkpt>
      <trkpt lat="48.07225" lon="7.03342">
        <ele>1065.05</ele>
        <time>2021-09-12T12:56:38.000Z</time>
      </trkpt>
      <trkpt lat="48.07221" lon="7.03329">
        <ele>1066.2</ele>
        <time>2021-09-12T12:56:49.000Z</time>
      </trkpt>
      <trkpt lat="48.07217" lon="7.03315">
        <ele>1066.61</ele>
        <time>2021-09-12T12:57:01.000Z</time>
      </trkpt>
      <trkpt lat="48.07213" lon="7.03303">
        <ele>1067.58</ele>
        <time>2021-09-12T12:57:09.000Z</time>
      </trkpt>
      <trkpt lat="48.07204" lon="7.03296">
        <ele>1071.04</ele>
        <time>2021-09-12T12:57:17.000Z</time>
      </trkpt>
      <trkpt lat="48.07195" lon="7.0329">
        <ele>1073.37</ele>
        <time>2021-09-12T12:57:23.000Z</time>
      </trkpt>
      <trkpt lat="48.07186" lon="7.03285">
        <ele>1075.4</ele>
        <time>2021-09-12T12:57:30.000Z</time>
      </trkpt>
      <trkpt lat="48.07176" lon="7.03286">
        <ele>1077.68</ele>
        <time>2021-09-12T12:57:40.000Z</time>
      </trkpt>
      <trkpt lat="48.07167" lon="7.03289">
        <ele>1078.31</ele>
        <time>2021-09-12T12:57:46.000Z</time>
      </trkpt>
      <trkpt lat="48.07158" lon="7.03292">
        <ele>1080.64</ele>
        <time>2021-09-12T12:57:53.000Z</time>
      </trkpt>
      <trkpt lat="48.07149" lon="7.03297">
        <ele>1082.43</ele>
        <time>2021-09-12T12:58:00.000Z</time>
      </trkpt>
      <trkpt lat="48.07142" lon="7.03306">
        <ele>1084.63</ele>
        <time>2021-09-12T12:58:06.000Z</time>
      </trkpt>
      <trkpt lat="48.07135" lon="7.03317">
        <ele>1084.12</ele>
        <time>2021-09-12T12:58:15.000Z</time>
      </trkpt>
      <trkpt lat="48.07128" lon="7.03326">
        <ele>1085.73</ele>
        <time>2021-09-12T12:58:22.000Z</time>
      </trkpt>
      <trkpt lat="48.07119" lon="7.0333">
        <ele>1088.47</ele>
        <time>2021-09-12T12:58:33.000Z</time>
      </trkpt>
      <trkpt lat="48.0711" lon="7.03334">
        <ele>1089.38</ele>
        <time>2021-09-12T12:58:41.000Z</time>
      </trkpt>
      <trkpt lat="48.07101" lon="7.03339">
        <ele>1089.98</ele>
        <time>2021-09-12T12:58:48.000Z</time>
      </trkpt>
      <trkpt lat="48.07091" lon="7.03348">
        <ele>1090.14</ele>
        <time>2021-09-12T12:58:54.000Z</time>
      </trkpt>
      <trkpt lat="48.07082" lon="7.03357">
        <ele>1090.72</ele>
        <time>2021-09-12T12:59:00.000Z</time>
      </trkpt>
      <trkpt lat="48.07077" lon="7.03369">
        <ele>1090.77</ele>
        <time>2021-09-12T12:59:10.000Z</time>
      </trkpt>
      <trkpt lat="48.07068" lon="7.03376">
        <ele>1090.04</ele>
        <time>2021-09-12T12:59:28.000Z</time>
      </trkpt>
      <trkpt lat="48.07061" lon="7.03385">
        <ele>1090.61</ele>
        <time>2021-09-12T12:59:38.000Z</time>
      </trkpt>
      <trkpt lat="48.07051" lon="7.03391">
        <ele>1092.41</ele>
        <time>2021-09-12T12:59:50.000Z</time>
      </trkpt>
      <trkpt lat="48.07042" lon="7.03395">
        <ele>1091.66</ele>
        <time>2021-09-12T12:59:59.000Z</time>
      </trkpt>
      <trkpt lat="48.07034" lon="7.03403">
        <ele>1091.52</ele>
        <time>2021-09-12T13:00:10.000Z</time>
      </trkpt>
      <trkpt lat="48.07026" lon="7.03408">
        <ele>1090.67</ele>
        <time>2021-09-12T13:00:22.000Z</time>
      </trkpt>
      <trkpt lat="48.07017" lon="7.03409">
        <ele>1090.81</ele>
        <time>2021-09-12T13:00:31.000Z</time>
      </trkpt>
      <trkpt lat="48.07007" lon="7.03409">
        <ele>1087.8</ele>
        <time>2021-09-12T13:00:42.000Z</time>
      </trkpt>
      <trkpt lat="48.06998" lon="7.03409">
        <ele>1087.72</ele>
        <time>2021-09-12T13:00:54.000Z</time>
      </trkpt>
      <trkpt lat="48.0699" lon="7.03419">
        <ele>1085.05</ele>
        <time>2021-09-12T13:01:12.000Z</time>
      </trkpt>
      <trkpt lat="48.06988" lon="7.03432">
        <ele>1082.59</ele>
        <time>2021-09-12T13:01:29.000Z</time>
      </trkpt>
      <trkpt lat="48.06979" lon="7.03437">
        <ele>1077.55</ele>
        <time>2021-09-12T13:01:45.000Z</time>
      </trkpt>
      <trkpt lat="48.06977" lon="7.0345">
        <ele>1071.6</ele>
        <time>2021-09-12T13:02:00.000Z</time>
      </trkpt>
      <trkpt lat="48.06974" lon="7.03466">
        <ele>1070.72</ele>
        <time>2021-09-12T13:03:11.000Z</time>
      </trkpt>
      <trkpt lat="48.06959" lon="7.03514">
        <ele>1077.26</ele>
        <time>2021-09-12T13:03:16.000Z</time>
      </trkpt>
      <trkpt lat="48.06967" lon="7.03504">
        <ele>1087.27</ele>
        <time>2021-09-12T13:03:21.000Z</time>
      </trkpt>
      <trkpt lat="48.06971" lon="7.03488">
        <ele>1090.89</ele>
        <time>2021-09-12T13:03:26.000Z</time>
      </trkpt>
      <trkpt lat="48.06969" lon="7.03469">
        <ele>1084.39</ele>
        <time>2021-09-12T13:03:31.000Z</time>
      </trkpt>
      <trkpt lat="48.06974" lon="7.03457">
        <ele>1075.07</ele>
        <time>2021-09-12T13:03:42.000Z</time>
      </trkpt>
      <trkpt lat="48.06974" lon="7.03443">
        <ele>1072.3</ele>
        <time>2021-09-12T13:03:49.000Z</time>
      </trkpt>
      <trkpt lat="48.06981" lon="7.03435">
        <ele>1072.84</ele>
        <time>2021-09-12T13:03:58.000Z</time>
      </trkpt>
      <trkpt lat="48.06991" lon="7.0343">
        <ele>1073.53</ele>
        <time>2021-09-12T13:04:17.000Z</time>
      </trkpt>
      <trkpt lat="48.06995" lon="7.03416">
        <ele>1075.83</ele>
        <time>2021-09-12T13:04:44.000Z</time>
      </trkpt>
      <trkpt lat="48.06996" lon="7.03402">
        <ele>1079.97</ele>
        <time>2021-09-12T13:04:56.000Z</time>
      </trkpt>
      <trkpt lat="48.06992" lon="7.0339">
        <ele>1084.25</ele>
        <time>2021-09-12T13:05:07.000Z</time>
      </trkpt>
      <trkpt lat="48.06991" lon="7.03376">
        <ele>1087.4</ele>
        <time>2021-09-12T13:05:17.000Z</time>
      </trkpt>
      <trkpt lat="48.06986" lon="7.03361">
        <ele>1093.12</ele>
        <time>2021-09-12T13:05:39.000Z</time>
      </trkpt>
      <trkpt lat="48.0701" lon="7.03373">
        <ele>1099.73</ele>
        <time>2021-09-12T13:05:44.000Z</time>
      </trkpt>
      <trkpt lat="48.07018" lon="7.03379">
        <ele>1098.97</ele>
        <time>2021-09-12T13:05:51.000Z</time>
      </trkpt>
      <trkpt lat="48.07008" lon="7.03373">
        <ele>1098.9</ele>
        <time>2021-09-12T13:05:58.000Z</time>
      </trkpt>
      <trkpt lat="48.06994" lon="7.03365">
        <ele>1098.32</ele>
        <time>2021-09-12T13:06:03.000Z</time>
      </trkpt>
      <trkpt lat="48.06985" lon="7.03358">
        <ele>1096.79</ele>
        <time>2021-09-12T13:06:09.000Z</time>
      </trkpt>
      <trkpt lat="48.06977" lon="7.03365">
        <ele>1095.87</ele>
        <time>2021-09-12T13:06:28.000Z</time>
      </trkpt>
      <trkpt lat="48.06975" lon="7.03351">
        <ele>1097.32</ele>
        <time>2021-09-12T13:06:48.000Z</time>
      </trkpt>
      <trkpt lat="48.06968" lon="7.03341">
        <ele>1096.2</ele>
        <time>2021-09-12T13:07:00.000Z</time>
      </trkpt>
      <trkpt lat="48.0696" lon="7.03349">
        <ele>1080.75</ele>
        <time>2021-09-12T13:07:34.000Z</time>
      </trkpt>
      <trkpt lat="48.06948" lon="7.03347">
        <ele>1082.84</ele>
        <time>2021-09-12T13:07:54.000Z</time>
      </trkpt>
      <trkpt lat="48.0694" lon="7.03332">
        <ele>1082.96</ele>
        <time>2021-09-12T13:07:59.000Z</time>
      </trkpt>
      <trkpt lat="48.06944" lon="7.03352">
        <ele>1081.17</ele>
        <time>2021-09-12T13:08:04.000Z</time>
      </trkpt>
      <trkpt lat="48.06936" lon="7.03361">
        <ele>1082.28</ele>
        <time>2021-09-12T13:08:11.000Z</time>
      </trkpt>
      <trkpt lat="48.06929" lon="7.03354">
        <ele>1083.79</ele>
        <time>2021-09-12T13:08:24.000Z</time>
      </trkpt>
      <trkpt lat="48.0692" lon="7.03348">
        <ele>1086.92</ele>
        <time>2021-09-12T13:08:39.000Z</time>
      </trkpt>
      <trkpt lat="48.06916" lon="7.03335">
        <ele>1089.17</ele>
        <time>2021-09-12T13:09:00.000Z</time>
      </trkpt>
      <trkpt lat="48.06917" lon="7.03321">
        <ele>1087.26</ele>
        <time>2021-09-12T13:09:26.000Z</time>
      </trkpt>
      <trkpt lat="48.06908" lon="7.03316">
        <ele>1090.93</ele>
        <time>2021-09-12T13:09:51.000Z</time>
      </trkpt>
      <trkpt lat="48.06911" lon="7.03303">
        <ele>1092.02</ele>
        <time>2021-09-12T13:10:04.000Z</time>
      </trkpt>
      <trkpt lat="48.06907" lon="7.03292">
        <ele>1091.72</ele>
        <time>2021-09-12T13:10:21.000Z</time>
      </trkpt>
      <trkpt lat="48.069" lon="7.03281">
        <ele>1089.58</ele>
        <time>2021-09-12T13:10:36.000Z</time>
      </trkpt>
      <trkpt lat="48.069" lon="7.03267">
        <ele>1089.62</ele>
        <time>2021-09-12T13:10:57.000Z</time>
      </trkpt>
      <trkpt lat="48.06911" lon="7.03257">
        <ele>1095.08</ele>
        <time>2021-09-12T13:11:06.000Z</time>
      </trkpt>
      <trkpt lat="48.06907" lon="7.03242">
        <ele>1094.4</ele>
        <time>2021-09-12T13:11:11.000Z</time>
      </trkpt>
      <trkpt lat="48.06915" lon="7.03224">
        <ele>1095.58</ele>
        <time>2021-09-12T13:11:16.000Z</time>
      </trkpt>
      <trkpt lat="48.06921" lon="7.03207">
        <ele>1104.65</ele>
        <time>2021-09-12T13:11:21.000Z</time>
      </trkpt>
      <trkpt lat="48.06891" lon="7.03242">
        <ele>1108.27</ele>
        <time>2021-09-12T13:11:26.000Z</time>
      </trkpt>
      <trkpt lat="48.0687" lon="7.03261">
        <ele>1105.54</ele>
        <time>2021-09-12T13:11:31.000Z</time>
      </trkpt>
      <trkpt lat="48.06861" lon="7.03264">
        <ele>1109.35</ele>
        <time>2021-09-12T13:12:07.000Z</time>
      </trkpt>
      <trkpt lat="48.06854" lon="7.03249">
        <ele>1106.38</ele>
        <time>2021-09-12T13:12:28.000Z</time>
      </trkpt>
      <trkpt lat="48.06842" lon="7.03243">
        <ele>1104.25</ele>
        <time>2021-09-12T13:12:43.000Z</time>
      </trkpt>
      <trkpt lat="48.0683" lon="7.0324">
        <ele>1100.28</ele>
        <time>2021-09-12T13:12:58.000Z</time>
      </trkpt>
      <trkpt lat="48.06829" lon="7.03255">
        <ele>1096.08</ele>
        <time>2021-09-12T13:13:16.000Z</time>
      </trkpt>
      <trkpt lat="48.06836" lon="7.0327">
        <ele>1094.2</ele>
        <time>2021-09-12T13:13:31.000Z</time>
      </trkpt>
      <trkpt lat="48.06827" lon="7.03272">
        <ele>1092.8</ele>
        <time>2021-09-12T13:13:58.000Z</time>
      </trkpt>
      <trkpt lat="48.06818" lon="7.03263">
        <ele>1091.98</ele>
        <time>2021-09-12T13:14:07.000Z</time>
      </trkpt>
      <trkpt lat="48.06803" lon="7.03247">
        <ele>1090.9</ele>
        <time>2021-09-12T13:14:22.000Z</time>
      </trkpt>
      <trkpt lat="48.06791" lon="7.03245">
        <ele>1089.65</ele>
        <time>2021-09-12T13:14:40.000Z</time>
      </trkpt>
      <trkpt lat="48.06782" lon="7.03247">
        <ele>1088.08</ele>
        <time>2021-09-12T13:14:52.000Z</time>
      </trkpt>
      <trkpt lat="48.06773" lon="7.03257">
        <ele>1086.73</ele>
        <time>2021-09-12T13:14:59.000Z</time>
      </trkpt>
      <trkpt lat="48.06765" lon="7.03265">
        <ele>1085.06</ele>
        <time>2021-09-12T13:15:07.000Z</time>
      </trkpt>
      <trkpt lat="48.06757" lon="7.03278">
        <ele>1083.08</ele>
        <time>2021-09-12T13:15:15.000Z</time>
      </trkpt>
      <trkpt lat="48.06758" lon="7.03303">
        <ele>1079.63</ele>
        <time>2021-09-12T13:15:29.000Z</time>
      </trkpt>
      <trkpt lat="48.06751" lon="7.03317">
        <ele>1078.2</ele>
        <time>2021-09-12T13:15:57.000Z</time>
      </trkpt>
      <trkpt lat="48.06745" lon="7.03374">
        <ele>1079.62</ele>
        <time>2021-09-12T13:16:02.000Z</time>
      </trkpt>
      <trkpt lat="48.0675" lon="7.03335">
        <ele>1078.28</ele>
        <time>2021-09-12T13:16:07.000Z</time>
      </trkpt>
      <trkpt lat="48.0674" lon="7.03321">
        <ele>1066.6</ele>
        <time>2021-09-12T13:16:21.000Z</time>
      </trkpt>
      <trkpt lat="48.06728" lon="7.0333">
        <ele>1062.95</ele>
        <time>2021-09-12T13:16:38.000Z</time>
      </trkpt>
      <trkpt lat="48.06725" lon="7.03345">
        <ele>1061.1</ele>
        <time>2021-09-12T13:16:48.000Z</time>
      </trkpt>
      <trkpt lat="48.0672" lon="7.03355">
        <ele>1062.83</ele>
        <time>2021-09-12T13:16:57.000Z</time>
      </trkpt>
      <trkpt lat="48.06712" lon="7.03363">
        <ele>1063.44</ele>
        <time>2021-09-12T13:17:05.000Z</time>
      </trkpt>
      <trkpt lat="48.06699" lon="7.03373">
        <ele>1065.13</ele>
        <time>2021-09-12T13:17:18.000Z</time>
      </trkpt>
      <trkpt lat="48.06692" lon="7.03381">
        <ele>1064.07</ele>
        <time>2021-09-12T13:17:23.000Z</time>
      </trkpt>
      <trkpt lat="48.06685" lon="7.0339">
        <ele>1063.73</ele>
        <time>2021-09-12T13:17:29.000Z</time>
      </trkpt>
      <trkpt lat="48.06674" lon="7.03402">
        <ele>1063.75</ele>
        <time>2021-09-12T13:17:43.000Z</time>
      </trkpt>
      <trkpt lat="48.06663" lon="7.03403">
        <ele>1062.25</ele>
        <time>2021-09-12T13:17:59.000Z</time>
      </trkpt>
      <trkpt lat="48.06652" lon="7.03411">
        <ele>1060.18</ele>
        <time>2021-09-12T13:18:17.000Z</time>
      </trkpt>
      <trkpt lat="48.06642" lon="7.03427">
        <ele>1059.3</ele>
        <time>2021-09-12T13:18:27.000Z</time>
      </trkpt>
      <trkpt lat="48.06633" lon="7.03434">
        <ele>1059.1</ele>
        <time>2021-09-12T13:18:33.000Z</time>
      </trkpt>
      <trkpt lat="48.06621" lon="7.03447">
        <ele>1059.85</ele>
        <time>2021-09-12T13:18:44.000Z</time>
      </trkpt>
      <trkpt lat="48.06611" lon="7.03456">
        <ele>1060.5</ele>
        <time>2021-09-12T13:18:55.000Z</time>
      </trkpt>
      <trkpt lat="48.06602" lon="7.03468">
        <ele>1061.48</ele>
        <time>2021-09-12T13:19:07.000Z</time>
      </trkpt>
      <trkpt lat="48.06593" lon="7.03482">
        <ele>1063</ele>
        <time>2021-09-12T13:19:19.000Z</time>
      </trkpt>
      <trkpt lat="48.06589" lon="7.03497">
        <ele>1064.63</ele>
        <time>2021-09-12T13:19:31.000Z</time>
      </trkpt>
      <trkpt lat="48.06583" lon="7.03509">
        <ele>1065.83</ele>
        <time>2021-09-12T13:19:37.000Z</time>
      </trkpt>
      <trkpt lat="48.06576" lon="7.0352">
        <ele>1067.73</ele>
        <time>2021-09-12T13:19:44.000Z</time>
      </trkpt>
      <trkpt lat="48.06571" lon="7.03532">
        <ele>1068.27</ele>
        <time>2021-09-12T13:19:49.000Z</time>
      </trkpt>
      <trkpt lat="48.06565" lon="7.03544">
        <ele>1070.01</ele>
        <time>2021-09-12T13:19:56.000Z</time>
      </trkpt>
      <trkpt lat="48.06558" lon="7.03568">
        <ele>1071.15</ele>
        <time>2021-09-12T13:20:11.000Z</time>
      </trkpt>
      <trkpt lat="48.06554" lon="7.03584">
        <ele>1072.93</ele>
        <time>2021-09-12T13:20:20.000Z</time>
      </trkpt>
      <trkpt lat="48.06551" lon="7.03602">
        <ele>1074.6</ele>
        <time>2021-09-12T13:20:33.000Z</time>
      </trkpt>
      <trkpt lat="48.06544" lon="7.03616">
        <ele>1075.02</ele>
        <time>2021-09-12T13:20:44.000Z</time>
      </trkpt>
      <trkpt lat="48.06537" lon="7.03633">
        <ele>1073.57</ele>
        <time>2021-09-12T13:20:58.000Z</time>
      </trkpt>
      <trkpt lat="48.06526" lon="7.03639">
        <ele>1071.82</ele>
        <time>2021-09-12T13:21:12.000Z</time>
      </trkpt>
      <trkpt lat="48.06513" lon="7.03641">
        <ele>1072.35</ele>
        <time>2021-09-12T13:21:23.000Z</time>
      </trkpt>
      <trkpt lat="48.065" lon="7.03635">
        <ele>1072.55</ele>
        <time>2021-09-12T13:21:36.000Z</time>
      </trkpt>
      <trkpt lat="48.06487" lon="7.03629">
        <ele>1073.45</ele>
        <time>2021-09-12T13:21:51.000Z</time>
      </trkpt>
      <trkpt lat="48.06477" lon="7.03621">
        <ele>1074.27</ele>
        <time>2021-09-12T13:22:04.000Z</time>
      </trkpt>
      <trkpt lat="48.06471" lon="7.03605">
        <ele>1075.7</ele>
        <time>2021-09-12T13:22:19.000Z</time>
      </trkpt>
      <trkpt lat="48.06464" lon="7.03588">
        <ele>1073.12</ele>
        <time>2021-09-12T13:22:42.000Z</time>
      </trkpt>
      <trkpt lat="48.06457" lon="7.03575">
        <ele>1076.85</ele>
        <time>2021-09-12T13:22:54.000Z</time>
      </trkpt>
      <trkpt lat="48.06464" lon="7.03561">
        <ele>1080.55</ele>
        <time>2021-09-12T13:23:11.000Z</time>
      </trkpt>
      <trkpt lat="48.06471" lon="7.03549">
        <ele>1084.37</ele>
        <time>2021-09-12T13:23:29.000Z</time>
      </trkpt>
      <trkpt lat="48.06468" lon="7.03531">
        <ele>1085.37</ele>
        <time>2021-09-12T13:23:41.000Z</time>
      </trkpt>
      <trkpt lat="48.06466" lon="7.03517">
        <ele>1085.67</ele>
        <time>2021-09-12T13:23:55.000Z</time>
      </trkpt>
      <trkpt lat="48.06466" lon="7.03497">
        <ele>1086.75</ele>
        <time>2021-09-12T13:24:10.000Z</time>
      </trkpt>
      <trkpt lat="48.0647" lon="7.03483">
        <ele>1089.17</ele>
        <time>2021-09-12T13:24:32.000Z</time>
      </trkpt>
      <trkpt lat="48.06469" lon="7.03466">
        <ele>1091.97</ele>
        <time>2021-09-12T13:24:46.000Z</time>
      </trkpt>
      <trkpt lat="48.06463" lon="7.03449">
        <ele>1094.77</ele>
        <time>2021-09-12T13:25:02.000Z</time>
      </trkpt>
      <trkpt lat="48.06463" lon="7.03431">
        <ele>1097.1</ele>
        <time>2021-09-12T13:25:20.000Z</time>
      </trkpt>
      <trkpt lat="48.06463" lon="7.03415">
        <ele>1099.02</ele>
        <time>2021-09-12T13:25:37.000Z</time>
      </trkpt>
      <trkpt lat="48.06471" lon="7.03409">
        <ele>1101.78</ele>
        <time>2021-09-12T13:26:08.000Z</time>
      </trkpt>
      <trkpt lat="48.06474" lon="7.03395">
        <ele>1103.25</ele>
        <time>2021-09-12T13:26:30.000Z</time>
      </trkpt>
      <trkpt lat="48.06469" lon="7.03377">
        <ele>1105.95</ele>
        <time>2021-09-12T13:26:44.000Z</time>
      </trkpt>
      <trkpt lat="48.06462" lon="7.03362">
        <ele>1108.82</ele>
        <time>2021-09-12T13:26:58.000Z</time>
      </trkpt>
      <trkpt lat="48.06455" lon="7.03347">
        <ele>1111.42</ele>
        <time>2021-09-12T13:27:12.000Z</time>
      </trkpt>
      <trkpt lat="48.06451" lon="7.0333">
        <ele>1114.05</ele>
        <time>2021-09-12T13:27:28.000Z</time>
      </trkpt>
      <trkpt lat="48.0646" lon="7.03329">
        <ele>1116.6</ele>
        <time>2021-09-12T13:28:05.000Z</time>
      </trkpt>
      <trkpt lat="48.06471" lon="7.03329">
        <ele>1117.82</ele>
        <time>2021-09-12T13:28:21.000Z</time>
      </trkpt>
      <trkpt lat="48.06482" lon="7.03337">
        <ele>1119.32</ele>
        <time>2021-09-12T13:28:32.000Z</time>
      </trkpt>
      <trkpt lat="48.0649" lon="7.03328">
        <ele>1121.55</ele>
        <time>2021-09-12T13:29:01.000Z</time>
      </trkpt>
      <trkpt lat="48.0649" lon="7.03308">
        <ele>1122.8</ele>
        <time>2021-09-12T13:29:14.000Z</time>
      </trkpt>
      <trkpt lat="48.06484" lon="7.03292">
        <ele>1125.75</ele>
        <time>2021-09-12T13:29:34.000Z</time>
      </trkpt>
      <trkpt lat="48.06486" lon="7.03278">
        <ele>1129.07</ele>
        <time>2021-09-12T13:29:52.000Z</time>
      </trkpt>
      <trkpt lat="48.06476" lon="7.03274">
        <ele>1131.5</ele>
        <time>2021-09-12T13:30:06.000Z</time>
      </trkpt>
      <trkpt lat="48.06464" lon="7.03266">
        <ele>1133.67</ele>
        <time>2021-09-12T13:30:18.000Z</time>
      </trkpt>
      <trkpt lat="48.06457" lon="7.03251">
        <ele>1137.87</ele>
        <time>2021-09-12T13:30:34.000Z</time>
      </trkpt>
      <trkpt lat="48.06452" lon="7.03233">
        <ele>1141.02</ele>
        <time>2021-09-12T13:31:20.000Z</time>
      </trkpt>
      <trkpt lat="48.06492" lon="7.03213">
        <ele>1142.63</ele>
        <time>2021-09-12T13:31:25.000Z</time>
      </trkpt>
      <trkpt lat="48.0648" lon="7.03225">
        <ele>1136.29</ele>
        <time>2021-09-12T13:31:30.000Z</time>
      </trkpt>
      <trkpt lat="48.06465" lon="7.03244">
        <ele>1143.37</ele>
        <time>2021-09-12T13:31:35.000Z</time>
      </trkpt>
      <trkpt lat="48.06477" lon="7.03247">
        <ele>1145.67</ele>
        <time>2021-09-12T13:31:59.000Z</time>
      </trkpt>
      <trkpt lat="48.0648" lon="7.03234">
        <ele>1144.62</ele>
        <time>2021-09-12T13:32:06.000Z</time>
      </trkpt>
      <trkpt lat="48.06483" lon="7.0322">
        <ele>1148.31</ele>
        <time>2021-09-12T13:32:11.000Z</time>
      </trkpt>
      <trkpt lat="48.06491" lon="7.03208">
        <ele>1152.13</ele>
        <time>2021-09-12T13:32:32.000Z</time>
      </trkpt>
      <trkpt lat="48.06492" lon="7.03192">
        <ele>1154.58</ele>
        <time>2021-09-12T13:32:54.000Z</time>
      </trkpt>
      <trkpt lat="48.06488" lon="7.03175">
        <ele>1154.65</ele>
        <time>2021-09-12T13:33:11.000Z</time>
      </trkpt>
      <trkpt lat="48.06493" lon="7.03157">
        <ele>1155.93</ele>
        <time>2021-09-12T13:33:24.000Z</time>
      </trkpt>
      <trkpt lat="48.065" lon="7.03141">
        <ele>1158.2</ele>
        <time>2021-09-12T13:33:44.000Z</time>
      </trkpt>
      <trkpt lat="48.06507" lon="7.03127">
        <ele>1160.35</ele>
        <time>2021-09-12T13:34:04.000Z</time>
      </trkpt>
      <trkpt lat="48.06511" lon="7.03111">
        <ele>1162.48</ele>
        <time>2021-09-12T13:34:18.000Z</time>
      </trkpt>
      <trkpt lat="48.06519" lon="7.03096">
        <ele>1163.53</ele>
        <time>2021-09-12T13:34:29.000Z</time>
      </trkpt>
      <trkpt lat="48.06521" lon="7.03077">
        <ele>1164.48</ele>
        <time>2021-09-12T13:34:43.000Z</time>
      </trkpt>
      <trkpt lat="48.0652" lon="7.03059">
        <ele>1165.53</ele>
        <time>2021-09-12T13:34:55.000Z</time>
      </trkpt>
      <trkpt lat="48.06524" lon="7.03043">
        <ele>1166.4</ele>
        <time>2021-09-12T13:35:10.000Z</time>
      </trkpt>
      <trkpt lat="48.06527" lon="7.03024">
        <ele>1167.33</ele>
        <time>2021-09-12T13:35:22.000Z</time>
      </trkpt>
      <trkpt lat="48.06535" lon="7.03001">
        <ele>1168.45</ele>
        <time>2021-09-12T13:35:35.000Z</time>
      </trkpt>
      <trkpt lat="48.06536" lon="7.02984">
        <ele>1169.95</ele>
        <time>2021-09-12T13:35:40.000Z</time>
      </trkpt>
      <trkpt lat="48.06541" lon="7.02966">
        <ele>1171.93</ele>
        <time>2021-09-12T13:35:57.000Z</time>
      </trkpt>
      <trkpt lat="48.06541" lon="7.0294">
        <ele>1177</ele>
        <time>2021-09-12T13:36:21.000Z</time>
      </trkpt>
      <trkpt lat="48.06543" lon="7.02922">
        <ele>1179.45</ele>
        <time>2021-09-12T13:36:35.000Z</time>
      </trkpt>
      <trkpt lat="48.06552" lon="7.02925">
        <ele>1183.82</ele>
        <time>2021-09-12T13:37:15.000Z</time>
      </trkpt>
      <trkpt lat="48.06556" lon="7.02911">
        <ele>1186.94</ele>
        <time>2021-09-12T13:37:30.000Z</time>
      </trkpt>
      <trkpt lat="48.06562" lon="7.02891">
        <ele>1189.25</ele>
        <time>2021-09-12T13:37:50.000Z</time>
      </trkpt>
      <trkpt lat="48.06573" lon="7.02882">
        <ele>1190.35</ele>
        <time>2021-09-12T13:38:03.000Z</time>
      </trkpt>
      <trkpt lat="48.06581" lon="7.02868">
        <ele>1190.43</ele>
        <time>2021-09-12T13:38:10.000Z</time>
      </trkpt>
      <trkpt lat="48.06587" lon="7.02856">
        <ele>1190.14</ele>
        <time>2021-09-12T13:38:19.000Z</time>
      </trkpt>
      <trkpt lat="48.06591" lon="7.02839">
        <ele>1188.03</ele>
        <time>2021-09-12T13:38:32.000Z</time>
      </trkpt>
      <trkpt lat="48.06595" lon="7.02821">
        <ele>1182.9</ele>
        <time>2021-09-12T13:38:50.000Z</time>
      </trkpt>
      <trkpt lat="48.066" lon="7.02802">
        <ele>1180.73</ele>
        <time>2021-09-12T13:39:05.000Z</time>
      </trkpt>
      <trkpt lat="48.06609" lon="7.02787">
        <ele>1179.13</ele>
        <time>2021-09-12T13:39:20.000Z</time>
      </trkpt>
      <trkpt lat="48.06619" lon="7.02777">
        <ele>1178.73</ele>
        <time>2021-09-12T13:39:38.000Z</time>
      </trkpt>
      <trkpt lat="48.06625" lon="7.0276">
        <ele>1178.15</ele>
        <time>2021-09-12T13:39:54.000Z</time>
      </trkpt>
      <trkpt lat="48.0662" lon="7.02743">
        <ele>1178.1</ele>
        <time>2021-09-12T13:40:05.000Z</time>
      </trkpt>
      <trkpt lat="48.0662" lon="7.02724">
        <ele>1178.13</ele>
        <time>2021-09-12T13:40:18.000Z</time>
      </trkpt>
      <trkpt lat="48.06623" lon="7.02706">
        <ele>1177.88</ele>
        <time>2021-09-12T13:40:30.000Z</time>
      </trkpt>
      <trkpt lat="48.06623" lon="7.02687">
        <ele>1176.6</ele>
        <time>2021-09-12T13:40:40.000Z</time>
      </trkpt>
      <trkpt lat="48.06617" lon="7.02665">
        <ele>1172.68</ele>
        <time>2021-09-12T13:41:09.000Z</time>
      </trkpt>
      <trkpt lat="48.06617" lon="7.02649">
        <ele>1171.33</ele>
        <time>2021-09-12T13:41:45.000Z</time>
      </trkpt>
      <trkpt lat="48.06611" lon="7.02631">
        <ele>1169.65</ele>
        <time>2021-09-12T13:41:56.000Z</time>
      </trkpt>
      <trkpt lat="48.0661" lon="7.02611">
        <ele>1167.18</ele>
        <time>2021-09-12T13:42:10.000Z</time>
      </trkpt>
      <trkpt lat="48.06613" lon="7.02595">
        <ele>1164.55</ele>
        <time>2021-09-12T13:42:25.000Z</time>
      </trkpt>
      <trkpt lat="48.06616" lon="7.02577">
        <ele>1161.68</ele>
        <time>2021-09-12T13:42:39.000Z</time>
      </trkpt>
      <trkpt lat="48.06621" lon="7.0256">
        <ele>1158.1</ele>
        <time>2021-09-12T13:42:55.000Z</time>
      </trkpt>
      <trkpt lat="48.06626" lon="7.02545">
        <ele>1153.78</ele>
        <time>2021-09-12T13:43:08.000Z</time>
      </trkpt>
      <trkpt lat="48.06628" lon="7.02525">
        <ele>1149.95</ele>
        <time>2021-09-12T13:43:19.000Z</time>
      </trkpt>
      <trkpt lat="48.06624" lon="7.02503">
        <ele>1146.3</ele>
        <time>2021-09-12T13:43:31.000Z</time>
      </trkpt>
      <trkpt lat="48.06619" lon="7.02491">
        <ele>1141.98</ele>
        <time>2021-09-12T13:43:54.000Z</time>
      </trkpt>
      <trkpt lat="48.06619" lon="7.02475">
        <ele>1137.4</ele>
        <time>2021-09-12T13:44:11.000Z</time>
      </trkpt>
      <trkpt lat="48.06616" lon="7.02459">
        <ele>1135.45</ele>
        <time>2021-09-12T13:44:22.000Z</time>
      </trkpt>
      <trkpt lat="48.06617" lon="7.02445">
        <ele>1133.85</ele>
        <time>2021-09-12T13:44:30.000Z</time>
      </trkpt>
      <trkpt lat="48.06619" lon="7.02428">
        <ele>1132.2</ele>
        <time>2021-09-12T13:44:43.000Z</time>
      </trkpt>
      <trkpt lat="48.06617" lon="7.0241">
        <ele>1130.23</ele>
        <time>2021-09-12T13:44:58.000Z</time>
      </trkpt>
      <trkpt lat="48.06612" lon="7.02392">
        <ele>1126.8</ele>
        <time>2021-09-12T13:45:21.000Z</time>
      </trkpt>
      <trkpt lat="48.06614" lon="7.02372">
        <ele>1122.35</ele>
        <time>2021-09-12T13:45:35.000Z</time>
      </trkpt>
      <trkpt lat="48.0662" lon="7.02358">
        <ele>1120.15</ele>
        <time>2021-09-12T13:45:46.000Z</time>
      </trkpt>
      <trkpt lat="48.06618" lon="7.02337">
        <ele>1119</ele>
        <time>2021-09-12T13:45:55.000Z</time>
      </trkpt>
      <trkpt lat="48.06606" lon="7.02331">
        <ele>1117.3</ele>
        <time>2021-09-12T13:46:07.000Z</time>
      </trkpt>
      <trkpt lat="48.06593" lon="7.02331">
        <ele>1114.9</ele>
        <time>2021-09-12T13:46:22.000Z</time>
      </trkpt>
      <trkpt lat="48.06583" lon="7.02323">
        <ele>1113.28</ele>
        <time>2021-09-12T13:46:32.000Z</time>
      </trkpt>
      <trkpt lat="48.06571" lon="7.02318">
        <ele>1111.38</ele>
        <time>2021-09-12T13:46:44.000Z</time>
      </trkpt>
      <trkpt lat="48.06559" lon="7.02313">
        <ele>1108.85</ele>
        <time>2021-09-12T13:46:56.000Z</time>
      </trkpt>
      <trkpt lat="48.0655" lon="7.02309">
        <ele>1105.99</ele>
        <time>2021-09-12T13:47:07.000Z</time>
      </trkpt>
      <trkpt lat="48.06541" lon="7.02304">
        <ele>1103.56</ele>
        <time>2021-09-12T13:47:13.000Z</time>
      </trkpt>
      <trkpt lat="48.06531" lon="7.02306">
        <ele>1100.76</ele>
        <time>2021-09-12T13:47:19.000Z</time>
      </trkpt>
      <trkpt lat="48.06517" lon="7.02303">
        <ele>1094.9</ele>
        <time>2021-09-12T13:47:33.000Z</time>
      </trkpt>
      <trkpt lat="48.06505" lon="7.02294">
        <ele>1090.08</ele>
        <time>2021-09-12T13:47:44.000Z</time>
      </trkpt>
      <trkpt lat="48.06496" lon="7.0229">
        <ele>1088.12</ele>
        <time>2021-09-12T13:47:52.000Z</time>
      </trkpt>
      <trkpt lat="48.06487" lon="7.02286">
        <ele>1087.99</ele>
        <time>2021-09-12T13:47:58.000Z</time>
      </trkpt>
      <trkpt lat="48.06478" lon="7.02284">
        <ele>1089.04</ele>
        <time>2021-09-12T13:48:05.000Z</time>
      </trkpt>
      <trkpt lat="48.06466" lon="7.02275">
        <ele>1090.65</ele>
        <time>2021-09-12T13:48:19.000Z</time>
      </trkpt>
      <trkpt lat="48.06463" lon="7.02261">
        <ele>1087.93</ele>
        <time>2021-09-12T13:48:38.000Z</time>
      </trkpt>
      <trkpt lat="48.0646" lon="7.02244">
        <ele>1084.73</ele>
        <time>2021-09-12T13:48:51.000Z</time>
      </trkpt>
      <trkpt lat="48.06457" lon="7.02229">
        <ele>1085.05</ele>
        <time>2021-09-12T13:49:07.000Z</time>
      </trkpt>
      <trkpt lat="48.06455" lon="7.02228">
        <ele>1085.69</ele>
        <time>2021-09-12T13:49:08.000Z</time>
      </trkpt>
    </trkseg>
  </trk>
</gpx>